[[{"header":{"parameterUnit":"m.s-1","parameterCategory":1,"la1":30.6,"la2":29.2853,"lo1":-89.7004,"lo2":-87.6739,"dy":0.0162,"dx":0.0183,"nx":112,"ny":82,"refTime":"2026-03-13T12:00:00:Z","depth":0,"parameterNumber":2,"parameterNumberName":"U-component_of_WINDS"},"data":[0.0,0.0,0.0,0.0,0.0,0.0,0.0,0.0,0.0,0.0,0.0,0.0,0.0,0.0,0.0,0.0,0.0,0.0,0.0,0.0,0.0,0.0,0.0,0.0,0.0,0.0,0.0,0.0,0.0,0.0,0.0,0.0,0.0,0.0,0.0,0.0,0.0,0.0,0.0,0.0,0.0,0.0,0.0,0.0,0.0,0.0,0.0,0.0,0.0,0.0,0.0,0.0,0.0,0.0,0.0,0.0,0.0,0.0,0.0,0.0,0.0,0.0,0.0,0.0,0.0,0.0,0.0,0.0,0.0,0.0,0.0,0.0,0.0,0.0,0.0,0.0,0.0,0.0,0.0,0.0,0.0,0.0,0.0,0.0,0.0,0.0,0.0,0.0,0.0,0.0,-6.2514,-6.7824,-7.6188,-8.0919,-7.9566,-7.9126,-7.4931,-6.5527,0.0,0.0,0.0,0.0,0.0,0.0,0.0,0.0,0.0,0.0,0.0,0.0,0.0,0.0,0.0,0.0,0.0,0.0,0.0,0.0,0.0,0.0,0.0,0.0,0.0,0.0,0.0,0.0,0.0,0.0,0.0,0.0,0.0,0.0,0.0,0.0,0.0,0.0,0.0,0.0,0.0,0.0,0.0,0.0,0.0,0.0,0.0,0.0,0.0,0.0,0.0,0.0,0.0,0.0,0.0,0.0,0.0,0.0,0.0,0.0,0.0,0.0,0.0,0.0,0.0,0.0,0.0,0.0,0.0,0.0,0.0,0.0,0.0,0.0,0.0,0.0,0.0,0.0,0.0,0.0,0.0,0.0,0.0,0.0,0.0,0.0,0.0,0.0,0.0,0.0,0.0,0.0,0.0,0.0,0.0,0.0,0.0,0.0,0.0,0.0,0.0,0.0,0.0,0.0,-6.2704,-7.4904,-7.987,-8.19,-8.1021,-7.9228,-7.483,-6.6981,0.0,0.0,0.0,0.0,0.0,0.0,0.0,0.0,0.0,0.0,0.0,0.0,0.0,0.0,0.0,0.0,0.0,0.0,0.0,0.0,0.0,0.0,0.0,0.0,0.0,0.0,0.0,0.0,0.0,0.0,0.0,0.0,0.0,0.0,0.0,0.0,0.0,0.0,0.0,0.0,0.0,0.0,0.0,0.0,0.0,0.0,0.0,0.0,0.0,0.0,0.0,0.0,0.0,0.0,0.0,0.0,0.0,0.0,0.0,0.0,0.0,0.0,0.0,0.0,0.0,0.0,0.0,0.0,0.0,0.0,0.0,0.0,0.0,0.0,0.0,0.0,0.0,0.0,0.0,0.0,0.0,0.0,0.0,0.0,0.0,0.0,0.0,0.0,0.0,0.0,0.0,0.0,0.0,0.0,0.0,0.0,0.0,0.0,0.0,0.0,0.0,0.0,0.0,-6.1245,-6.703,-7.7502,-8.0885,-8.1934,-8.0784,-7.9397,-7.5236,-6.732,-6.2584,0.0,0.0,0.0,0.0,0.0,0.0,0.0,0.0,0.0,0.0,0.0,0.0,0.0,0.0,0.0,0.0,0.0,0.0,0.0,0.0,0.0,0.0,0.0,0.0,0.0,0.0,0.0,0.0,0.0,0.0,0.0,0.0,0.0,0.0,0.0,0.0,0.0,0.0,0.0,0.0,0.0,0.0,0.0,0.0,0.0,0.0,0.0,0.0,0.0,0.0,0.0,0.0,0.0,0.0,0.0,0.0,0.0,0.0,0.0,0.0,0.0,0.0,0.0,0.0,0.0,0.0,0.0,0.0,0.0,0.0,0.0,0.0,0.0,0.0,0.0,0.0,0.0,0.0,0.0,0.0,0.0,0.0,0.0,0.0,0.0,0.0,0.0,0.0,0.0,0.0,0.0,0.0,0.0,0.0,0.0,0.0,0.0,0.0,0.0,0.0,0.0,0.0,-6.8243,-7.1999,-7.8889,-8.1291,-8.1799,-8.031,-7.872,-7.4661,-6.7286,-6.1095,0.0,0.0,0.0,0.0,0.0,0.0,0.0,0.0,0.0,0.0,0.0,0.0,0.0,0.0,0.0,0.0,0.0,0.0,0.0,0.0,0.0,0.0,0.0,0.0,0.0,0.0,0.0,0.0,0.0,0.0,0.0,0.0,0.0,0.0,0.0,0.0,0.0,0.0,0.0,0.0,0.0,0.0,0.0,0.0,0.0,0.0,0.0,0.0,0.0,0.0,0.0,0.0,0.0,0.0,0.0,0.0,0.0,0.0,0.0,0.0,0.0,0.0,0.0,0.0,0.0,0.0,0.0,0.0,0.0,0.0,0.0,0.0,0.0,0.0,0.0,0.0,0.0,0.0,0.0,0.0,0.0,0.0,0.0,0.0,0.0,0.0,0.0,0.0,0.0,0.0,0.0,0.0,0.0,0.0,0.0,0.0,0.0,0.0,0.0,0.0,0.0,0.0,-7.0085,-7.5946,-8.0615,-8.19,-8.1799,-8.031,-7.6318,-7.1853,-6.7117,-5.8693,0.0,0.0,0.0,0.0,0.0,0.0,0.0,0.0,0.0,0.0,0.0,0.0,0.0,0.0,0.0,0.0,0.0,0.0,0.0,0.0,0.0,0.0,0.0,0.0,0.0,0.0,0.0,0.0,0.0,0.0,0.0,0.0,0.0,0.0,0.0,0.0,0.0,0.0,0.0,0.0,0.0,0.0,0.0,0.0,0.0,0.0,0.0,0.0,0.0,0.0,0.0,0.0,0.0,0.0,0.0,0.0,0.0,0.0,0.0,0.0,0.0,0.0,0.0,0.0,0.0,0.0,0.0,0.0,0.0,0.0,0.0,0.0,0.0,0.0,0.0,0.0,0.0,0.0,0.0,0.0,0.0,0.0,0.0,0.0,0.0,0.0,0.0,0.0,0.0,0.0,0.0,0.0,0.0,0.0,0.0,0.0,0.0,0.0,0.0,0.0,0.0,0.0,-6.8547,-7.433,-8.1257,-8.2238,-8.2002,-8.0953,-7.8483,-7.3883,-6.6576,0.0,0.0,0.0,0.0,0.0,0.0,0.0,0.0,0.0,0.0,0.0,0.0,0.0,0.0,0.0,0.0,0.0,0.0,0.0,0.0,0.0,0.0,0.0,0.0,0.0,0.0,0.0,0.0,0.0,0.0,0.0,0.0,0.0,0.0,0.0,0.0,0.0,0.0,0.0,0.0,0.0,0.0,0.0,0.0,0.0,0.0,0.0,0.0,0.0,0.0,0.0,0.0,0.0,0.0,0.0,0.0,0.0,0.0,0.0,0.0,0.0,0.0,0.0,0.0,0.0,0.0,0.0,0.0,0.0,0.0,0.0,0.0,0.0,0.0,0.0,0.0,0.0,0.0,0.0,0.0,0.0,0.0,0.0,0.0,0.0,0.0,0.0,0.0,0.0,0.0,0.0,0.0,0.0,0.0,0.0,0.0,0.0,0.0,0.0,0.0,0.0,0.0,-6.3683,-6.9322,-7.5411,-8.3016,-8.3625,-8.3456,-8.3422,-8.0344,-7.4965,-6.6914,0.0,0.0,0.0,0.0,0.0,0.0,0.0,0.0,0.0,0.0,0.0,0.0,0.0,0.0,0.0,0.0,0.0,0.0,0.0,0.0,0.0,0.0,0.0,0.0,0.0,0.0,0.0,0.0,0.0,0.0,0.0,0.0,0.0,0.0,0.0,0.0,0.0,0.0,0.0,0.0,0.0,0.0,0.0,0.0,0.0,0.0,0.0,0.0,0.0,0.0,0.0,0.0,0.0,0.0,0.0,0.0,0.0,0.0,0.0,0.0,0.0,0.0,0.0,0.0,0.0,0.0,0.0,0.0,0.0,0.0,0.0,0.0,0.0,0.0,0.0,0.0,0.0,0.0,0.0,0.0,0.0,0.0,0.0,0.0,0.0,0.0,0.0,0.0,0.0,0.0,0.0,0.0,0.0,0.0,0.0,0.0,0.0,0.0,0.0,0.0,0.0,0.0,-6.5462,-7.319,-8.0344,-8.6298,-8.6264,-8.6399,-8.7854,-8.1224,-7.4356,0.0,0.0,0.0,0.0,0.0,0.0,0.0,0.0,0.0,0.0,0.0,0.0,0.0,0.0,0.0,0.0,0.0,0.0,0.0,0.0,0.0,0.0,0.0,0.0,0.0,0.0,0.0,0.0,0.0,0.0,0.0,0.0,0.0,0.0,0.0,0.0,0.0,0.0,0.0,0.0,0.0,0.0,0.0,0.0,0.0,0.0,0.0,0.0,0.0,0.0,0.0,0.0,0.0,0.0,0.0,0.0,0.0,0.0,0.0,0.0,0.0,0.0,0.0,0.0,0.0,0.0,0.0,0.0,0.0,0.0,0.0,0.0,0.0,0.0,0.0,0.0,0.0,0.0,0.0,0.0,0.0,0.0,0.0,0.0,0.0,0.0,0.0,0.0,0.0,0.0,0.0,0.0,0.0,0.0,0.0,0.0,0.0,0.0,0.0,0.0,0.0,0.0,0.0,-6.6906,-7.6058,-8.3558,-8.7955,-8.826,-8.7854,-8.7279,-8.3253,-7.6657,-6.6948,0.0,0.0,0.0,0.0,0.0,0.0,0.0,0.0,0.0,0.0,0.0,0.0,0.0,0.0,0.0,0.0,0.0,0.0,0.0,0.0,0.0,0.0,0.0,0.0,0.0,0.0,0.0,0.0,0.0,0.0,0.0,0.0,0.0,0.0,0.0,0.0,0.0,0.0,0.0,0.0,0.0,0.0,0.0,0.0,0.0,0.0,0.0,0.0,0.0,0.0,0.0,0.0,0.0,0.0,0.0,0.0,0.0,0.0,0.0,0.0,0.0,0.0,0.0,0.0,0.0,0.0,0.0,0.0,0.0,0.0,0.0,0.0,0.0,0.0,0.0,0.0,0.0,0.0,0.0,0.0,0.0,0.0,0.0,0.0,0.0,0.0,0.0,0.0,0.0,0.0,0.0,0.0,0.0,0.0,0.0,0.0,0.0,0.0,0.0,0.0,0.0,0.0,-6.7577,-7.7543,-8.5587,-8.9951,-9.0154,-8.9985,-9.0019,-8.6704,-8.0107,-6.9451,0.0,0.0,0.0,0.0,0.0,0.0,0.0,0.0,0.0,0.0,0.0,0.0,0.0,0.0,0.0,0.0,0.0,0.0,0.0,0.0,0.0,0.0,0.0,0.0,0.0,0.0,0.0,0.0,0.0,0.0,0.0,0.0,0.0,0.0,0.0,0.0,0.0,0.0,0.0,0.0,0.0,0.0,0.0,0.0,0.0,0.0,0.0,0.0,0.0,0.0,0.0,0.0,0.0,0.0,0.0,0.0,0.0,0.0,0.0,0.0,0.0,0.0,0.0,0.0,0.0,0.0,0.0,0.0,0.0,0.0,0.0,0.0,0.0,0.0,0.0,0.0,0.0,0.0,0.0,0.0,0.0,0.0,0.0,0.0,0.0,0.0,0.0,0.0,0.0,0.0,0.0,0.0,0.0,0.0,0.0,0.0,0.0,0.0,0.0,0.0,0.0,0.0,-6.7812,-7.8352,-8.7042,-9.2015,-9.1981,-9.2353,-9.4248,-9.0459,-8.3828,-7.4086,0.0,0.0,0.0,0.0,0.0,0.0,0.0,0.0,0.0,0.0,0.0,0.0,0.0,0.0,0.0,0.0,0.0,0.0,0.0,0.0,0.0,0.0,0.0,0.0,0.0,0.0,0.0,0.0,0.0,0.0,0.0,0.0,0.0,0.0,0.0,0.0,0.0,0.0,0.0,0.0,0.0,0.0,0.0,0.0,0.0,0.0,0.0,0.0,0.0,0.0,0.0,0.0,0.0,0.0,0.0,0.0,0.0,0.0,0.0,0.0,-4.198,-3.9416,0.0,0.0,0.0,0.0,0.0,0.0,0.0,0.0,0.0,0.0,0.0,0.0,0.0,0.0,0.0,0.0,0.0,0.0,0.0,0.0,0.0,0.0,0.0,0.0,0.0,0.0,0.0,0.0,0.0,0.0,0.0,0.0,0.0,0.0,0.0,0.0,0.0,0.0,0.0,0.0,-6.9514,-8.1254,-9.0121,-9.303,-9.3706,-9.3436,-9.215,-8.9545,-8.3828,-7.4086,-6.6914,0.0,0.0,0.0,0.0,0.0,0.0,0.0,0.0,0.0,0.0,0.0,0.0,0.0,0.0,0.0,0.0,0.0,0.0,0.0,0.0,0.0,0.0,0.0,0.0,0.0,0.0,0.0,0.0,0.0,0.0,0.0,0.0,0.0,0.0,0.0,0.0,0.0,0.0,0.0,0.0,0.0,0.0,0.0,0.0,0.0,0.0,0.0,0.0,0.0,0.0,0.0,0.0,0.0,0.0,0.0,0.0,0.0,0.0,0.0,0.0,-4.371,0.0,0.0,0.0,0.0,0.0,0.0,0.0,0.0,0.0,0.0,0.0,0.0,0.0,0.0,0.0,0.0,0.0,0.0,0.0,0.0,0.0,0.0,0.0,0.0,0.0,0.0,0.0,0.0,0.0,0.0,0.0,0.0,0.0,0.0,0.0,0.0,0.0,0.0,0.0,0.0,-7.0364,-8.196,-9.0581,-9.33,-9.3605,-9.3131,-9.1947,-8.9478,-8.4911,-7.7671,-7.0297,0.0,0.0,0.0,0.0,0.0,0.0,0.0,0.0,0.0,0.0,0.0,0.0,0.0,0.0,0.0,0.0,0.0,0.0,0.0,0.0,0.0,0.0,0.0,0.0,0.0,0.0,0.0,0.0,0.0,0.0,0.0,0.0,0.0,0.0,0.0,0.0,0.0,0.0,0.0,0.0,0.0,0.0,0.0,0.0,0.0,0.0,0.0,0.0,0.0,0.0,0.0,0.0,0.0,-5.0922,-5.1605,-5.1936,-5.3157,-5.3489,-5.3033,-5.1398,-4.9676,-4.8168,-4.6979,0.0,0.0,0.0,0.0,0.0,0.0,0.0,0.0,0.0,0.0,0.0,0.0,0.0,0.0,0.0,0.0,0.0,0.0,0.0,0.0,0.0,0.0,0.0,0.0,-6.6752,-6.6562,-5.6866,0.0,0.0,0.0,0.0,0.0,0.0,0.0,0.0,0.0,0.0,0.0,-7.1304,-8.1716,-8.9677,-9.2861,-9.2624,-9.2184,-9.2049,-8.9545,-8.6129,-8.1765,-7.4289,-6.7557,0.0,0.0,0.0,0.0,0.0,0.0,0.0,0.0,0.0,0.0,0.0,0.0,0.0,0.0,0.0,0.0,0.0,0.0,0.0,0.0,0.0,0.0,0.0,0.0,0.0,0.0,0.0,0.0,0.0,0.0,0.0,0.0,-3.4121,-3.3203,0.0,0.0,0.0,0.0,0.0,0.0,0.0,0.0,0.0,0.0,0.0,0.0,0.0,-4.732,-4.9121,-5.3178,-5.531,-5.5517,-5.916,-6.0713,-6.0444,-6.1003,-6.121,-6.121,-6.21,0.0,-5.1339,-5.2528,0.0,0.0,0.0,0.0,0.0,0.0,0.0,0.0,0.0,0.0,0.0,0.0,0.0,0.0,0.0,0.0,0.0,0.0,0.0,0.0,0.0,0.0,-7.3153,-7.2311,-7.3178,-7.3369,0.0,-6.1174,-5.3621,-5.2029,-4.9842,-4.717,0.0,0.0,0.0,0.0,0.0,0.0,-7.2787,-8.1884,-8.87,-9.1338,-9.1508,-9.1203,-9.056,-8.897,-8.6366,-8.2509,-7.6995,-7.209,-6.8098,-6.0182,0.0,0.0,0.0,0.0,0.0,0.0,0.0,0.0,0.0,0.0,0.0,0.0,0.0,0.0,0.0,0.0,0.0,0.0,0.0,0.0,0.0,0.0,0.0,0.0,0.0,0.0,0.0,0.0,0.0,-3.3555,-3.5976,-3.3691,-3.5586,-3.5625,0.0,0.0,0.0,0.0,0.0,0.0,0.0,0.0,0.0,-5.117,-5.1775,-5.3632,-5.6987,-5.8995,-6.0527,-6.1562,-6.3362,-6.4232,-6.4356,-6.4542,-6.4604,-6.4625,-6.5225,-6.3218,-5.9222,-5.6913,-5.4388,-5.1751,0.0,0.0,0.0,0.0,-5.5819,-5.683,-6.1914,-6.3043,-6.2525,-6.3415,0.0,0.0,0.0,0.0,0.0,0.0,0.0,0.0,0.0,0.0,-7.4372,-7.6346,-7.7607,-7.7912,-7.6004,-7.0593,-6.4606,-5.9577,-5.6929,-5.3765,-4.8095,-4.8497,0.0,0.0,0.0,-6.8311,-7.5,-8.2583,-8.8216,-9.0493,-9.0696,-9.0391,-8.9647,-8.8226,-8.6501,-8.4437,-7.9803,-7.5845,-7.2935,-6.573,-5.9844,0.0,0.0,0.0,0.0,0.0,0.0,0.0,0.0,0.0,0.0,0.0,0.0,0.0,0.0,0.0,0.0,0.0,0.0,0.0,0.0,0.0,0.0,0.0,0.0,0.0,0.0,0.0,0.0,-3.5566,-3.8086,-3.4941,-3.7877,-3.8308,0.0,0.0,0.0,0.0,0.0,0.0,-4.6803,-4.878,-5.2026,-5.6801,-5.7407,-5.9449,-6.3176,-6.33,-6.417,-6.5784,-6.566,-6.5909,-6.6488,-6.6488,-6.6488,-6.6488,-6.6612,-6.6302,-6.5412,-6.0609,-5.7932,-5.6465,-5.5305,-5.6032,-5.8101,-6.1223,-6.2582,-6.38,-7.0113,-7.1724,-7.0789,-7.0502,-6.8,-6.3849,-5.784,0.0,0.0,0.0,0.0,-6.1755,-6.9176,-7.2398,-7.4808,-7.864,-8.0386,-8.058,-7.9123,-7.7118,-7.3656,-6.6731,-6.4504,-6.1444,-5.4315,-5.4838,0.0,-5.5809,-6.2974,-7.0619,-7.681,-8.2677,-8.7015,-8.9095,-8.9207,-8.8835,-8.8294,-8.7076,-8.5993,-8.5249,-8.1731,-7.8822,-7.6927,-7.0939,-6.5662,-6.1366,0.0,0.0,0.0,0.0,0.0,0.0,0.0,0.0,0.0,0.0,0.0,0.0,0.0,0.0,0.0,0.0,0.0,0.0,0.0,0.0,0.0,0.0,0.0,0.0,0.0,0.0,0.0,0.0,0.0,-3.8105,-4.2506,0.0,0.0,0.0,0.0,-4.3467,-4.6933,-5.0274,-5.3337,-5.6409,-5.9199,-6.1624,-6.2969,-6.3983,-6.4604,-6.5039,-6.5784,-6.6737,-6.6302,-6.655,-6.742,-6.742,-6.742,-6.744,-6.7875,-6.7565,-6.6488,-6.3611,-6.1735,-6.0532,-6.2561,-6.3478,-6.4039,-6.804,-6.9735,-7.0586,-7.4153,-7.4061,-7.3433,-7.8146,-7.5055,-6.8834,-6.5898,-6.3301,0.0,0.0,-6.6314,-6.9931,-7.3385,-7.5708,-7.7682,-7.9743,-8.0893,-8.1161,-7.9834,-7.806,-7.5707,0.0,-7.1198,-6.9398,-6.4129,0.0,-6.5568,-6.4862,-6.8175,-7.2512,-7.7614,-8.1565,-8.4732,-8.6797,-8.6433,-8.5993,-8.596,-8.5215,-8.4403,-8.3659,-8.2069,-8.0818,-8.0006,-7.554,-7.1312,-6.7523,-6.0892,0.0,0.0,0.0,0.0,0.0,0.0,0.0,0.0,0.0,0.0,0.0,0.0,0.0,0.0,0.0,0.0,0.0,0.0,0.0,0.0,0.0,0.0,0.0,0.0,0.0,0.0,0.0,0.0,-4.1094,-4.7002,0.0,-4.4017,-4.6041,-4.8066,-4.9433,-5.2784,-5.5931,-5.8582,-6.0604,-6.2398,-6.417,-6.4977,-6.5598,-6.6053,-6.5929,-6.6178,-6.6799,-6.6612,-6.6737,-6.7047,-6.7358,-6.7316,-6.7047,-6.7233,-6.6923,-6.6281,-6.5288,-6.5811,-6.7216,-6.77,-6.972,-7.2375,-7.4516,-7.5616,-7.6455,-7.8566,-7.8696,-7.7839,-7.7552,-7.4757,-7.1114,-6.9076,-6.7881,-6.7721,-6.9642,-7.1792,-7.4111,-7.6869,-7.8436,-7.9452,-8.0434,-8.1049,-8.1278,-8.0728,-7.9902,-7.8789,-7.6724,-7.3567,-7.0433,-6.8326,-6.8977,-6.9485,-6.9046,-7.2051,-7.5668,-7.9288,-8.1665,-8.349,-8.4567,-8.4911,-8.4843,-8.437,-8.4065,-8.3592,-8.2847,-8.1393,-8.004,-7.8822,-7.5845,-7.2902,-7.0161,-6.4884,-5.8496,0.0,0.0,0.0,0.0,0.0,0.0,0.0,0.0,0.0,0.0,0.0,0.0,0.0,0.0,0.0,0.0,0.0,0.0,0.0,0.0,0.0,0.0,0.0,0.0,0.0,0.0,-4.6888,-4.5103,-5.0976,-5.366,-4.9431,-5.1658,-5.3834,-5.5211,-5.7881,-6.032,-6.2162,-6.3549,-6.4625,-6.5412,-6.5867,-6.6178,-6.6343,-6.6033,-6.6116,-6.655,-6.655,-6.6674,-6.6799,-6.7109,-6.7109,-6.6799,-6.6799,-6.6993,-6.7182,-6.722,-6.9362,-7.2611,-7.1489,-7.3486,-7.7072,-7.8683,-7.9433,-7.9966,-8.1111,-8.123,-8.0427,-7.7972,-7.5959,-7.4335,-7.3097,-7.3043,-7.3823,-7.5087,-7.6288,-7.7507,-7.9191,-7.9975,-8.0294,-8.0609,-8.1078,-8.1278,-8.0728,-8.0646,-8.0075,-7.8729,-7.6229,-7.3903,-7.2606,-7.3366,-7.3727,-7.225,-7.4668,-7.7329,-7.9187,-8.0861,-8.2248,-8.3013,-8.3355,-8.3186,-8.2441,-8.1934,-8.1426,-8.0953,-7.9025,-7.7604,-7.6893,-7.4221,-7.1954,-7.0195,-6.4864,-5.888,-5.2413,0.0,0.0,0.0,0.0,0.0,0.0,0.0,0.0,0.0,0.0,0.0,0.0,0.0,0.0,0.0,0.0,0.0,0.0,0.0,0.0,0.0,0.0,0.0,-4.1191,-4.6971,-5.0862,-5.0086,-5.4618,-5.725,-5.5672,-5.6726,-5.8374,-6.0609,-6.1976,-6.3114,-6.4066,-6.537,-6.5867,-6.5412,-6.5846,-6.5867,-6.5412,-6.5412,-6.566,-6.6095,-6.6095,-6.6343,-6.6737,-6.6737,-6.6737,-6.6737,-6.6716,-6.7812,-6.9549,-6.9649,-7.2412,-7.6442,-7.4121,-7.5171,-7.7832,-8.0041,-8.0897,-8.0988,-8.1376,-8.1366,-8.1107,-7.9886,-7.94,-7.8948,-7.7954,-7.8799,-7.9811,-7.9371,-7.9801,-8.0294,-8.0294,-8.0294,-8.0294,-8.0294,-8.0893,-8.1161,-7.9893,-7.9694,-7.9387,-7.81,-7.9521,-7.9984,-7.7116,-7.8208,-7.8337,-7.4867,-7.6125,0.0,-7.7312,-7.912,-8.0905,-8.2101,-8.1629,-8.0885,-8.0141,-7.872,-7.7874,-7.7841,-7.5033,-7.3713,-7.4458,-7.1007,-6.8673,-6.7861,-6.0815,-5.5519,-5.2145,0.0,0.0,0.0,0.0,0.0,0.0,0.0,0.0,0.0,0.0,0.0,0.0,0.0,0.0,0.0,0.0,0.0,0.0,0.0,0.0,0.0,-4.1699,-4.4766,-4.4062,-4.9163,-5.3172,-5.4404,-5.8697,-6.123,-6.0087,-6.114,-6.1955,-6.2576,-6.33,-6.4066,-6.4998,-6.5412,-6.5536,-6.5412,-6.5536,-6.5536,-6.5412,-6.5412,-6.5474,-6.5598,-6.5929,-6.5805,-6.5288,-6.566,-6.5432,-6.5017,-6.6548,-6.777,-6.8766,-7.0398,-7.3275,-7.6649,-7.6442,-7.7885,-8.0093,-8.1196,-8.1825,-8.196,-8.2141,-8.1741,-8.1107,-7.9886,-7.94,-7.9086,-7.8989,-7.9479,-7.9897,-7.992,-8.0149,-8.0294,-8.0294,-8.0294,-8.0452,-8.1078,-8.1006,-8.0842,-8.1122,-8.0078,-7.8968,-7.8579,-7.9428,-7.97,-7.8438,-7.7818,-7.7603,-7.799,-7.8179,-7.8358,-7.8682,-7.9321,-7.9562,-7.9195,-7.9025,-7.8585,-7.7874,-7.642,-7.5303,-7.4762,-7.2428,-7.1176,-7.1379,-6.935,-6.7709,-6.6554,-6.1081,-5.6987,0.0,0.0,0.0,0.0,0.0,0.0,0.0,0.0,0.0,0.0,0.0,0.0,0.0,0.0,0.0,0.0,0.0,0.0,0.0,0.0,0.0,0.0,-4.6367,-4.9746,-5.0078,-5.3469,-5.6493,-5.8279,-6.132,-6.3108,-6.2985,-6.3327,-6.3549,-6.3921,-6.4004,-6.4377,-6.5101,-6.5288,-6.5412,-6.5412,-6.5412,-6.5412,-6.5412,-6.5412,-6.5412,-6.5412,-6.5495,-6.5225,-6.4729,-6.4811,-6.4563,-6.4269,-6.5561,-6.7408,-6.9763,-7.093,-7.4024,0.0,0.0,0.0,0.0,0.0,-8.144,-8.16,-8.1607,-8.1334,-8.0781,-7.9804,-7.974,-8.0018,-7.9633,-8.0098,-8.0784,-8.0397,-8.0294,-8.0294,-8.0294,-8.0452,-8.0551,-8.0726,-8.0807,-8.085,-8.0765,-7.9451,-7.831,-7.8011,-7.8274,0.0,-7.7935,-7.8179,-7.8323,-7.823,-7.8411,-7.8525,-7.8448,-7.902,-7.926,-7.9025,-7.8923,-7.8619,-7.7874,-7.5845,0.0,0.0,0.0,-6.8319,-6.715,-6.6234,0.0,0.0,0.0,0.0,0.0,0.0,0.0,0.0,-5.4287,-5.3736,0.0,0.0,0.0,0.0,0.0,0.0,0.0,0.0,0.0,0.0,0.0,0.0,0.0,0.0,0.0,0.0,-5.0605,-5.4531,-5.7286,-5.8506,-5.9697,-6.1503,-6.2557,-6.3639,-6.4373,-6.3966,-6.3797,-6.4604,-6.4294,-6.4253,-6.4729,0.0,0.0,0.0,0.0,-6.5412,-6.5412,-6.5412,-6.5412,-6.5412,-6.4977,-6.4729,-6.4667,-6.419,-6.4165,-6.4346,-6.4548,-6.7539,-7.1986,-7.2257,-7.4953,-7.8982,-7.7585,-7.8412,-8.0714,-8.0798,-8.082,-8.0776,-8.0561,0.0,0.0,-7.9794,-8.0433,-8.115,-8.0054,-8.0849,-8.192,-8.0643,-8.0294,-8.0294,-8.0294,-8.0551,-8.0659,-8.0044,-8.0424,-8.0644,-7.9486,-7.841,-7.7532,-7.6933,-7.6939,-7.7109,-7.6896,-7.8907,-7.9627,-7.6987,-7.7682,-7.8259,-7.758,-7.8585,-7.9528,-7.9871,0.0,0.0,-7.8923,-7.6183,-7.4153,-7.3409,-6.9316,-6.5812,-6.3339,-6.3305,-6.2889,-6.1792,-6.2449,-6.3107,-6.3841,-6.46,-6.5428,-6.6048,-5.7771,-5.6736,0.0,0.0,0.0,0.0,0.0,0.0,0.0,0.0,0.0,0.0,0.0,0.0,0.0,0.0,0.0,-4.834,-5.2578,-5.6635,-5.9797,-6.0573,-6.117,-6.2106,-6.3058,-6.3691,-6.4647,-6.4273,-6.4004,-6.419,-6.4128,-6.4253,-6.4729,-6.5163,-6.5412,-6.5412,-6.5412,-6.5412,-6.5412,-6.5412,-6.5412,-6.5412,0.0,0.0,-6.419,-6.3694,-6.4359,-6.5672,-6.7576,-7.0519,-7.3977,-7.5709,-7.7532,-7.9136,-7.8828,-7.9359,-8.0359,-8.1217,-8.1174,-8.0776,-8.1145,-8.0734,-8.0419,-8.0015,-8.0624,-8.1321,-8.0723,-8.134,0.0,-8.0643,-8.0294,-8.0294,-8.0294,-8.023,-8.0103,-8.0389,-8.0047,-7.9545,-7.972,-7.8196,-7.6993,-7.6844,-7.7683,-7.8376,-7.7649,-7.8409,-7.8892,-7.8131,-7.8525,-7.8836,-7.8986,-7.9428,-7.933,-7.8551,-7.8416,-7.8111,-7.7401,-7.51,-7.3409,-7.2665,-6.9519,-6.7269,-6.6364,-6.7039,-6.7146,-6.6495,-6.617,-6.5876,-6.5462,-6.6186,-6.7256,-6.8566,-6.5531,-6.4427,0.0,0.0,0.0,0.0,0.0,0.0,0.0,0.0,0.0,0.0,0.0,-3.7368,-4.1172,0.0,-4.7453,-5.1893,-5.4902,-5.7462,-6.0111,-6.0924,-6.1894,-6.3023,-6.3225,-6.3595,-6.4276,-6.3698,-6.3569,-6.4004,-6.4066,-6.4253,-6.4729,-6.5163,-6.5412,-6.5412,-6.5412,-6.5412,-6.5412,-6.5412,-6.5412,-6.5412,-6.4729,-6.4294,-6.4066,-6.3362,-6.4156,-6.6033,-6.7286,-7.0125,-7.4481,-7.7286,-7.8787,-7.9172,-7.9172,-7.952,-7.9975,-8.093,-8.0936,-8.0722,-8.0869,-8.0455,-7.9984,-7.9944,-8.0686,-8.1406,-8.1287,-8.1763,-8.2007,-8.102,-8.0527,-8.0294,-8.0609,-8.0659,-8.0558,-8.0369,-8.0169,-7.9841,-7.9447,-7.825,-7.7344,-7.7819,-7.8723,-7.9318,-7.8882,-7.9652,-8.003,-7.9164,-7.8956,-7.9041,-7.9388,-7.9596,-7.9601,-7.916,-7.9092,-7.8957,-7.8585,-7.6115,-7.4119,-7.3003,-7.0838,-6.9456,-6.905,-6.9441,-6.9693,-6.9645,-6.9348,-6.9256,-6.9291,-6.9635,-7.0429,-7.1498,-7.0739,-6.998,0.0,0.0,0.0,0.0,0.0,0.0,0.0,0.0,-3.175,-3.6515,-3.8494,-4.0805,-4.6288,-4.7883,-5.0217,-5.5201,-5.6855,-5.8047,-5.9913,-6.1123,-6.2181,-6.3781,-6.3496,-6.3434,-6.4008,-6.3347,-6.3114,-6.388,-6.3942,-6.4066,-6.4418,-6.4977,-6.5288,-6.5288,-6.535,-6.5412,-6.5412,-6.5412,-6.535,-6.5288,-6.4439,-6.4004,-6.388,-6.3052,-6.414,-6.665,-6.7897,-7.0766,-7.5112,-7.7937,-7.9172,-7.9172,-7.9172,-7.9528,-8.01,-8.0479,-8.0669,-8.0451,-8.0436,-8.0175,-7.9728,-8.0185,-8.0859,-8.1803,-8.202,-8.2215,-8.2065,-8.1397,-8.0759,-8.0452,-8.0766,-8.1116,-8.1226,-8.0494,-8.0497,-8.0315,-7.9238,-7.837,-7.8016,-7.8808,-7.9395,-7.9887,-8.0011,-8.1033,-8.1293,-7.9836,-7.9429,-7.9208,-7.9422,-7.9699,-8.0006,-8.0209,-8.0209,-8.0141,-8.0006,-7.7638,-7.5506,-7.4018,-7.2699,-7.1796,-7.1507,-7.1473,-7.1645,-7.2153,-7.2153,-7.2464,-7.3119,-7.3119,-7.3429,-7.4016,-7.4016,-7.3705,-2.2032,-2.1336,-2.1977,-2.2779,-2.3917,-2.6616,0.0,0.0,-3.8723,-4.2757,-4.6827,-4.9893,-5.0762,-5.2691,-5.4792,-5.6308,-5.7558,-5.9292,-6.178,-6.2207,-6.2901,-6.4461,-6.4008,-6.4008,-6.4503,-6.3859,-6.3321,-6.3445,-6.3445,-6.3487,-6.3507,-6.4356,-6.4791,-6.4791,-6.5225,-6.5412,-6.5412,-6.5412,-6.5225,-6.4791,-6.4315,-6.3859,-6.3425,-6.2928,-6.4982,-6.9386,-7.4113,-7.6596,-7.7404,-7.8568,-7.9172,-7.9172,-7.9172,-7.9745,-8.0667,-8.0667,-8.0669,-8.0451,-8.0436,-8.0535,-8.0792,-8.1082,-8.1888,-8.262,-8.2878,-8.2733,-8.2065,-8.1397,-8.0759,-8.0452,-8.0766,-8.0764,-8.0753,-8.0939,-8.0467,-7.9896,-7.9746,-7.8699,-7.8016,-7.8808,-7.9395,-8.0078,-8.0689,-8.1361,-8.1293,-7.9836,-8.0001,-8.0158,-7.9489,-7.9801,-8.0209,-8.0209,-8.0209,-7.9938,-7.9295,-7.8314,-7.7063,-7.554,-7.4695,-7.4068,-7.383,-7.3796,-7.4008,-7.4533,-7.4533,-7.4602,-7.4671,-7.4671,-7.474,-7.4809,-7.4809,-7.474,-2.4649,-2.4235,-2.493,-2.652,-2.8027,-3.0966,-3.7274,-3.9907,-4.2504,-4.7479,-5.0746,-5.2715,-5.3223,-5.4609,-5.6035,0.0,-5.8229,-5.9477,-6.1684,-6.1867,-6.2212,-6.2841,-6.2878,-6.3141,-6.3901,-6.3362,-6.299,-6.299,-6.3238,-6.3362,-6.3362,-6.3983,-6.448,-6.4729,-6.4915,-6.5163,-6.5412,-6.5163,-6.4915,-6.4729,-6.4004,-6.3569,-6.3342,-6.4156,-6.7074,-7.1477,-7.5782,-7.7625,-7.7625,-7.8787,-7.9172,-7.9172,-7.9528,-8.01,-8.0667,-8.0667,-8.0669,-8.0388,-8.0328,-8.0316,-8.0498,-8.1143,-8.1831,-8.233,-8.2927,-8.2733,-8.2065,-8.1397,-8.102,-8.0888,-8.1166,-8.1154,-8.1167,-8.1419,-8.0914,-8.0285,-7.9896,-7.9058,-7.875,-7.9778,-8.0228,-8.0837,-8.1864,-8.2359,-8.2145,-8.065,-8.0442,-8.0393,-8.0267,-8.0276,-8.0209,-8.0209,-8.0209,-8.0073,-7.9769,-7.8653,-7.7705,-7.7063,-7.6008,-7.551,-7.5538,-7.5686,-7.5866,-7.6258,-7.6258,-7.6258,-7.6258,-7.6258,-7.6258,-7.6258,-7.6258,-7.6258,-2.6066,-2.6587,-2.7802,-2.981,-3.1956,-3.4989,-4.0617,-4.2973,-4.5439,-5.0271,-5.2742,-5.4062,-5.459,-5.5678,-5.6891,-5.8387,-5.8981,-5.9737,-6.1504,-6.1683,-6.1536,-6.153,-6.1532,-6.1727,-6.2369,-6.2472,-6.2493,-6.2493,-6.2928,-6.3176,-6.3176,-6.3632,-6.4066,-6.4542,-6.4667,-6.4915,-6.5225,-6.4915,-6.4604,-6.4356,-6.3673,-6.3742,-6.4212,-6.6613,-6.9779,-7.313,-7.6177,-7.7625,-7.7794,-7.8787,-7.9172,-7.9172,-7.9719,-8.0183,-8.0454,-8.0616,-8.0559,-8.0401,-8.0238,-8.0194,-8.0513,-8.1232,-8.183,-8.2318,-8.3005,-8.2588,-8.1862,-8.1543,-8.1223,-8.1034,-8.1713,-8.1662,-8.1521,-8.178,-8.1272,-8.0614,-7.9956,-7.9267,-7.9194,-8.0632,-8.0868,-8.1313,-8.2659,-8.3108,-8.2966,-8.1976,-8.1257,-8.0938,-8.0912,-8.0613,-8.0412,-8.0209,-8.0209,-8.0209,-8.0209,-7.9228,-7.8517,-7.8413,-7.7352,-7.6726,-7.6895,-7.6839,-7.6918,-7.7223,-7.7223,-7.7223,-7.7223,-7.7223,-7.7223,-7.7223,-7.7223,-7.7223,-2.5531,-2.7629,-3.0281,-3.2066,-3.4742,-3.7881,-4.2126,-4.5202,-4.8088,-5.0617,-5.3406,-5.5137,-5.4746,-5.6123,-5.7554,-5.803,-5.9238,-6.0595,-6.1561,-6.1455,-6.1059,-6.0837,-6.034,-6.0071,-6.0092,-6.1292,-6.2058,-6.2058,-6.2452,-6.2679,-6.2679,-6.3135,-6.3611,-6.4066,-6.448,-6.4729,-6.4729,-6.4729,-6.4294,-6.3425,-6.3383,-6.4191,-6.6055,-7.0424,-7.2904,-7.3711,-7.6374,-7.782,-7.8401,-7.898,-7.9172,-7.9172,-7.9719,-7.9945,-7.9842,-8.0373,-8.0367,-8.0347,-7.9723,-8.034,-8.1403,-8.1403,-8.2167,-8.3197,-8.3197,-8.2268,-8.1368,-8.1978,-8.1281,-8.0626,-8.2154,-8.1986,-8.1521,-8.178,-8.1272,-8.0614,-7.9956,-7.9267,-7.9194,-8.0632,-8.0868,-8.1313,-8.2659,-8.3108,-8.341,-8.3708,-8.2684,-8.1686,-8.0979,-8.1155,-8.0987,-8.0276,-8.0209,-8.0209,-8.0209,-8.0175,-7.9937,-7.9522,-7.8706,-7.8115,-7.7961,-7.7205,-7.6918,-7.7223,-7.7223,-7.7223,-7.7223,-7.7223,-7.7223,-7.7223,-7.7223,-7.7223,-2.8016,-3.0154,-3.2372,-3.4353,-3.6484,-3.8828,-4.2478,-4.4255,-4.6224,-5.0184,-5.0678,-5.0742,-5.1971,-5.3093,-5.4504,-5.5927,-5.8253,-6.03,-6.1707,-6.1419,-6.079,-5.9492,-5.9429,-5.916,-5.825,-5.9678,0.0,-6.1976,-6.2162,-6.2369,-6.2679,-6.2804,-6.3114,-6.3569,-6.3756,-6.3983,-6.4294,-6.3983,-6.3673,-6.3383,-6.4522,-6.7017,-7.0424,-7.209,-7.3736,-7.5782,-7.7013,-7.7794,-7.8401,-7.898,-7.9363,-7.9693,-7.9865,-7.9975,-8.0266,-8.001,-7.9786,-7.9777,-7.956,-8.034,-8.1403,-8.1403,-8.1881,-8.253,-8.253,-8.1891,-8.1252,-8.1455,-8.1223,-8.1092,-8.2272,-8.2016,-8.1521,-8.178,-8.1272,-8.0614,-7.9956,-7.9267,-7.9315,-8.1165,-8.1152,-8.1566,-8.3597,-8.3743,-8.3775,-8.4319,-8.3549,-8.2574,-8.1324,-8.1291,-8.119,-8.0953,-8.0479,-8.0209,-8.0209,-7.9769,-7.9463,-7.9522,-7.8933,-7.8579,-7.8716,-7.8179,-7.7891,-7.8017,-7.7499,-7.7223,-7.7223,-7.7223,-7.7223,-7.7223,-7.7223,-7.7223,-3.0662,-3.2759,-3.4656,-3.6638,-3.8345,-4.0109,-4.3278,-4.4884,-4.6636,-5.0094,-4.9698,-4.8969,-4.9811,-5.0032,-5.1049,-5.3662,-5.6234,-5.8536,-6.0843,-6.072,-6.0026,-5.856,-5.8477,-5.827,-5.7546,-5.8394,-5.9636,-6.1189,-6.1748,-6.2162,-6.2431,-6.2617,-6.2886,-6.3362,-6.3362,-6.3425,-6.3569,-6.3445,-6.3658,-6.4135,-6.6752,-6.9433,-7.2172,-7.337,-7.4789,-7.6428,-7.701,-7.7588,-7.8189,-7.838,-7.8924,-7.925,-7.9442,-7.9733,-7.9806,-7.9597,-7.9522,-7.9688,-7.9688,-8.0498,-8.1403,-8.1717,-8.2072,-8.2181,-8.2181,-8.1572,-8.0904,-8.1136,-8.1208,-8.125,-8.2272,-8.2171,-8.1675,-8.178,-8.1272,-8.0614,-7.9956,-7.9267,-7.9375,-8.1447,-8.1499,-8.1917,-8.4076,-8.4133,-8.4001,-8.4162,-8.3795,-8.305,-8.1832,-8.146,-8.119,-8.0919,-8.0479,-8.0209,-8.0209,-7.9769,-7.9598,-7.9994,-7.9439,-7.9282,-7.9599,-7.9097,-7.881,-7.881,-7.8292,-7.7913,-7.7637,-7.7637,-7.7499,-7.7223,-7.7499,-7.7499,-3.3307,-3.5324,-3.7176,-3.8706,-4.0148,-4.1686,-4.4217,-4.6746,-4.878,-4.9926,-4.9912,-4.9266,-4.8144,-4.6987,-4.7568,-5.1519,-5.3568,-5.5821,-5.9312,-5.9434,-5.8867,-5.8125,-5.7587,-5.7484,-5.7877,-5.7566,-5.8084,-5.9864,0.0,-6.1976,-6.2058,-6.2431,-6.2866,-6.3321,-6.33,-6.3114,-6.2679,-6.3272,-6.4093,-6.5479,-6.9836,-7.1643,-7.136,-7.4509,-7.5843,-7.5908,-7.6504,-7.707,-7.7473,-7.7473,-7.7821,-7.8354,-7.8671,-7.8876,-7.8965,-7.9272,-7.9606,-7.9991,-7.9991,-8.0686,-8.1575,-8.2397,-8.2404,-8.2181,-8.2181,-8.131,-8.0439,-8.102,-8.1075,-8.1225,-8.2154,-8.2326,-8.1981,-8.178,-8.1272,-8.0614,-8.0102,-7.9412,-7.9516,-8.1579,-8.2011,-8.2553,-8.4076,-8.432,-8.4049,-8.3659,-8.349,-8.3186,-8.2509,-8.1765,-8.1021,-8.031,-8.0209,-8.0209,-8.0209,-8.0209,-8.041,-8.1005,-8.0287,-8.0104,-8.0672,-7.9948,-7.9569,-7.9569,-7.9534,-7.9155,-7.8465,-7.8465,-7.8085,-7.7361,-7.812,-7.8051,-3.5244,-3.7448,-3.9092,-3.9205,-4.0256,-4.1228,-4.1389,-4.3276,-4.514,-4.5977,-4.4339,-4.2963,-4.3748,-4.4813,-4.6562,-4.9512,-5.423,-5.8232,-6.0191,-6.0356,-5.9779,-5.8601,-5.8643,-5.8539,-5.798,-5.8436,-5.9119,0.0,-6.032,-6.1106,-6.2452,-6.2307,-6.241,-6.2866,-6.2555,-6.2327,-6.2203,-6.3612,-6.5216,-6.7234,-6.9904,-7.21,-7.3596,-7.4717,-7.5462,-7.5908,-7.6504,-7.707,-7.7473,-7.7821,-7.8354,-7.8671,-7.8796,-7.9073,-7.9245,-7.899,-7.9251,-8.0166,-8.0859,-8.1546,-8.2397,-8.2566,-8.2404,-8.2181,-8.2181,-8.131,-8.0439,-8.102,-8.1075,-8.1225,-8.2154,-8.2326,-8.1981,-8.178,-8.1272,-8.0878,-8.1309,-8.0859,-8.0953,-8.3163,-8.3802,-8.4142,-8.3955,-8.4203,-8.4466,-8.437,-8.3389,-8.2611,-8.2441,-8.1765,-8.1224,-8.1021,-8.0513,-8.0209,-8.0209,-8.041,-8.061,-8.1005,-8.1029,-8.1084,-8.15,-8.0741,-8.0327,-8.0327,-7.9776,-7.9431,-7.9224,-7.9224,-7.912,-7.8948,-7.912,-7.912,-3.7529,-3.9199,-4.0294,-4.0065,-4.0739,-4.1226,-4.1531,-4.2445,-4.3174,-4.328,-4.1074,-3.9324,-3.9755,-4.1211,-4.3614,-4.748,-5.2348,-5.6856,-5.9836,-6.0062,-5.9861,-5.9305,-5.9264,-5.9098,-5.8581,-5.8808,-5.9429,-6.0506,-6.0589,-6.1023,-6.2038,-6.2058,-6.2058,-6.21,-6.2058,-6.2449,-6.3462,-6.5861,-6.7729,-6.8961,-7.1196,-7.2712,-7.3694,-7.4686,-7.5016,-7.5165,0.0,-7.6502,-7.6688,-7.7244,-7.7797,-7.811,-7.8335,-7.874,-7.9044,-7.9251,-7.9817,-8.0686,-8.1717,-8.2566,-8.3209,-8.295,-8.2503,-8.2152,-8.1833,-8.1078,-8.0381,-8.0859,-8.1185,-8.1292,-8.2141,-8.2427,-8.2286,-8.1931,-8.1272,-8.1025,-8.1704,-8.1387,-8.1632,-8.3793,-8.4903,-8.5147,-8.4631,-8.4521,-8.464,-8.464,-8.3625,-8.2881,-8.2881,-8.1663,-8.0818,-8.0818,-8.0445,-8.0209,-8.0209,-8.041,-8.0709,-8.1005,-8.1297,-8.149,-8.181,-8.1362,-8.1155,-8.1155,-8.0741,-8.0362,-7.9982,-7.9982,-7.9844,-7.9534,-7.9844,-7.981,-3.9746,-4.0588,-4.1194,-4.1317,-4.1535,-4.1945,-4.2629,-4.2723,-4.2255,-4.1114,-3.9051,-3.7148,-3.6601,-3.7669,-4.0418,-4.5916,-4.9994,-5.4291,-5.9128,-5.9352,-5.9297,-6.0071,-5.9678,-5.9388,-5.9388,-5.9078,-5.9574,-6.123,-6.1355,-6.1375,-6.1437,-6.1706,-6.1706,-6.1355,-6.1943,-6.3163,-6.5013,-6.8606,-7.0296,-7.0224,-7.2459,-7.3217,-7.2929,-7.4379,-7.4703,-7.4403,-7.5354,0.0,-7.5905,-7.6452,-7.6842,-7.7385,-7.7718,-7.8254,-7.8788,-7.9641,-8.0513,-8.1575,-8.2397,-8.3237,-8.3981,-8.34,-8.2733,-8.2065,-8.1397,-8.0788,-8.0452,-8.0766,-8.1234,-8.1669,-8.1976,-8.2375,-8.2499,-8.1931,-8.1361,-8.1196,-8.1954,-8.1845,-8.2276,-8.4381,-8.5401,-8.5762,-8.5312,-8.4899,-8.464,-8.464,-8.3964,-8.349,-8.349,-8.1629,-8.0344,-8.0344,-8.0242,-8.0209,-8.0309,-8.051,-8.0808,-8.1005,-8.1297,-8.1585,-8.181,-8.181,-8.181,-8.181,-8.181,-8.1466,-8.0776,-8.0776,-8.0431,-7.9844,-8.0465,-8.0431,-4.0762,-4.1858,-4.2242,-4.1943,-4.3432,-4.4232,-4.0777,-4.1547,-4.1852,-3.7276,-3.5218,-3.4492,-3.5449,-3.7253,-4.0833,-4.7118,-5.127,-5.518,-5.9861,-5.9738,-5.949,-6.0464,-6.0154,-5.9864,-5.9864,-6.0133,-6.0609,-6.1292,-6.1355,-6.152,-6.1893,-6.1272,-6.1044,-6.1334,-6.3249,-6.4303,-6.47,-6.842,-7.0128,-6.9695,-7.1889,-7.303,-7.3331,-7.3971,-7.4531,-7.4825,-7.5538,0.0,-7.6452,-7.6842,-7.7385,-7.7897,-7.8254,-7.861,-7.8788,-7.9641,-8.0513,-8.1575,-8.2397,-8.3237,-8.3981,-8.34,-8.2733,-8.2065,-8.1397,-8.1075,-8.0766,-8.0922,-8.136,-8.1976,-8.213,-8.2047,-8.1931,-8.1811,-8.1819,-8.2095,-8.3318,-8.4634,-8.5723,-8.613,-8.5838,-8.5456,-8.5321,-8.4899,-8.464,-8.464,-8.3964,-8.349,-8.349,-8.2103,-8.1088,-8.1088,-8.0547,-8.0309,-8.051,-8.0808,-8.1005,-8.1297,-8.1585,-8.181,-8.181,-8.181,-8.181,-8.181,-8.181,-8.1741,-8.1603,-8.1603,-8.1535,-8.1397,-8.1535,-8.1594,-4.1791,-4.3372,-4.4581,-4.346,-4.5022,-4.55,-3.9747,-3.9166,-3.8401,-3.3021,-3.1424,-3.1269,-3.2135,-3.4952,-3.8586,-4.3258,-4.6967,-5.1156,-5.6407,-5.6552,-5.7152,-5.9988,-6.0133,-5.9988,-5.9988,-6.0402,-6.0878,-6.1313,-6.1355,-6.1437,-6.1665,-6.0816,-6.0928,-6.2591,-6.4841,-6.6441,-6.7457,-7.0464,-7.1708,-7.1143,-7.2526,-7.3331,-7.3519,-7.4268,-7.4825,-7.501,-7.5538,0.0,-7.6452,-7.7023,-7.7565,-7.7897,-7.8432,-7.861,-7.8788,-8.0166,-8.1059,-8.1575,-8.2902,-8.3737,-8.3981,-8.34,-8.2733,-8.2065,-8.1397,-8.1075,-8.0922,-8.1204,-8.1669,-8.213,-8.2465,-8.2109,-8.1691,-8.1362,-8.1868,-8.2723,-8.3524,-8.5603,-8.7179,-8.7042,-8.6713,-8.6196,-8.5675,-8.5344,-8.508,-8.4674,-8.4302,-8.4065,-8.4065,-8.3118,-8.2306,-8.19,-8.119,-8.0851,-8.1154,-8.1012,-8.1102,-8.1393,-8.162,-8.181,-8.181,-8.181,-8.181,-8.181,-8.181,-8.181,-8.181,-8.181,-8.181,-8.181,-8.181,-8.1871,-4.2476,-4.5248,-4.7375,-4.5578,-4.6909,-4.6914,-3.9891,-3.7735,-3.5594,-2.9968,-2.8514,-2.8529,-2.9371,-3.2387,-3.582,-3.9085,-4.2261,-4.6412,-5.2826,-5.3489,-5.4979,-5.945,-5.9988,-5.9988,-5.9988,-6.0485,-6.0961,-6.1313,-6.1355,-6.1292,-6.121,-6.0844,-6.1596,-6.3685,-6.6507,-6.8715,-7.0123,-7.2366,-7.3293,-7.274,-7.3306,-7.3519,-7.3707,-7.464,-7.501,-7.5195,-7.5721,-7.6088,0.0,-7.7204,-7.7565,-7.8076,-7.8432,-7.8788,-7.9114,-8.0686,-8.1575,-8.1888,-8.3571,-8.4097,-8.401,-8.3546,-8.2936,-8.2297,-8.1761,-8.1437,-8.1283,-8.1721,-8.2095,-8.2282,-8.2769,-8.217,-8.1511,-8.1372,-8.2217,-8.325,-8.4187,-8.6127,-8.7795,-8.7766,-8.7644,-8.7284,-8.6467,-8.5993,-8.5587,-8.4979,-8.4742,-8.464,-8.464,-8.4099,-8.3524,-8.2949,-8.2172,-8.1733,-8.2037,-8.1691,-8.1679,-8.1971,-8.2163,-8.2293,-8.2293,-8.2293,-8.2293,-8.2293,-8.2293,-8.2293,-8.2293,-8.2121,-8.2121,-8.2293,-8.2121,-8.2311,-4.2778,-4.7125,-5.0865,-4.827,-4.95,-4.9349,-4.2586,-3.9356,-3.6152,-2.9951,-2.7796,-2.754,-2.9299,-3.063,-3.3276,-3.8661,0.0,-4.455,-5.2226,-5.3551,-5.5331,-5.9492,-5.9988,-5.9988,-5.9988,-6.0775,-6.1292,-6.1334,-6.1355,-6.1168,-6.0754,-6.2075,-6.3206,-6.387,-6.7917,-7.0147,-7.0123,-7.2366,-7.3293,-7.274,-7.3306,-7.3682,-7.4217,-7.4825,-7.5195,-7.5721,-7.627,-7.6634,0.0,-7.7565,-7.8076,-7.861,-7.861,-7.9114,-7.9991,-8.1059,-8.1888,-8.2734,-8.3766,-8.4097,-8.4068,-8.4039,-8.3604,-8.2965,-8.2781,-8.2456,-8.2399,-8.2866,-8.2912,-8.2769,-8.2769,-8.1841,-8.1226,-8.2453,-8.295,-8.3769,-8.6678,-8.7695,-8.8161,-8.8405,-8.8205,-8.7955,-8.782,-8.667,-8.5757,-8.5689,-8.508,-8.464,-8.464,-8.4573,-8.4505,-8.4437,-8.3327,-8.2785,-8.2988,-8.3255,-8.3517,-8.3713,-8.3811,-8.3811,-8.3811,-8.3811,-8.3811,-8.3811,-8.3811,-8.3811,-8.3811,-8.3121,-8.3156,-8.3811,-8.3121,-8.3443,-4.5907,-5.0524,-5.4267,-5.1638,-5.2262,-5.1176,-4.2474,-3.8831,-3.5599,-2.9174,-2.7302,-2.7239,-2.8573,-2.9204,-3.0799,0.0,0.0,0.0,-4.5623,-4.7237,-4.9928,-5.5993,-5.7422,-5.8477,-5.9864,-6.0568,-6.1168,-6.1727,-6.2719,-6.3078,-6.2908,-6.3196,-6.3871,-6.5447,-6.8268,-7.0471,-7.1654,-7.2661,-7.3156,-7.3118,-7.3682,-7.4242,-7.4614,-7.5169,-7.5538,-7.5721,-7.627,-7.6842,0.0,-7.7718,-7.8254,-7.861,-7.929,-7.9641,-8.0166,-8.1717,-8.2397,-8.2902,-8.3737,-8.4097,-8.4097,-8.4097,-8.4088,-8.4124,-8.3614,-8.2996,-8.2643,-8.2955,-8.2972,-8.2769,-8.2769,-8.1781,-8.099,-8.1615,-8.2325,-8.364,-8.6249,-8.7544,-8.831,-8.8847,-8.8723,-8.8497,-8.8091,-8.7516,-8.6974,-8.6535,-8.5824,-8.5317,-8.5317,-8.4911,-8.464,-8.4853,-8.4008,-8.3568,-8.3874,-8.3666,-8.3689,-8.4018,-8.4018,-8.4018,-8.4018,-8.4018,-8.4018,-8.4018,-8.4018,-8.4018,-8.4018,-8.3707,-8.3707,-8.4018,-8.3901,-8.4127,-4.8388,-5.3187,-5.7055,-5.4404,-5.3563,-5.123,-4.2926,-3.8291,-3.429,-2.882,-2.7218,-2.7084,-2.7795,-2.8219,-2.9187,0.0,0.0,-3.4755,-4.08,-4.2911,-4.6037,-5.1837,-5.3962,-5.5798,-5.7964,-5.9885,-6.1402,-6.2797,-6.3843,-6.4778,-6.5402,-6.5311,-6.5779,-6.7348,-6.9356,-7.1143,-7.274,-7.274,-7.2929,-7.3519,-7.4056,-7.4428,-7.501,-7.5538,-7.5721,-7.5905,-7.6452,-7.6997,0.0,-7.7897,-7.8254,-7.861,-7.9641,-8.0166,-8.0513,-8.2058,-8.2902,-8.3237,-8.3932,-8.4097,-8.4097,-8.4097,-8.4427,-8.4667,-8.4156,-8.3478,-8.3095,-8.3407,-8.3244,-8.2679,-8.229,-8.1779,-8.1395,-8.1509,-8.2723,-8.4315,-8.6249,-8.7511,-8.8506,-8.8959,-8.9072,-8.8937,-8.8395,-8.8125,-8.782,-8.7313,-8.6399,-8.579,-8.579,-8.5221,-8.4853,-8.5063,-8.4692,-8.4558,-8.4762,-8.4586,-8.4476,-8.4708,-8.4673,-8.4673,-8.4673,-8.4673,-8.4673,-8.4673,-8.4673,-8.4673,-8.4673,-8.4466,-8.4466,-8.4673,-8.4758,-8.4943,-4.9262,-5.4585,-5.8844,-5.5923,-5.2742,-4.8984,-4.4513,-3.8201,-3.2336,-2.8877,-2.7533,-2.6996,-2.7282,-2.7634,-2.838,-2.9787,0.0,0.0,-3.9661,-4.258,-4.5174,-4.7622,-4.9739,-5.2005,-5.3849,-5.8479,-6.2356,-6.5079,-6.4875,0.0,-6.7667,-6.8923,-6.955,-6.955,-7.155,-7.274,-7.274,-7.274,-7.2929,-7.3519,-7.4056,-7.4428,-7.501,-7.5538,-7.5905,-7.6452,-7.7023,-7.7385,0.0,-7.8432,-7.861,-7.861,-7.9641,-8.0513,-8.1575,-8.2397,-8.3237,-8.4097,-8.4097,-8.4097,-8.4097,-8.4097,-8.4427,-8.483,-8.4479,-8.4279,-8.4246,-8.4558,-8.3756,-8.2469,-8.1153,-8.1904,-8.2868,-8.2937,-8.4315,-8.6005,-8.7812,-8.8391,-8.8733,-8.9072,-8.9072,-8.9072,-8.9072,-8.8463,-8.7989,-8.7989,-8.6738,-8.579,-8.579,-8.5327,-8.5097,-8.5063,-8.5583,-8.5856,-8.5856,-8.6093,-8.6294,-8.6294,-8.6294,-8.6294,-8.6294,-8.6294,-8.6294,-8.6294,-8.6294,-8.6294,-8.6294,-8.5535,-8.557,-8.626,-8.5797,-8.5837,-4.5433,-4.9144,-5.2296,-5.0528,-4.8323,-4.5399,-4.1065,-3.6734,-3.2771,-2.896,-2.7611,-2.727,-2.7655,-2.7572,-2.8835,-3.3016,-3.4176,0.0,-4.0096,-4.2766,-4.5084,-4.7052,-5.2043,-5.6025,0.0,0.0,-6.2106,-6.4788,-6.58,-6.7278,-6.9892,-7.1127,-7.1143,-6.955,-7.155,-7.274,-7.274,-7.3118,-7.3494,-7.4056,-7.4428,-7.4985,-7.5538,-7.5721,-7.6088,-7.6452,-7.7023,-7.7565,0.0,-7.8432,-7.8965,-7.9641,-8.0513,-8.1546,-8.2397,-8.3237,-8.3903,-8.4097,-8.4097,-8.4097,-8.4097,-8.4427,-8.4918,-8.5126,-8.496,-8.4467,-8.4068,-8.3483,-8.3068,-8.274,-8.2352,-8.2561,-8.3286,-8.4508,-8.5231,-8.6127,-8.8012,-8.8506,-8.8733,-8.9072,-8.9072,-8.9072,-8.9072,-8.8903,-8.8734,-8.8734,-8.7922,-8.7279,-8.7279,-8.6413,-8.5951,-8.6161,-8.5994,-8.589,-8.589,-8.6093,-8.6294,-8.6294,-8.6294,-8.6294,-8.6294,-8.6294,-8.6294,-8.6294,-8.6294,-8.6294,-8.6294,-8.6087,-8.6286,-8.6789,-8.6644,-8.6926,-4.3023,-4.6209,-4.8125,-4.7483,-4.5103,-4.2092,-3.9161,-3.5449,-3.1767,-2.8962,-2.7806,-2.7345,-2.7614,-2.7593,-2.869,-3.2271,-3.3782,-3.5459,-3.8191,-4.1276,-4.4401,-4.7278,-5.1982,0.0,0.0,-6.0009,-6.2001,-6.5321,-6.6463,-6.8457,-7.1858,-7.2428,-7.2047,-7.0465,-7.1832,-7.274,-7.274,-7.3306,-7.3682,-7.4217,-7.48,-7.5195,-7.5721,-7.5905,-7.627,-7.6842,-7.7204,-7.7718,0.0,-7.8516,-7.9247,-8.0138,-8.0869,-8.1802,-8.2706,-8.3506,-8.3894,-8.4068,-8.3836,-8.3749,-8.372,-8.3949,-8.4361,-8.4545,-8.4633,-8.4217,-8.3806,-8.3068,-8.3191,-8.3573,-8.3041,-8.3767,-8.4757,-8.543,-8.6127,-8.6885,-8.8358,-8.8733,-8.8847,-8.9072,-8.9072,-8.9072,-8.9072,-8.9072,-8.9072,-8.9072,-8.8463,-8.7989,-8.81,-8.7375,-8.6912,-8.7123,-8.6749,-8.6506,-8.6506,-8.6366,-8.6294,-8.6294,-8.6294,-8.6294,-8.6294,-8.6294,-8.6294,-8.6294,-8.6294,-8.6294,-8.6294,-8.6394,-8.6691,-8.7117,-8.7213,-8.7501,0.0,-4.4394,-4.5582,-4.5654,-4.2467,-3.9122,-3.8344,-3.4065,0.0,-2.8796,-2.7903,-2.7282,-2.7345,-2.7655,-2.8173,-2.8938,-3.2002,-3.4486,-3.4983,-3.9019,-4.3648,-4.8249,-5.0572,0.0,-5.6491,-5.916,-6.2668,-6.6911,-6.7268,0.0,-7.3327,-7.2991,-7.2414,-7.1861,-7.2339,-7.2615,-7.2615,-7.323,-7.3792,-7.4088,-7.4748,-7.5302,-7.5643,-7.6217,-7.6789,0.0,-7.7744,0.0,0.0,-7.8981,-7.9439,-8.0173,-8.0698,-8.1649,-8.2845,-8.3072,-8.3575,-8.401,-8.34,-8.3197,-8.3244,-8.3029,-8.3018,-8.3264,-8.3573,-8.3696,-8.3547,-8.307,-8.3847,-8.4619,-8.3437,-8.5208,-8.695,-8.5962,-8.7038,-8.831,-8.862,-8.8847,-8.9072,-8.9072,-8.9072,-8.9072,-8.9072,-8.9072,-8.9072,-8.9072,-8.8497,-8.8168,-8.8463,-8.8033,-8.7909,-8.8225,-8.7745,-8.7501,-8.7501,-8.6777,-8.6294,-8.6294,-8.6294,-8.6294,-8.6294,-8.6294,-8.6294,-8.6294,-8.6294,-8.6294,-8.6294,-8.6593,-8.6789,-8.7117,-8.7405,-8.769,-3.3277,0.0,-3.6996,-3.6127,-3.5411,-3.4608,0.0,-3.1564,-2.9766,-2.8835,-2.7903,-2.7469,-2.8173,-2.809,-2.9104,-3.2727,-3.5211,-3.697,-3.7777,-4.2124,-4.7299,-5.278,-5.4862,-5.6445,-5.8271,-6.1007,-6.3909,-6.6888,-6.8362,-7.0132,-7.2726,-7.2414,-7.1836,-7.1284,-7.141,-7.1645,-7.2016,-7.3002,-7.3371,-7.3483,-7.4521,-7.4912,-7.5094,-7.5638,-7.6418,-7.7204,-7.7744,0.0,-7.7959,-7.9284,-7.9923,-8.0446,-8.1177,-8.2382,-8.3679,-8.34,-8.3575,-8.401,-8.34,-8.336,-8.3731,-8.3825,-8.3644,-8.3573,-8.3726,-8.3397,-8.3251,-8.4203,-8.4329,-8.4431,-8.5864,-8.6308,-8.6618,-8.7389,-8.7929,-8.831,-8.8847,-8.9072,-8.9072,-8.9072,-8.9072,-8.9072,-8.9072,-8.9072,-8.9072,-8.9072,-8.8937,-8.8947,-8.9279,-8.8817,-8.8696,-8.9049,-8.8571,-8.8329,-8.8329,-8.7087,-8.6294,-8.6294,-8.6294,-8.6294,-8.6294,-8.6294,-8.6294,-8.6294,-8.6294,-8.6294,-8.6294,-8.6593,-8.6789,-8.7117,-8.7405,-8.769,-3.0187,-3.1999,-3.3823,-3.3476,-3.3497,-3.3289,-3.2281,-3.0859,-2.9415,-2.8483,-2.7738,-2.7469,-2.8173,-2.8442,-2.9435,-3.2147,-3.4631,-3.7591,-4.1441,-4.4728,-4.8974,-5.5088,-5.6403,-5.7939,0.0,-6.1974,-6.4147,0.0,0.0,-6.981,-7.1775,-7.1686,-7.1284,-7.0732,-7.089,-7.1383,-7.182,-7.2675,-7.3041,-7.3276,-7.4156,-7.4673,-7.4853,-7.5364,-7.5907,-7.6735,-7.7267,0.0,-7.7976,-7.8892,-8.0054,-8.1038,-8.1177,-8.2099,-8.3575,-8.2617,-8.2675,-8.3139,-8.25,-8.2576,-8.2732,-8.3162,-8.327,-8.3217,-8.2918,-8.3221,-8.4025,-8.4728,-8.5142,-8.5773,-8.7239,-8.7753,-8.7939,-8.8513,-8.8544,-8.8539,-8.8959,-8.9072,-8.9072,-8.9072,-8.9072,-8.9072,-8.9072,-8.9072,-8.9072,-8.9072,-8.9184,-8.9407,-8.9662,-8.9614,-8.9663,-8.991,-8.9432,-8.9088,-8.9088,-8.8019,-8.7191,-8.6846,-8.6501,-8.6294,-8.6294,-8.6294,-8.6294,-8.6294,-8.6294,-8.6394,-8.6494,-8.6789,-8.6985,-8.7309,-8.7596,-8.7784,-3.0037,-3.1792,-3.3434,-3.3638,-3.3513,-3.3243,-3.2427,-3.076,-2.9083,-2.8297,-2.7779,-2.7676,-2.8338,-2.9145,-3.0036,-3.0988,-3.3948,-3.8626,-4.5809,-4.7643,-5.0551,-5.6148,-5.6917,0.0,-6.2523,0.0,0.0,0.0,0.0,-6.9096,-7.0958,-7.0958,-7.0706,-7.0154,-7.0674,-7.1084,-7.1749,-7.2215,-7.276,-7.3197,-7.366,-7.4249,-7.4605,-7.511,-7.5691,-7.6095,0.0,0.0,-7.7975,-7.8569,-7.9795,-8.1363,-8.073,-8.1514,-8.2907,-8.1659,-8.1601,-8.2094,-8.1586,-8.1419,-8.1669,-8.2011,-8.2286,-8.2499,-8.1841,-8.3148,-8.468,-8.4968,-8.6041,-8.7367,-8.8182,-8.8926,-8.9546,-8.9182,-8.8861,-8.8733,-8.9072,-8.9072,-8.9072,-8.9072,-8.9072,-8.9072,-8.9072,-8.9072,-8.9072,-8.9072,-8.9295,-8.9662,-8.999,-9.0207,-9.0494,-9.0812,-9.026,-8.9881,-8.9881,-8.9191,-8.8467,-8.7812,-8.6949,-8.6432,-8.6294,-8.6294,-8.6294,-8.6294,-8.6294,-8.6394,-8.6691,-8.6985,-8.7213,-8.7501,-8.7784,-8.7878,-3.1421,-3.2967,-3.3597,-3.1431,-3.1789,-3.2385,-3.0801,-2.9829,-2.927,-2.9125,-2.8731,-2.8897,-3.0553,-3.1278,-3.2664,-3.5832,-3.9661,-4.4546,0.0,0.0,-5.3859,-5.7741,0.0,-5.9674,0.0,0.0,0.0,0.0,0.0,-7.0488,-7.0405,-7.038,-7.0129,-6.9602,-7.0092,-7.0502,-7.0937,-7.1961,-7.2497,-7.2383,-7.3382,-7.3795,-7.3972,-7.4875,-7.5665,-7.6095,0.0,-7.7038,-7.7422,-7.8849,-7.9682,-8.0326,-8.0846,-8.1572,-8.2239,-8.1484,-8.1601,-8.2255,-8.2251,-8.223,-8.204,-8.196,-8.1931,-8.1811,-8.1153,-8.1971,-8.3547,-8.4739,-8.6093,-8.7405,-8.8169,-8.8204,-8.8028,-8.8279,-8.8492,-8.8733,-8.9072,-8.9072,-8.9072,-8.9072,-8.9072,-8.9072,-8.9072,-8.9072,-8.9072,-8.9072,-8.9295,-8.9662,-8.999,-9.0207,-9.0494,-9.0812,-9.0709,-9.064,-9.064,-8.995,-8.9467,-8.9364,-8.8019,-8.6949,-8.6329,-8.6294,-8.6294,-8.6294,-8.6294,-8.6394,-8.6691,-8.6985,-8.7213,-8.7501,-8.7784,-8.7878,-3.0792,-3.2189,-3.3299,-3.2786,-3.3788,-3.4383,-3.2292,-3.1485,-3.0946,-3.0201,-2.9891,-3.0077,-3.1174,-3.3141,-3.6225,-4.1131,-4.4112,-4.7527,-5.2495,-5.3632,-5.515,0.0,0.0,0.0,0.0,0.0,0.0,0.0,0.0,0.0,-6.9853,-6.9828,-6.9883,-6.9812,-7.0324,-7.0859,-7.1214,-7.203,-7.2383,-7.2297,-7.3085,-7.3539,-7.3713,-7.446,-7.5111,-7.5499,0.0,-7.653,-7.7454,-7.8231,-7.936,-8.0685,-8.0687,-8.1107,-8.1572,-8.125,-8.1221,-8.1554,-8.1691,-8.171,-8.1506,-8.1303,-8.1242,-8.1271,-8.1425,-8.2679,-8.4268,-8.4982,-8.6115,-8.7561,-8.8824,-8.8861,-8.868,-8.888,-8.8923,-8.8959,-8.9072,-8.9072,-8.9072,-8.9072,-8.9072,-8.9072,-8.9072,-8.9072,-8.9072,-8.9072,-8.9517,-8.9771,-8.999,-9.0422,-9.0707,-9.0812,-9.0812,-9.0812,-9.0812,-9.0502,-8.9778,-8.8536,-8.7812,-8.7087,-8.6329,-8.6294,-8.6294,-8.6294,-8.6394,-8.6691,-8.6887,-8.7213,-8.7501,-8.769,-8.7878,-8.7878,-3.0801,-3.1816,-3.3078,-3.4548,-3.5625,-3.6121,-3.5314,-3.4465,-3.3699,-3.3182,-3.2727,-3.2561,-3.2913,-3.6121,0.0,-4.5333,-4.792,-5.0425,-5.3675,-5.5103,-5.7113,-5.9963,-6.1845,0.0,0.0,0.0,0.0,0.0,0.0,0.0,-6.9476,-6.9325,-6.961,-6.9968,-7.0375,-7.0828,-7.118,-7.1731,-7.2036,-7.2297,-7.2795,-7.3316,-7.3688,-7.4203,-7.4716,-7.5028,-7.5198,-7.6179,-7.7694,-7.7829,-7.9249,-8.0933,-8.0468,-8.0585,-8.0933,-8.0912,-8.0922,-8.1116,-8.1083,-8.133,-8.1181,-8.0675,-8.0584,-8.0728,-8.1379,-8.3002,-8.4644,-8.5018,-8.6167,-8.7674,-8.9,-8.9231,-8.9148,-8.9346,-8.9252,-8.9072,-8.9072,-8.9072,-8.9072,-8.9072,-8.9072,-8.9072,-8.9072,-8.9072,-8.9072,-8.9184,-8.9662,-8.999,-9.0099,-9.0494,-9.0812,-9.0812,-9.0812,-9.0812,-9.0812,-9.0812,-8.9985,-8.8088,-8.7605,-8.7156,-8.657,-8.6398,-8.6294,-8.6294,-8.6593,-8.6789,-8.7117,-8.7405,-8.769,-8.7878,-8.7878,-8.7878,-3.3203,-3.3265,-3.3161,-3.4921,-3.5148,-3.5873,-3.9516,-3.8688,-3.7715,-3.9723,-3.8812,-3.7653,-3.7695,-4.1379,-4.5084,-4.7196,-5.1191,-5.4731,-5.6656,0.0,-6.1203,-6.2771,-6.4348,0.0,0.0,0.0,0.0,0.0,0.0,0.0,-6.9476,-6.9307,-6.9384,-6.9384,-6.9778,-7.0015,-7.0015,-7.0531,-7.1252,-7.2297,-7.3169,-7.3688,-7.3688,-7.4518,-7.5028,-7.5028,-7.5871,-7.6871,-7.7666,-7.8641,-7.9501,-8.0352,-8.0323,-8.0323,-8.0352,-8.0766,-8.1078,-8.1426,-8.1235,-8.1481,-8.1572,-8.0285,-7.9896,-8.0037,-8.0785,-8.1912,-8.3376,-8.4728,-8.6348,-8.7744,-8.7862,-8.8096,-8.8377,-8.8573,-8.888,-8.9072,-8.9072,-8.9072,-8.9072,-8.9072,-8.9072,-8.9072,-8.9072,-8.9072,-8.9184,-8.9407,-8.9771,-9.0099,-9.0315,-9.0601,-9.0812,-9.0812,-9.0812,-9.0812,-9.0812,-9.0812,-9.0433,-8.9605,-8.8191,-8.7398,-8.7329,-8.6674,-8.6294,-8.6294,-8.6593,-8.6789,-8.7117,-8.7405,-8.769,-8.7878,-8.7878,-8.7878,-3.1816,-3.2333,-3.343,-3.6411,-3.7446,-3.8357,-4.0758,-4.1524,-4.2145,-4.3573,-4.3097,-4.2414,-4.2414,-4.4298,-4.6803,-4.9763,-5.3137,-5.591,-5.7442,-5.9791,-6.1773,0.0,0.0,0.0,0.0,0.0,0.0,0.0,0.0,0.0,-6.8974,-6.9105,-6.9332,-6.9177,-6.9669,-7.0058,-7.0256,-7.0743,-7.115,-7.157,-7.26,-7.3486,-7.4203,-7.4689,-7.5028,-7.5028,-7.6039,-7.6871,-7.7858,-7.8641,-7.9472,-8.0294,-8.0294,-8.0452,-8.0766,-8.1049,-8.1278,-8.1294,-8.1093,-8.0765,-8.0405,-7.9477,-7.9178,-7.9521,-8.1641,-8.2591,-8.351,-8.5792,-8.7104,-8.7728,-8.7962,-8.8194,-8.8506,-8.8847,-8.8959,-8.9072,-8.9072,-8.9072,-8.9072,-8.9072,-8.9072,-8.9072,-8.9072,-8.9072,-8.9184,-8.9407,-8.9771,-9.0099,-9.0422,-9.0601,-9.0812,-9.0812,-9.0812,-9.0812,-9.0812,-9.0812,-9.0674,-9.0398,-8.9398,-8.8398,-8.7467,-8.7122,-8.6777,-8.6329,-8.6691,-8.702,-8.7117,-8.7501,-8.7784,-8.7878,-8.7878,-8.7878,-3.1112,-3.1588,-3.3037,-3.6121,-3.8336,-4.0406,-4.2932,-4.4588,-4.6099,-4.79,-4.7092,-4.5975,-4.5685,-4.6492,-4.8169,0.0,-5.3985,-5.6542,-5.8694,0.0,0.0,0.0,0.0,0.0,0.0,0.0,0.0,0.0,0.0,0.0,0.0,-6.8726,-6.8973,-6.8937,-6.9274,-6.9709,-7.0049,-7.0531,-7.0778,-7.1158,-7.2036,-7.2988,-7.4105,-7.4588,-7.5035,-7.5535,-7.6373,-7.7366,-7.8155,-7.8963,-7.9791,-8.0294,-8.0294,-8.0609,-8.0922,-8.136,-8.1408,-8.1241,-8.0884,-8.0375,-7.9716,-7.9028,-7.9046,-7.9839,-8.2356,-8.325,-8.4187,-8.6711,-8.7611,-8.7962,-8.8194,-8.8506,-8.87,-8.8959,-8.9072,-8.9072,-8.9072,-8.9072,-8.9072,-8.9072,-8.9072,-8.9072,-8.9072,-8.9184,-8.9295,-8.9628,-8.9881,-9.0207,-9.0494,-9.0707,-9.0812,-9.0812,-9.0812,-9.0812,-9.0812,-9.0812,-9.0812,-9.0812,-9.0329,-8.9364,-8.7846,-8.7536,-8.7053,-8.6329,-8.6824,-8.7117,-8.7117,-8.769,-8.7878,-8.7878,-8.7878,-8.7878,-3.1733,-3.1381,-3.1836,-3.3658,-3.7239,-4.1607,-4.6596,-4.8086,-4.9452,-5.3116,-5.0963,-4.8148,-4.7258,-4.8189,-4.9535,-5.0901,-5.3799,-5.7109,0.0,0.0,0.0,0.0,0.0,0.0,0.0,0.0,0.0,0.0,0.0,0.0,0.0,-6.8112,-6.8322,-6.8322,-6.8631,-6.8847,-6.8847,-6.932,-7.0107,-7.1077,-7.1521,-7.2304,-7.346,-7.3992,-7.4989,-7.6373,-7.7338,-7.8155,-7.9124,-7.9949,-8.0294,-8.0294,-8.0294,-8.0609,-8.0922,-8.136,-8.1408,-8.1211,-8.0884,-8.0375,-7.9686,-7.8998,-7.9698,-8.1169,-8.2591,-8.4059,-8.548,-8.719,-8.7962,-8.831,-8.8506,-8.862,-8.8733,-8.8959,-8.9072,-8.9072,-8.9072,-8.9072,-8.9072,-8.9072,-8.9072,-8.9072,-8.9072,-8.9295,-8.9628,-8.999,-9.0207,-9.0494,-9.0812,-9.0812,-9.0812,-9.0812,-9.0812,-9.0812,-9.0812,-9.0812,-9.0812,-9.0812,-9.0812,-9.0157,-8.8674,-8.7846,-8.7087,-8.6329,-8.6824,-8.7117,-8.7117,-8.769,-8.7878,-8.7878,-8.7878,-8.7878,-3.0864,-3.2043,-3.4424,-3.7218,-4.1503,-4.6244,-5.0943,-5.1874,-5.2599,-5.56,-5.3592,-5.1087,-5.0508,-5.0715,-5.1232,-5.1957,-5.5765,-5.9074,0.0,0.0,0.0,0.0,0.0,0.0,0.0,0.0,0.0,0.0,0.0,0.0,0.0,-6.8055,-6.8314,-6.8293,-6.8617,-6.9014,-6.932,-6.9816,-7.0251,-7.0904,-7.1393,-7.2205,-7.337,-7.3563,-7.4142,-7.5102,-7.6051,-7.6855,-7.7678,-7.9082,-7.9859,-8.0294,-8.0294,-8.0766,-8.1389,-8.1514,-8.1294,-8.0914,-8.0853,-8.0045,-7.9058,-7.8849,-7.9698,-8.1169,-8.2591,-8.4059,-8.548,-8.719,-8.7962,-8.831,-8.8506,-8.8733,-8.8959,-8.9072,-8.9072,-8.9072,-8.9072,-8.9072,-8.9072,-8.9072,-8.9072,-8.9072,-8.9072,-8.9295,-8.9628,-8.999,-9.0207,-9.0494,-9.0812,-9.0812,-9.0812,-9.0812,-9.0812,-9.0812,-9.0812,-9.0812,-9.0812,-9.0812,-9.0812,-9.0364,-8.9398,-8.8639,-8.7982,-8.7389,-8.7165,-8.7213,-8.7405,-8.7784,-8.7878,-8.7878,-8.7878,-8.7878,-3.2395,-3.4362,-3.7384,-4.0406,-4.4381,-4.8852,-5.3799,-5.4855,-5.5248,-5.6883,-5.5269,-5.3468,-5.3199,-5.3013,-5.3033,-5.3489,-5.6909,-6.0062,-6.1096,0.0,0.0,0.0,0.0,0.0,0.0,0.0,0.0,0.0,0.0,0.0,0.0,-6.7818,-6.8005,-6.8229,-6.8513,-6.8988,-6.9485,-6.998,-7.0472,-7.0798,-7.1312,-7.2016,-7.3049,-7.3295,-7.4004,-7.5008,-7.6289,-7.7106,-7.7633,-7.863,-7.9191,-7.954,-7.9696,-8.0161,-8.0748,-8.0901,-8.0704,-8.0405,-8.0405,-7.9716,-7.8933,-7.9445,-8.0648,-8.1954,-8.338,-8.498,-8.6403,-8.7578,-8.8078,-8.8391,-8.8733,-8.8959,-8.9072,-8.9072,-8.9072,-8.9072,-8.9072,-8.9072,-8.9072,-8.9072,-8.9072,-8.9072,-8.9184,-8.9517,-8.9771,-9.0099,-9.0422,-9.0601,-9.0812,-9.0812,-9.0812,-9.0812,-9.0812,-9.0812,-9.0812,-9.0812,-9.0812,-9.0812,-9.0812,-9.0605,-9.0157,-8.926,-8.8429,-8.78,-8.7465,-8.7309,-8.7501,-8.7784,-8.7878,-8.7878,-8.7878,-8.7878,-3.519,-3.7488,-4.0468,-4.3325,-4.6658,-5.0549,-5.5559,-5.7028,-5.7339,-5.7297,-5.6221,-5.531,-5.531,-5.4979,-5.4855,-5.542,-5.8106,-6.0571,-6.259,0.0,0.0,0.0,0.0,0.0,0.0,0.0,0.0,0.0,0.0,0.0,0.0,-6.7256,-6.7763,-6.8125,-6.855,-6.883,-6.9327,-6.9821,-7.0338,-7.0637,-7.115,-7.182,-7.2644,-7.3252,-7.4286,-7.5802,-7.7558,-7.8262,-7.832,-7.832,-7.8349,-7.8561,-7.878,-7.9237,-7.9749,-7.999,-8.005,-7.9806,-7.9806,-7.9502,-7.919,-8.0509,-8.1954,-8.3412,-8.4696,-8.6282,-8.7728,-8.8194,-8.8391,-8.8733,-8.8959,-8.9072,-8.9072,-8.9072,-8.9072,-8.9072,-8.9072,-8.9072,-8.9072,-8.9072,-8.9072,-8.9184,-8.9407,-8.9771,-9.0099,-9.0422,-9.0601,-9.0812,-9.0812,-9.0812,-9.0812,-9.0812,-9.0812,-9.0812,-9.0812,-9.0812,-9.0812,-9.0812,-9.0812,-9.0812,-9.0812,-8.9673,-8.8632,-8.7904,-8.7596,-8.7501,-8.7501,-8.7784,-8.7878,-8.7878,-8.7878,-8.7878,-3.4341,-3.7943,0.0,-4.6389,-5.1646,-5.618,-5.7359,-5.798,-5.8208,-5.7836,-5.6966,-5.6262,-5.6262,-5.62,-5.6725,-5.8299,-6.0874,-6.3026,-6.4734,0.0,0.0,0.0,0.0,0.0,0.0,0.0,0.0,0.0,0.0,0.0,-6.7307,-6.7402,-6.7504,-6.8028,-6.7723,-6.7788,-6.8625,-6.8786,-6.9107,0.0,-7.009,-7.0782,-7.2009,-7.2616,-7.3739,-7.5438,-7.6414,-7.7159,-7.7624,-7.7624,-7.8067,-7.8809,-7.8465,-7.9006,-7.999,-7.9635,-7.9632,-7.9806,-7.9806,-8.0018,-8.0509,-8.0756,-8.2591,-8.4696,-8.5355,-8.6557,-8.7846,-8.8391,-8.862,-8.8733,-8.8959,-8.9072,-8.9072,-8.9072,-8.9072,-8.9072,-8.9072,-8.9072,-8.9072,-8.9072,-8.9072,-8.9184,-8.9407,-8.9771,-9.0207,-9.0601,-9.0812,-9.0812,-9.0812,-9.0812,-9.0812,-9.0812,-9.0812,-9.0812,-9.0812,-9.0812,-9.0812,-9.0812,-9.0812,-9.0812,-9.0812,-8.9673,-8.901,-8.9001,-8.7972,-8.7596,-8.7784,-8.7878,-8.7878,-8.7878,-8.7878,-8.7878,-3.637,-4.0386,0.0,-5.088,0.0,-5.825,-5.825,-5.8436,-5.8353,-5.7463,-5.707,-5.6883,-5.6883,-5.6718,-5.7319,-5.9203,-6.1492,-6.3479,0.0,0.0,0.0,0.0,0.0,0.0,0.0,0.0,0.0,0.0,0.0,-6.6179,-6.6682,-6.6733,-6.7048,-6.7566,-6.7415,-6.7744,-6.8413,-6.8573,-6.905,-6.971,-6.971,-7.0474,-7.1994,-7.338,-7.4577,-7.583,-7.6312,-7.6637,-7.6956,-7.6956,-7.7462,-7.8055,-7.7854,-7.8154,-7.8743,-7.8533,-7.8704,-7.8849,-7.8849,-7.9759,-8.1032,-8.1683,-8.338,-8.5231,-8.6282,-8.719,-8.8078,-8.8506,-8.8733,-8.8847,-8.9072,-8.9072,-8.9072,-8.9072,-8.9072,-8.9072,-8.9072,-8.9072,-8.9072,-8.9072,-8.9184,-8.9407,-8.9662,-9.0099,-9.0494,-9.0812,-9.0812,-9.0812,-9.0812,-9.0812,-9.0812,-9.0812,-9.0812,-9.0812,-9.0812,-9.0812,-9.0812,-9.0812,-9.0812,-9.0917,-9.1057,-8.9775,-8.9145,-8.9344,-8.827,-8.7784,-8.7878,-8.7878,-8.7878,-8.7878,-8.7878,-8.7878,-3.8067,-4.2766,-4.8003,-5.4772,-5.7484,0.0,-5.8498,-5.8436,-5.8022,-5.6821,-5.6863,-5.709,-5.7008,-5.7072,-5.7584,0.0,0.0,0.0,0.0,0.0,0.0,0.0,0.0,0.0,0.0,0.0,0.0,0.0,0.0,-6.5582,-6.5785,-6.6176,-6.6614,-6.6939,-6.7184,-6.764,-6.812,-6.8438,-6.8913,-6.9384,-6.9806,-7.0738,-7.2264,-7.4184,-7.5542,-7.6288,-7.6404,-7.6462,-7.6462,-7.6462,-7.6762,-7.7209,-7.7387,-7.7413,-7.7372,-7.7539,-7.7652,-7.7652,-7.7652,-7.905,-8.1071,-8.2245,-8.3899,-8.5686,-8.7143,-8.7862,-8.831,-8.862,-8.8847,-8.9072,-8.9072,-8.9072,-8.9072,-8.9072,-8.9072,-8.9072,-8.9072,-8.9072,-8.9072,-8.9184,-8.9407,-8.9737,-8.999,-9.0529,-9.0812,-9.0812,-9.0812,-9.0812,-9.0812,-9.0812,-9.0812,-9.0812,-9.0812,-9.0812,-9.0812,-9.0812,-9.0812,-9.0812,-9.0812,-9.0917,-9.13,-8.9978,-8.9344,-8.9344,-8.8461,-8.7878,-8.7878,-8.7878,-8.7878,-8.7878,-8.7878,-8.7878,-3.4879,0.0,-5.0301,0.0,-5.6987,-5.8001,0.0,-5.7691,-5.7256,0.0,-5.6614,-5.6531,-5.6138,-5.7313,-5.9146,0.0,0.0,0.0,0.0,0.0,0.0,0.0,0.0,0.0,0.0,0.0,0.0,0.0,-6.6245,-6.6298,-6.6279,-6.6328,-6.639,-6.639,-6.6212,-6.6423,-6.6921,-6.7362,-6.7673,-6.8136,-7.0158,-7.1466,-7.2388,-7.3843,-7.4921,-7.5679,-7.623,-7.6462,-7.6462,-7.6462,-7.6911,-7.7417,-7.7033,-7.7203,-7.7599,-7.7173,-7.6963,-7.6963,-7.6963,-7.8702,-8.0991,-8.1249,-8.3557,-8.6497,-8.6994,-8.7773,-8.862,-8.8959,-8.9072,-8.9072,-8.9072,-8.9072,-8.9072,-8.9072,-8.9072,-8.9072,-8.9072,-8.9072,-8.9184,-8.9407,-8.9847,-9.028,-9.0315,-9.0601,-9.0812,-9.0812,-9.0812,-9.0812,-9.0812,-9.0812,-9.0812,-9.0812,-9.0812,-9.0812,-9.0812,-9.0812,-9.0812,-9.0812,-9.0812,-9.0917,-9.13,-8.9978,-8.9478,-8.971,-8.8556,-8.7878,-8.7878,-8.7878,-8.7878,-8.7878,-8.7878,-8.7878,-3.7281,-4.4236,-5.0798,0.0,-5.6511,-5.6904,-5.7422,-5.7173,-5.6656,-5.5931,-5.5786,-5.6175,-5.7357,0.0,0.0,0.0,0.0,0.0,0.0,0.0,0.0,0.0,0.0,0.0,0.0,0.0,0.0,0.0,-6.5097,-6.5282,-6.5511,-6.576,-6.5948,-6.6107,-6.6344,-6.6681,-6.6993,-6.743,-6.7892,-6.8655,-6.996,-7.1143,-7.1878,-7.3414,-7.4343,-7.4982,-7.5243,-7.5359,-7.5359,-7.5684,-7.5978,-7.6562,-7.694,-7.6813,-7.6754,-7.6814,-7.6604,-7.6445,-7.7213,-7.8986,-8.1093,-8.1886,-8.3867,-8.5997,-8.6373,-8.7216,-8.8014,-8.8351,-8.8767,-8.9072,-8.9072,-8.9072,-8.9072,-8.9072,-8.9072,-8.9072,-8.9072,-8.9072,-8.9184,-8.9662,-9.0099,-9.0388,-9.0601,-9.0707,-9.0812,-9.0812,-9.0812,-9.0812,-9.0812,-9.0812,-9.0812,-9.0812,-9.0812,-9.0812,-9.0812,-9.0812,-9.0812,-9.0812,-9.0812,-9.1022,-9.1471,-9.0079,-8.9577,-9.0002,-8.8685,-8.7878,-8.7878,-8.7878,-8.7878,-8.7878,-8.7878,-8.7878,0.0,0.0,-4.792,-5.2474,-5.4151,-5.4896,0.0,0.0,-5.589,0.0,-5.5467,-5.6401,0.0,0.0,0.0,0.0,0.0,0.0,0.0,0.0,0.0,0.0,0.0,0.0,0.0,0.0,0.0,0.0,-6.3984,-6.4183,-6.4505,-6.4795,-6.511,-6.5606,-6.6073,-6.6383,-6.6846,-6.7593,-6.8408,-6.916,-7.022,-7.104,-7.1768,-7.2836,-7.3618,-7.4053,-7.4372,-7.4518,-7.4518,-7.4984,-7.5274,-7.5736,-7.6669,-7.645,-7.5946,-7.6425,-7.6464,-7.6274,-7.7294,-7.9151,-8.1092,-8.2239,-8.3841,-8.5458,-8.5717,-8.669,-8.7655,-8.7878,-8.8531,-8.9072,-8.9072,-8.9072,-8.9072,-8.9072,-8.9072,-8.9072,-8.9072,-8.9184,-8.944,-8.9881,-9.0315,-9.0601,-9.0812,-9.0812,-9.0812,-9.0812,-9.0812,-9.0812,-9.0812,-9.0812,-9.0812,-9.0812,-9.0812,-9.0812,-9.0812,-9.0812,-9.0812,-9.0812,-9.0917,-9.1161,-9.1676,-9.0179,-8.9675,-9.0195,-8.8685,-8.7878,-8.7878,-8.7878,-8.7878,-8.7878,-8.7878,-8.7878,-3.3182,-3.6597,0.0,-4.4463,-4.85,-5.1605,0.0,0.0,-5.4751,-5.5103,-5.6293,0.0,0.0,0.0,0.0,0.0,0.0,0.0,0.0,0.0,0.0,0.0,0.0,0.0,0.0,0.0,0.0,0.0,-6.3668,-6.3908,-6.3803,-6.3776,-6.3931,-6.4418,-6.4851,-6.5155,-6.5582,-6.7353,-6.8522,-6.9405,-7.0728,-7.1884,-7.2631,-7.266,-7.2689,-7.2776,-7.3995,-7.4518,-7.4518,-7.4984,-7.5274,-7.5707,-7.6195,-7.6234,-7.5916,-7.5946,-7.629,-7.6823,-7.6954,-7.8754,-8.1025,-8.1316,-8.3004,-8.4946,-8.5245,-8.6586,-8.7989,-8.7989,-8.8531,-8.9072,-8.9072,-8.9072,-8.9072,-8.9072,-8.9072,-8.9072,-8.9072,-8.9551,-8.999,-8.999,-9.0422,-9.0812,-9.0812,-9.0812,-9.0812,-9.0812,-9.0812,-9.0812,-9.0812,-9.0812,-9.0812,-9.0812,-9.0812,-9.0812,-9.0812,-9.0812,-9.0812,-9.0812,-9.1057,-9.1368,-9.1676,-9.0414,-8.9905,-9.0195,-8.8685,-8.7878,-8.7878,-8.7878,-8.7878,-8.7878,-8.7878,-8.7878,-3.2002,0.0,0.0,-4.2663,-4.5436,-4.7734,-4.9825,-5.1357,-5.2986,-5.5287,0.0,0.0,0.0,0.0,0.0,0.0,0.0,0.0,0.0,0.0,0.0,0.0,0.0,0.0,0.0,0.0,0.0,0.0,0.0,-6.3441,-6.3698,-6.4006,-6.4313,-6.4619,-6.5048,-6.5501,-6.5802,-6.7036,-6.803,-6.8759,-7.0132,-7.1281,-7.2021,-7.2427,-7.2602,-7.2631,-7.3095,-7.3209,-7.3086,-7.3398,-7.382,-7.4268,-7.5131,-7.5299,-7.5288,-7.5736,-7.6365,-7.7023,-7.7898,-7.9499,-8.1336,-8.2329,-8.3465,-8.4506,-8.4581,-8.5877,-8.7279,-8.7279,-8.8158,-8.9072,-8.9072,-8.9072,-8.9072,-8.9072,-8.9072,-8.9184,-8.9295,-8.9662,-8.999,-8.999,-9.0388,-9.0812,-9.0812,-9.0812,-9.0467,-8.9536,-9.0192,-9.0467,-8.9502,-9.0226,-9.0812,-9.0812,-9.0812,-9.0812,-9.0812,-9.0812,-9.0812,-9.0812,-9.1161,-9.1403,-9.1676,-9.0967,-9.0395,-9.0195,-8.9142,-8.837,-8.7878,-8.7878,-8.7878,-8.7878,-8.7878,-8.7597,-2.9642,-3.2313,-3.5625,0.0,-4.111,-4.3159,-4.7589,0.0,-5.0735,-5.4465,0.0,0.0,0.0,0.0,0.0,0.0,0.0,0.0,0.0,0.0,0.0,0.0,0.0,0.0,0.0,0.0,0.0,0.0,0.0,0.0,-6.3097,-6.358,-6.4035,-6.446,-6.491,-6.5329,-6.5799,-6.6844,-6.7652,-6.8541,-6.9907,-7.079,-7.1382,-7.1789,-7.2108,-7.2282,-7.2453,-7.2449,-7.2555,-7.2973,-7.3389,-7.3694,-7.4552,-7.4869,-7.4929,-7.5377,-7.6422,-7.7641,-7.8628,-8.0231,-8.2182,-8.3187,-8.3775,-8.4211,-8.4319,-8.5581,-8.6907,-8.6907,-8.7955,-8.9072,-8.9072,-8.9072,-8.9072,-8.9072,-8.9184,-8.9295,-8.9407,-8.9771,-8.999,-9.0099,-9.0494,-9.0812,-9.0812,-9.0812,-9.0467,-8.9502,-9.0192,-9.0467,-8.9467,-9.0192,-9.0812,-9.0812,-9.0812,-9.0812,-9.0812,-9.0812,-9.0812,-9.0812,-9.1161,-9.1471,-9.1676,-9.1212,-9.0738,-9.023,-8.9423,-8.8615,-8.7878,-8.7878,-8.7878,-8.7878,-8.7597,-8.7367,0.0,0.0,0.0,-3.3658,0.0,0.0,-4.5561,0.0,-4.7941,-5.2102,0.0,0.0,0.0,0.0,0.0,0.0,0.0,0.0,0.0,0.0,0.0,0.0,0.0,0.0,0.0,0.0,0.0,0.0,-6.1823,-6.1973,-6.1973,-6.2448,-6.3017,-6.3726,-6.4165,-6.4717,-6.5407,-6.6845,-6.7863,-6.8593,-6.995,-7.0686,-7.0686,-7.0715,-7.1063,-7.1673,-7.2064,-7.2584,-7.3199,-7.3621,-7.401,-7.4258,-7.4702,-7.4839,-7.4839,-7.4869,-7.663,-7.8879,-7.8879,-8.0863,-8.3332,-8.3665,-8.3993,-8.4319,-8.4533,-8.5689,-8.6907,-8.6907,-8.7955,-8.9072,-8.9072,-8.9072,-8.9072,-8.9072,-8.9295,-8.9517,-8.9517,-8.9771,-9.0099,-9.0315,-9.0601,-9.0812,-9.0812,-9.0812,-9.0812,-9.0743,-9.0743,-9.0743,-9.0743,-9.0743,-9.0743,-9.0812,-9.0812,-9.0812,-9.0812,-9.0812,-9.0812,-9.0812,-9.1368,-9.1676,-9.1676,-9.1445,-9.0968,-9.023,-8.9423,-8.865,-8.7878,-8.7878,-8.7843,-8.7808,-8.7,-8.7157,-2.5585,0.0,0.0,0.0,0.0,0.0,0.0,0.0,0.0,0.0,0.0,0.0,0.0,0.0,0.0,0.0,0.0,0.0,0.0,0.0,0.0,0.0,0.0,0.0,0.0,0.0,0.0,0.0,-6.1823,-6.2123,-6.2448,-6.3017,-6.358,-6.4165,-6.431,-6.4717,-6.5407,-6.6312,-6.7241,-6.7964,-6.9453,-7.0047,-7.0047,-7.0512,-7.1202,-7.2064,-7.2204,-7.2864,-7.401,-7.3645,-7.3308,-7.3358,-7.3971,-7.418,-7.424,-7.4689,-7.663,-7.8879,-7.8879,-8.095,-8.3665,-8.3775,-8.4102,-8.45,-8.464,-8.5689,-8.6907,-8.6907,-8.7955,-8.9072,-8.9072,-8.9072,-8.9072,-8.9072,-8.9295,-8.9517,-8.9771,-9.0099,-9.0315,-9.0422,-9.0601,-9.0812,-9.0812,-9.0812,-9.0433,-8.9364,-8.9191,-8.9191,-8.9191,-8.9191,-8.9605,-9.0709,-9.0812,-9.0812,-9.0812,-9.0812,-9.0917,-9.1161,-9.1471,-9.1778,-9.198,-9.2069,-9.1529,-9.023,-8.9985,-8.9212,-8.7878,-8.7878,-8.7597,-8.7,-8.6276,-8.6311,-2.6434,-2.7262,-2.869,-2.9456,0.0,0.0,-3.5355,-3.6712,0.0,0.0,0.0,0.0,0.0,0.0,0.0,0.0,0.0,0.0,0.0,0.0,0.0,0.0,0.0,0.0,0.0,-6.1607,-6.1755,-6.1672,-6.1973,-6.2422,-6.3017,-6.346,-6.3873,-6.431,-6.4573,-6.5149,-6.5862,-6.6707,-6.7431,-6.8119,-6.904,-6.9379,-6.9379,-6.9757,-7.0417,-7.1414,-7.1552,-7.2493,-7.3842,-7.3325,-7.3268,-7.3373,-7.3762,-7.3881,-7.4106,-7.5278,-7.7023,-7.9004,-7.9622,-8.157,-8.3775,-8.3884,-8.4211,-8.464,-8.464,-8.5689,-8.6907,-8.6907,-8.7955,-8.9072,-8.9072,-8.9072,-8.9072,-8.9184,-8.9517,-8.9771,-9.0099,-9.0422,-9.0601,-9.0601,-9.0707,-9.0812,-9.0812,-9.0812,-9.0502,-8.964,-8.9536,-8.9536,-8.9536,-8.9536,-8.9847,-9.0709,-9.0812,-9.0812,-9.0812,-9.0917,-9.1057,-9.13,-9.1711,-9.1879,-9.208,-9.2379,-9.1775,-9.023,-8.9879,-8.8756,-8.6895,-8.7211,-8.6973,-8.6259,-8.582,-8.6081,-2.8028,-2.8483,-2.9808,-3.1298,-2.9622,0.0,-3.6366,-3.6944,-3.8172,0.0,0.0,0.0,0.0,0.0,0.0,0.0,0.0,0.0,0.0,0.0,0.0,0.0,0.0,0.0,-6.148,-6.1812,-6.1858,-6.1816,-6.2238,-6.2857,-6.3619,-6.3646,-6.3965,-6.4455,-6.5121,-6.5834,-6.6735,-6.7403,-6.8119,-6.8828,-6.8828,-6.8828,-6.8828,-6.8828,-6.9447,-7.0438,-7.0737,-7.1821,-7.3266,-7.2939,-7.3193,-7.3791,-7.3791,-7.3896,-7.4225,-7.6029,-7.7836,-7.9376,-8.0799,-8.2411,-8.3884,-8.4102,-8.4426,-8.464,-8.464,-8.5621,-8.6805,-8.6974,-8.8023,-8.9072,-8.9072,-8.9072,-8.9184,-8.9407,-8.9771,-9.0099,-9.0315,-9.0601,-9.0812,-9.0812,-9.0812,-9.0812,-9.0812,-9.0812,-9.0812,-9.0812,-9.0674,-9.0605,-9.0778,-9.0674,-9.064,-9.0778,-9.0812,-9.0812,-9.0812,-9.0988,-9.1196,-9.1403,-9.1708,-9.201,-9.218,-9.2309,-9.1635,-9.009,-8.9107,-8.7562,-8.5491,-8.6158,-8.6117,-8.5645,-8.5621,-8.6036,-2.9663,-2.9932,-3.0243,-2.9477,-2.9642,0.0,-2.8737,-2.989,-3.2166,0.0,0.0,0.0,0.0,0.0,0.0,0.0,0.0,0.0,0.0,0.0,0.0,0.0,0.0,0.0,-6.0754,-6.071,-6.0519,-6.0561,-6.1291,-6.2084,-6.2974,-6.329,-6.3938,-6.5121,-6.5264,-6.6117,-6.7403,-6.7679,-6.8119,-6.8828,-6.8828,-6.8828,-6.8828,-6.9068,-6.9851,-7.0737,-7.114,-7.1986,-7.2909,-7.2355,-7.2475,-7.3103,-7.3103,-7.3708,-7.4752,-7.5815,-7.7905,-8.0657,-8.1068,-8.2411,-8.3884,-8.4102,-8.4426,-8.464,-8.464,-8.5283,-8.6264,-8.7448,-8.8395,-8.9072,-8.9072,-8.9072,-8.9184,-8.9407,-8.9771,-9.0099,-9.0315,-9.0601,-9.0812,-9.0812,-9.0812,-9.0812,-9.0812,-9.0812,-9.0812,-9.0812,-8.9778,-8.9467,-9.0674,-8.9778,-8.9467,-9.0674,-9.0812,-9.0812,-9.0812,-9.0469,-9.0709,-9.1539,-9.1286,-9.1515,-9.2379,-9.188,-9.0792,-8.9247,-8.7211,-8.5947,-8.5491,-8.5069,-8.5093,-8.5609,-8.5621,-8.61,-3.1319,-3.1195,-3.1298,-3.105,-3.0305,0.0,0.0,-2.9201,-3.0962,-3.5396,-3.6916,0.0,0.0,0.0,0.0,0.0,0.0,0.0,0.0,0.0,0.0,0.0,0.0,0.0,-6.0102,-6.0085,-6.0367,-6.0803,-6.138,-6.1943,-6.2668,-6.2838,-6.3537,-6.4965,-6.5389,-6.6258,-6.7679,-6.8119,-6.8392,-6.8828,-6.8828,-6.8963,-6.9098,-6.9203,-6.978,-7.0637,-7.0769,-7.1523,-7.2355,-7.1667,-7.1787,-7.2385,-7.2385,-7.3456,-7.505,-7.6335,-7.8649,-8.1219,-8.2182,-8.3154,-8.4102,-8.4319,-8.4533,-8.464,-8.464,-8.5182,-8.6027,-8.7144,-8.7989,-8.8531,-8.8531,-8.8913,-8.9407,-8.9662,-8.999,-9.0315,-9.0494,-9.0707,-9.0812,-9.0812,-9.0812,-9.0812,-9.0812,-9.0812,-9.0812,-9.0812,-9.0192,-8.995,-9.0709,-9.0157,-8.9847,-9.0226,-9.026,-9.0088,-8.9743,-8.9775,-9.0183,-9.105,-9.1101,-9.1537,-9.2442,-9.1705,-9.0195,-8.7913,-8.5947,-8.4753,-8.4367,-8.4352,-8.4788,-8.5614,-8.6062,-8.6709,-3.3285,-3.2901,-3.3087,-3.3025,-3.1457,-2.9905,0.0,0.0,0.0,0.0,0.0,0.0,0.0,0.0,0.0,0.0,0.0,0.0,0.0,0.0,0.0,0.0,0.0,0.0,0.0,-5.8967,-5.9515,-6.0847,-6.073,-6.1151,-6.2166,-6.2443,-6.3191,-6.4638,-6.5361,-6.6332,-6.7781,-6.8354,-6.8712,-6.8828,-6.8828,-6.9098,-6.9337,-6.9353,-6.9752,-7.0367,-7.0409,-7.0837,-7.1667,-7.1128,-7.1348,-7.2059,-7.2059,-7.3388,-7.5525,-7.7425,-7.9612,-8.1919,-8.3377,-8.3993,-8.4211,-8.45,-8.464,-8.464,-8.464,-8.5182,-8.5892,-8.6535,-8.7211,-8.782,-8.7955,-8.8651,-8.9457,-8.9847,-9.0207,-9.0494,-9.0707,-9.0812,-9.0812,-9.0812,-9.0812,-9.0812,-9.0812,-9.0812,-9.0812,-9.0812,-9.0812,-9.0812,-9.0812,-9.0674,-9.0364,-8.9778,-8.9571,-8.926,-8.8639,-8.894,-8.9483,-9.0249,-9.078,-9.1389,-9.2021,-9.1003,-8.9247,-8.6754,-8.5034,-8.407,-8.3895,-8.4409,-8.4924,-8.5619,-8.6498,-8.7328,-3.6039,-3.628,-3.6085,-3.2711,-3.313,-3.2894,-2.7422,0.0,-2.957,-2.9894,0.0,0.0,0.0,0.0,0.0,0.0,0.0,0.0,0.0,0.0,0.0,0.0,0.0,0.0,0.0,-5.5643,-5.5995,-5.8738,-5.7117,-5.749,-6.0837,-6.2124,-6.3362,-6.466,-6.5369,-6.6519,-6.7852,-6.7986,-6.8276,-6.8828,-6.9068,-6.9203,-6.9337,-6.9411,-6.9702,-7.0367,-7.0191,-7.044,-7.1009,-7.0949,-7.1661,-7.2703,-7.2703,-7.4315,-7.6825,-7.859,-8.0803,-8.3187,-8.3851,-8.4211,-8.4211,-8.45,-8.464,-8.464,-8.464,-8.5182,-8.579,-8.5892,-8.6467,-8.7177,-8.782,-8.8244,-8.8811,-8.971,-9.0207,-9.0494,-9.0707,-9.0812,-9.0812,-9.0812,-9.0812,-9.0812,-9.0812,-9.0812,-9.0812,-9.0812,-9.0812,-9.0812,-9.0812,-9.0226,-8.9778,-8.9709,-8.9122,-8.8674,-8.8605,-8.8455,-8.8683,-8.9449,-9.001,-9.0371,-9.0476,-8.837,-8.707,-8.6719,-8.4508,-8.4387,-8.6404,-8.5801,-8.5544,-8.5619,-8.6498,-8.7328,-3.5773,-3.6152,-3.6183,-3.3578,-3.3235,-3.2434,-2.8336,-2.7905,-2.8624,-2.9524,0.0,0.0,0.0,0.0,0.0,0.0,-3.7492,0.0,0.0,0.0,0.0,0.0,0.0,0.0,0.0,0.0,0.0,0.0,-5.588,-5.6672,-5.9589,-6.0944,-6.2498,-6.415,-6.4879,-6.5992,-6.7289,-6.7289,-6.7638,-6.8276,-6.8677,-6.8913,-6.9046,-6.966,-7.0052,-7.0251,-7.047,-7.0679,-7.0889,-7.1728,-7.233,-7.2922,-7.447,-7.6018,-7.7796,-7.8942,-8.0926,-8.3314,-8.3934,-8.4319,-8.4426,-8.45,-8.464,-8.464,-8.464,-8.4843,-8.5114,-8.5114,-8.5655,-8.6332,-8.6854,-8.7783,-8.8823,-8.9488,-9.0113,-9.0707,-9.0812,-9.0812,-9.0812,-9.0812,-9.0812,-9.0812,-9.0812,-9.0812,-9.0812,-9.0812,-9.0812,-9.0674,-9.0226,-8.9881,-8.9364,-8.8467,-8.8088,-8.757,-8.6708,-8.7206,-8.7534,-8.7395,-8.8295,-8.865,-8.8194,-8.679,-8.5807,-8.5385,-8.4404,-8.4371,-8.5431,-8.6057,-8.6319,-8.639,-8.7194,-8.7794,-3.6958,-3.7064,-3.6909,-3.4198,-3.3115,-3.2004,-2.9051,-2.8649,-2.9332,-3.0643,-3.1358,0.0,0.0,0.0,-3.2984,-3.3997,0.0,-3.7086,0.0,-3.922,0.0,0.0,0.0,0.0,0.0,0.0,0.0,0.0,0.0,-5.4921,-5.8576,-6.011,-6.1789,-6.3545,-6.4405,-6.5462,-6.6622,-6.6622,-6.6941,-6.7609,-6.8313,-6.8546,-6.8661,-6.9832,-7.0152,-6.9991,-7.044,-7.0998,-7.1503,-7.2455,-7.3169,-7.3991,-7.6021,-7.7395,-7.854,-7.957,-8.1315,-8.3235,-8.4049,-8.4426,-8.464,-8.464,-8.464,-8.464,-8.464,-8.464,-8.464,-8.464,-8.5046,-8.5627,-8.6045,-8.7215,-8.8457,-8.9114,-8.9913,-9.0571,-9.0778,-9.0812,-9.0812,-9.0812,-9.0812,-9.0812,-9.0812,-9.0812,-9.0812,-9.0812,-9.0812,-9.0536,-8.9778,-8.9329,-8.857,-8.726,-8.6742,-8.6053,-8.5082,-8.5888,-8.6412,-8.6123,-8.6849,-8.6965,-8.6403,-8.5631,-8.4964,-8.4437,-8.4358,-8.4692,-8.5365,-8.6393,-8.7169,-8.7593,-8.7969,-8.8084,-4.1062,-4.0584,-3.9612,-3.4061,-3.3095,-3.2465,-2.8198,-2.9942,-3.2552,-3.2529,-3.476,-3.679,-3.7066,-3.6825,-3.6223,-3.4861,-3.5228,0.0,0.0,0.0,0.0,0.0,0.0,0.0,0.0,0.0,0.0,0.0,0.0,0.0,-5.7795,-6.003,-6.1627,-6.2922,-6.4323,-6.5315,-6.5954,-6.5954,-6.6273,-6.6912,-6.821,-6.8572,-6.7983,-6.9436,-6.9991,-6.9991,-6.9991,-7.1056,-7.2674,-7.2798,-7.4231,-7.6476,-7.6813,-7.7981,-7.9485,-8.0922,-8.2141,-8.3235,-8.4263,-8.4606,-8.464,-8.464,-8.464,-8.464,-8.464,-8.464,-8.464,-8.464,-8.464,-8.4843,-8.5909,-8.6431,-8.7157,-8.884,-8.9534,-8.995,-9.0674,-9.0812,-9.0812,-9.0812,-9.0812,-9.0812,-9.0812,-9.0812,-9.0812,-9.0812,-9.0812,-9.0536,-8.9778,-8.8398,-8.7191,-8.6432,-8.5018,-8.4219,-8.4378,-8.4665,-8.5356,-8.6557,-8.5982,-8.5561,-8.5526,-8.4823,-8.4437,-8.4402,-8.4358,-8.5554,-8.786,-8.7266,-8.7734,-8.9236,-8.8455,-8.8084,0.0,0.0,-4.3598,-4.0088,0.0,-3.5789,-3.1387,-3.2329,-3.4051,-3.3692,-3.6351,-3.8606,-3.8319,-3.7668,-3.6789,-3.5956,-3.5353,-3.4349,0.0,0.0,0.0,0.0,0.0,0.0,0.0,0.0,0.0,0.0,-4.879,0.0,0.0,-5.9048,-6.1058,-6.2336,-6.4034,-6.5083,-6.5315,-6.5315,-6.5734,-6.6633,-6.7695,-6.8052,-6.7589,-6.9227,-6.9752,-6.9363,-6.9782,-7.1056,-7.2798,-7.378,-7.5061,-7.6734,-7.7872,-7.8691,-7.9522,-8.0703,-8.172,-8.2844,-8.4094,-8.464,-8.464,-8.464,-8.464,-8.464,-8.464,-8.464,-8.464,-8.464,-8.464,-8.4781,-8.5509,-8.6127,-8.6815,-8.7745,-8.8502,-8.9053,-8.9295,-8.9329,-8.9329,-8.9329,-8.9329,-8.9329,-8.9329,-8.9329,-8.9674,-9.0674,-9.0398,-8.9812,-8.9053,-8.7639,-8.6398,-8.5639,-8.4639,-8.3908,-8.3746,-8.3601,-8.4005,-8.5139,-8.4437,-8.3981,-8.3981,-8.3735,-8.363,-8.363,-8.462,-8.5567,-8.6416,-8.7794,-8.8525,-8.853,-8.931,-8.9124,-4.7093,-4.7567,0.0,-4.5024,-4.342,0.0,-3.6815,-3.7834,-3.9376,-3.8406,-4.0178,-4.1963,-4.21,-4.0408,-3.8642,-3.7713,-3.6225,-3.4073,0.0,-3.0522,0.0,0.0,0.0,0.0,0.0,-4.016,-4.2547,-4.6648,-4.6703,-4.8853,0.0,0.0,-5.9887,-6.1365,-6.3497,-6.4764,-6.4996,-6.5124,-6.5426,-6.6089,-6.7275,-6.75,-6.7189,-6.9146,-6.9632,-6.9064,-6.9931,-7.1491,-7.3537,-7.4351,-7.5759,-7.7544,-7.8691,-7.9251,-7.9696,-8.0609,-8.1727,-8.2983,-8.42,-8.464,-8.464,-8.464,-8.464,-8.464,-8.464,-8.464,-8.464,-8.464,-8.4747,-8.4853,-8.5377,-8.596,-8.6577,-8.7227,-8.7812,-8.826,-8.8536,-8.8605,-8.8605,-8.8605,-8.8605,-8.8605,-8.8605,-8.8364,-8.8501,-8.9467,-8.9191,-8.8536,-8.7501,-8.626,-8.519,-8.4466,-8.3914,-8.3528,-8.3425,-8.3403,-8.3556,-8.3981,-8.3489,-8.3208,-8.3208,-8.3208,-8.3208,-8.3208,-8.4765,-8.5873,-8.6452,-8.8102,-8.8901,-8.8938,-8.9421,-8.9236]},{"header":{"parameterUnit":"m.s-1","parameterCategory":1,"la1":30.6,"la2":29.2853,"lo1":-89.7004,"lo2":-87.6739,"dy":0.0162,"dx":0.0183,"nx":112,"ny":82,"refTime":"2026-03-13T12:00:00:Z","depth":0,"parameterNumber":3,"parameterNumberName":"V-component_of_WINDS"},"data":[0.0,0.0,0.0,0.0,0.0,0.0,0.0,0.0,0.0,0.0,0.0,0.0,0.0,0.0,0.0,0.0,0.0,0.0,0.0,0.0,0.0,0.0,0.0,0.0,0.0,0.0,0.0,0.0,0.0,0.0,0.0,0.0,0.0,0.0,0.0,0.0,0.0,0.0,0.0,0.0,0.0,0.0,0.0,0.0,0.0,0.0,0.0,0.0,0.0,0.0,0.0,0.0,0.0,0.0,0.0,0.0,0.0,0.0,0.0,0.0,0.0,0.0,0.0,0.0,0.0,0.0,0.0,0.0,0.0,0.0,0.0,0.0,0.0,0.0,0.0,0.0,0.0,0.0,0.0,0.0,0.0,0.0,0.0,0.0,0.0,0.0,0.0,0.0,0.0,0.0,-3.664,-3.9554,-4.4209,-4.6719,-4.5937,-4.5683,-4.3262,-3.7832,0.0,0.0,0.0,0.0,0.0,0.0,0.0,0.0,0.0,0.0,0.0,0.0,0.0,0.0,0.0,0.0,0.0,0.0,0.0,0.0,0.0,0.0,0.0,0.0,0.0,0.0,0.0,0.0,0.0,0.0,0.0,0.0,0.0,0.0,0.0,0.0,0.0,0.0,0.0,0.0,0.0,0.0,0.0,0.0,0.0,0.0,0.0,0.0,0.0,0.0,0.0,0.0,0.0,0.0,0.0,0.0,0.0,0.0,0.0,0.0,0.0,0.0,0.0,0.0,0.0,0.0,0.0,0.0,0.0,0.0,0.0,0.0,0.0,0.0,0.0,0.0,0.0,0.0,0.0,0.0,0.0,0.0,0.0,0.0,0.0,0.0,0.0,0.0,0.0,0.0,0.0,0.0,0.0,0.0,0.0,0.0,0.0,0.0,0.0,0.0,0.0,0.0,0.0,0.0,-3.6935,-4.3464,-4.6113,-4.7285,-4.6777,-4.5742,-4.3203,-3.8672,0.0,0.0,0.0,0.0,0.0,0.0,0.0,0.0,0.0,0.0,0.0,0.0,0.0,0.0,0.0,0.0,0.0,0.0,0.0,0.0,0.0,0.0,0.0,0.0,0.0,0.0,0.0,0.0,0.0,0.0,0.0,0.0,0.0,0.0,0.0,0.0,0.0,0.0,0.0,0.0,0.0,0.0,0.0,0.0,0.0,0.0,0.0,0.0,0.0,0.0,0.0,0.0,0.0,0.0,0.0,0.0,0.0,0.0,0.0,0.0,0.0,0.0,0.0,0.0,0.0,0.0,0.0,0.0,0.0,0.0,0.0,0.0,0.0,0.0,0.0,0.0,0.0,0.0,0.0,0.0,0.0,0.0,0.0,0.0,0.0,0.0,0.0,0.0,0.0,0.0,0.0,0.0,0.0,0.0,0.0,0.0,0.0,0.0,0.0,0.0,0.0,0.0,0.0,-3.6256,-3.9287,-4.4746,-4.6699,-4.7305,-4.6641,-4.584,-4.3437,-3.8867,-3.6133,0.0,0.0,0.0,0.0,0.0,0.0,0.0,0.0,0.0,0.0,0.0,0.0,0.0,0.0,0.0,0.0,0.0,0.0,0.0,0.0,0.0,0.0,0.0,0.0,0.0,0.0,0.0,0.0,0.0,0.0,0.0,0.0,0.0,0.0,0.0,0.0,0.0,0.0,0.0,0.0,0.0,0.0,0.0,0.0,0.0,0.0,0.0,0.0,0.0,0.0,0.0,0.0,0.0,0.0,0.0,0.0,0.0,0.0,0.0,0.0,0.0,0.0,0.0,0.0,0.0,0.0,0.0,0.0,0.0,0.0,0.0,0.0,0.0,0.0,0.0,0.0,0.0,0.0,0.0,0.0,0.0,0.0,0.0,0.0,0.0,0.0,0.0,0.0,0.0,0.0,0.0,0.0,0.0,0.0,0.0,0.0,0.0,0.0,0.0,0.0,0.0,0.0,-3.9998,-4.1778,-4.5547,-4.6933,-4.7226,-4.6367,-4.5449,-4.3105,-3.8848,-3.5273,0.0,0.0,0.0,0.0,0.0,0.0,0.0,0.0,0.0,0.0,0.0,0.0,0.0,0.0,0.0,0.0,0.0,0.0,0.0,0.0,0.0,0.0,0.0,0.0,0.0,0.0,0.0,0.0,0.0,0.0,0.0,0.0,0.0,0.0,0.0,0.0,0.0,0.0,0.0,0.0,0.0,0.0,0.0,0.0,0.0,0.0,0.0,0.0,0.0,0.0,0.0,0.0,0.0,0.0,0.0,0.0,0.0,0.0,0.0,0.0,0.0,0.0,0.0,0.0,0.0,0.0,0.0,0.0,0.0,0.0,0.0,0.0,0.0,0.0,0.0,0.0,0.0,0.0,0.0,0.0,0.0,0.0,0.0,0.0,0.0,0.0,0.0,0.0,0.0,0.0,0.0,0.0,0.0,0.0,0.0,0.0,0.0,0.0,0.0,0.0,0.0,0.0,-4.0873,-4.3848,-4.6543,-4.7285,-4.7226,-4.6367,-4.4062,-4.1484,-3.875,-3.3887,0.0,0.0,0.0,0.0,0.0,0.0,0.0,0.0,0.0,0.0,0.0,0.0,0.0,0.0,0.0,0.0,0.0,0.0,0.0,0.0,0.0,0.0,0.0,0.0,0.0,0.0,0.0,0.0,0.0,0.0,0.0,0.0,0.0,0.0,0.0,0.0,0.0,0.0,0.0,0.0,0.0,0.0,0.0,0.0,0.0,0.0,0.0,0.0,0.0,0.0,0.0,0.0,0.0,0.0,0.0,0.0,0.0,0.0,0.0,0.0,0.0,0.0,0.0,0.0,0.0,0.0,0.0,0.0,0.0,0.0,0.0,0.0,0.0,0.0,0.0,0.0,0.0,0.0,0.0,0.0,0.0,0.0,0.0,0.0,0.0,0.0,0.0,0.0,0.0,0.0,0.0,0.0,0.0,0.0,0.0,0.0,0.0,0.0,0.0,0.0,0.0,0.0,-4.0176,-4.3131,-4.6914,-4.748,-4.7344,-4.6738,-4.5312,-4.2656,-3.8437,0.0,0.0,0.0,0.0,0.0,0.0,0.0,0.0,0.0,0.0,0.0,0.0,0.0,0.0,0.0,0.0,0.0,0.0,0.0,0.0,0.0,0.0,0.0,0.0,0.0,0.0,0.0,0.0,0.0,0.0,0.0,0.0,0.0,0.0,0.0,0.0,0.0,0.0,0.0,0.0,0.0,0.0,0.0,0.0,0.0,0.0,0.0,0.0,0.0,0.0,0.0,0.0,0.0,0.0,0.0,0.0,0.0,0.0,0.0,0.0,0.0,0.0,0.0,0.0,0.0,0.0,0.0,0.0,0.0,0.0,0.0,0.0,0.0,0.0,0.0,0.0,0.0,0.0,0.0,0.0,0.0,0.0,0.0,0.0,0.0,0.0,0.0,0.0,0.0,0.0,0.0,0.0,0.0,0.0,0.0,0.0,0.0,0.0,0.0,0.0,0.0,0.0,-3.7888,-4.063,-4.3758,-4.793,-4.8281,-4.8183,-4.8164,-4.6387,-4.3281,-3.8633,0.0,0.0,0.0,0.0,0.0,0.0,0.0,0.0,0.0,0.0,0.0,0.0,0.0,0.0,0.0,0.0,0.0,0.0,0.0,0.0,0.0,0.0,0.0,0.0,0.0,0.0,0.0,0.0,0.0,0.0,0.0,0.0,0.0,0.0,0.0,0.0,0.0,0.0,0.0,0.0,0.0,0.0,0.0,0.0,0.0,0.0,0.0,0.0,0.0,0.0,0.0,0.0,0.0,0.0,0.0,0.0,0.0,0.0,0.0,0.0,0.0,0.0,0.0,0.0,0.0,0.0,0.0,0.0,0.0,0.0,0.0,0.0,0.0,0.0,0.0,0.0,0.0,0.0,0.0,0.0,0.0,0.0,0.0,0.0,0.0,0.0,0.0,0.0,0.0,0.0,0.0,0.0,0.0,0.0,0.0,0.0,0.0,0.0,0.0,0.0,0.0,0.0,-3.8946,-4.2683,-4.6387,-4.9824,-4.9805,-4.9883,-5.0723,-4.6894,-4.293,0.0,0.0,0.0,0.0,0.0,0.0,0.0,0.0,0.0,0.0,0.0,0.0,0.0,0.0,0.0,0.0,0.0,0.0,0.0,0.0,0.0,0.0,0.0,0.0,0.0,0.0,0.0,0.0,0.0,0.0,0.0,0.0,0.0,0.0,0.0,0.0,0.0,0.0,0.0,0.0,0.0,0.0,0.0,0.0,0.0,0.0,0.0,0.0,0.0,0.0,0.0,0.0,0.0,0.0,0.0,0.0,0.0,0.0,0.0,0.0,0.0,0.0,0.0,0.0,0.0,0.0,0.0,0.0,0.0,0.0,0.0,0.0,0.0,0.0,0.0,0.0,0.0,0.0,0.0,0.0,0.0,0.0,0.0,0.0,0.0,0.0,0.0,0.0,0.0,0.0,0.0,0.0,0.0,0.0,0.0,0.0,0.0,0.0,0.0,0.0,0.0,0.0,0.0,-3.9805,-4.4356,-4.8242,-5.0781,-5.0957,-5.0723,-5.0391,-4.8066,-4.4258,-3.8652,0.0,0.0,0.0,0.0,0.0,0.0,0.0,0.0,0.0,0.0,0.0,0.0,0.0,0.0,0.0,0.0,0.0,0.0,0.0,0.0,0.0,0.0,0.0,0.0,0.0,0.0,0.0,0.0,0.0,0.0,0.0,0.0,0.0,0.0,0.0,0.0,0.0,0.0,0.0,0.0,0.0,0.0,0.0,0.0,0.0,0.0,0.0,0.0,0.0,0.0,0.0,0.0,0.0,0.0,0.0,0.0,0.0,0.0,0.0,0.0,0.0,0.0,0.0,0.0,0.0,0.0,0.0,0.0,0.0,0.0,0.0,0.0,0.0,0.0,0.0,0.0,0.0,0.0,0.0,0.0,0.0,0.0,0.0,0.0,0.0,0.0,0.0,0.0,0.0,0.0,0.0,0.0,0.0,0.0,0.0,0.0,0.0,0.0,0.0,0.0,0.0,0.0,-4.0204,-4.5221,-4.9414,-5.1933,-5.2051,-5.1953,-5.1973,-5.0058,-4.625,-4.0098,0.0,0.0,0.0,0.0,0.0,0.0,0.0,0.0,0.0,0.0,0.0,0.0,0.0,0.0,0.0,0.0,0.0,0.0,0.0,0.0,0.0,0.0,0.0,0.0,0.0,0.0,0.0,0.0,0.0,0.0,0.0,0.0,0.0,0.0,0.0,0.0,0.0,0.0,0.0,0.0,0.0,0.0,0.0,0.0,0.0,0.0,0.0,0.0,0.0,0.0,0.0,0.0,0.0,0.0,0.0,0.0,0.0,0.0,0.0,0.0,0.0,0.0,0.0,0.0,0.0,0.0,0.0,0.0,0.0,0.0,0.0,0.0,0.0,0.0,0.0,0.0,0.0,0.0,0.0,0.0,0.0,0.0,0.0,0.0,0.0,0.0,0.0,0.0,0.0,0.0,0.0,0.0,0.0,0.0,0.0,0.0,0.0,0.0,0.0,0.0,0.0,0.0,-4.0344,-4.5694,-5.0254,-5.3125,-5.3105,-5.332,-5.4414,-5.2226,-4.8398,-4.2773,0.0,0.0,0.0,0.0,0.0,0.0,0.0,0.0,0.0,0.0,0.0,0.0,0.0,0.0,0.0,0.0,0.0,0.0,0.0,0.0,0.0,0.0,0.0,0.0,0.0,0.0,0.0,0.0,0.0,0.0,0.0,0.0,0.0,0.0,0.0,0.0,0.0,0.0,0.0,0.0,0.0,0.0,0.0,0.0,0.0,0.0,0.0,0.0,0.0,0.0,0.0,0.0,0.0,0.0,0.0,0.0,0.0,0.0,0.0,0.0,-6.6535,-6.1871,0.0,0.0,0.0,0.0,0.0,0.0,0.0,0.0,0.0,0.0,0.0,0.0,0.0,0.0,0.0,0.0,0.0,0.0,0.0,0.0,0.0,0.0,0.0,0.0,0.0,0.0,0.0,0.0,0.0,0.0,0.0,0.0,0.0,0.0,0.0,0.0,0.0,0.0,0.0,0.0,-4.1151,-4.7386,-5.2031,-5.3711,-5.4101,-5.3945,-5.3203,-5.1699,-4.8398,-4.2773,-3.8633,0.0,0.0,0.0,0.0,0.0,0.0,0.0,0.0,0.0,0.0,0.0,0.0,0.0,0.0,0.0,0.0,0.0,0.0,0.0,0.0,0.0,0.0,0.0,0.0,0.0,0.0,0.0,0.0,0.0,0.0,0.0,0.0,0.0,0.0,0.0,0.0,0.0,0.0,0.0,0.0,0.0,0.0,0.0,0.0,0.0,0.0,0.0,0.0,0.0,0.0,0.0,0.0,0.0,0.0,0.0,0.0,0.0,0.0,0.0,0.0,-6.9277,0.0,0.0,0.0,0.0,0.0,0.0,0.0,0.0,0.0,0.0,0.0,0.0,0.0,0.0,0.0,0.0,0.0,0.0,0.0,0.0,0.0,0.0,0.0,0.0,0.0,0.0,0.0,0.0,0.0,0.0,0.0,0.0,0.0,0.0,0.0,0.0,0.0,0.0,0.0,0.0,-4.1862,-4.8037,-5.2561,-5.3867,-5.4043,-5.3769,-5.3086,-5.166,-4.9023,-4.4844,-4.0586,0.0,0.0,0.0,0.0,0.0,0.0,0.0,0.0,0.0,0.0,0.0,0.0,0.0,0.0,0.0,0.0,0.0,0.0,0.0,0.0,0.0,0.0,0.0,0.0,0.0,0.0,0.0,0.0,0.0,0.0,0.0,0.0,0.0,0.0,0.0,0.0,0.0,0.0,0.0,0.0,0.0,0.0,0.0,0.0,0.0,0.0,0.0,0.0,0.0,0.0,0.0,0.0,0.0,-8.1492,-8.2585,-8.3115,-8.507,-8.56,-8.4871,-8.2254,-7.8353,-7.3469,-7.0978,0.0,0.0,0.0,0.0,0.0,0.0,0.0,0.0,0.0,0.0,0.0,0.0,0.0,0.0,0.0,0.0,0.0,0.0,0.0,0.0,0.0,0.0,0.0,0.0,-5.9841,-5.9409,-5.009,0.0,0.0,0.0,0.0,0.0,0.0,0.0,0.0,0.0,0.0,0.0,-4.2421,-4.8375,-5.2561,-5.3613,-5.3476,-5.3223,-5.3144,-5.1699,-4.9726,-4.7207,-4.2891,-3.9004,0.0,0.0,0.0,0.0,0.0,0.0,0.0,0.0,0.0,0.0,0.0,0.0,0.0,0.0,0.0,0.0,0.0,0.0,0.0,0.0,0.0,0.0,0.0,0.0,0.0,0.0,0.0,0.0,0.0,0.0,0.0,0.0,-5.9099,-5.7509,0.0,0.0,0.0,0.0,0.0,0.0,0.0,0.0,0.0,0.0,0.0,0.0,0.0,-7.5728,-7.861,-8.5103,-8.8515,-8.8846,-9.4676,-9.7161,-9.673,-9.7625,-9.7956,-9.7956,-9.938,0.0,-8.1368,-8.0886,0.0,0.0,0.0,0.0,0.0,0.0,0.0,0.0,0.0,0.0,0.0,0.0,0.0,0.0,0.0,0.0,0.0,0.0,0.0,0.0,0.0,0.0,-6.5867,-6.5109,-6.5313,-6.4627,0.0,-5.3413,-4.6203,-4.251,-3.8418,-3.4429,0.0,0.0,0.0,0.0,0.0,0.0,-4.3519,-4.8474,-5.1988,-5.2734,-5.2832,-5.2656,-5.2285,-5.1367,-4.9863,-4.7637,-4.4453,-4.1621,-3.9316,-3.4746,0.0,0.0,0.0,0.0,0.0,0.0,0.0,0.0,0.0,0.0,0.0,0.0,0.0,0.0,0.0,0.0,0.0,0.0,0.0,0.0,0.0,0.0,0.0,0.0,0.0,0.0,0.0,0.0,0.0,-5.8118,-6.2313,-5.8355,-6.1637,-6.1704,0.0,0.0,0.0,0.0,0.0,0.0,0.0,0.0,0.0,-8.1889,-8.3261,-8.6247,-9.1198,-9.4411,-9.6863,-9.8519,-10.1401,-10.2792,-10.2991,-10.3289,-10.3389,-10.3422,-10.4383,-10.1169,-9.4776,-8.9767,-8.2563,-7.4253,0.0,0.0,0.0,0.0,-6.254,-6.284,-6.6978,-6.7902,-6.705,-6.6534,0.0,0.0,0.0,0.0,0.0,0.0,0.0,0.0,0.0,0.0,-6.6965,-6.8743,-6.9267,-6.8629,-6.6361,-6.1095,-5.4935,-4.846,-4.5081,-4.1069,-3.4147,-3.3021,0.0,0.0,0.0,-4.1861,-4.4842,-4.9132,-5.1963,-5.2246,-5.2363,-5.2187,-5.1758,-5.0937,-4.9941,-4.875,-4.6074,-4.3789,-4.2109,-3.7949,-3.4551,0.0,0.0,0.0,0.0,0.0,0.0,0.0,0.0,0.0,0.0,0.0,0.0,0.0,0.0,0.0,0.0,0.0,0.0,0.0,0.0,0.0,0.0,0.0,0.0,0.0,0.0,0.0,0.0,-6.1603,-6.5967,-6.052,-6.5275,-6.6019,0.0,0.0,0.0,0.0,0.0,0.0,-7.6003,-7.9602,-8.4484,-9.09,-9.2317,-9.5601,-10.1103,-10.1302,-10.2693,-10.5277,-10.5078,-10.5476,-10.6403,-10.6403,-10.6403,-10.6403,-10.6602,-10.6105,-10.4681,-9.6995,-8.9207,-8.1774,-7.6472,-7.2366,-6.955,-7.0119,-7.0118,-7.0547,-7.5517,-7.6579,-7.5581,-7.3647,-7.0416,-6.6117,-5.9375,0.0,0.0,0.0,0.0,-5.634,-6.2287,-6.5188,-6.7357,-7.0807,-7.1433,-7.0978,-6.9084,-6.6449,-6.2079,-5.4521,-5.1309,-4.7361,-3.9281,-3.7865,0.0,-3.5043,-3.9351,-4.37,-4.5924,-4.9432,-5.1768,-5.1698,-5.1504,-5.1289,-5.0976,-5.0273,-4.9648,-4.9219,-4.7187,-4.5508,-4.4414,-4.0957,-3.791,-3.543,0.0,0.0,0.0,0.0,0.0,0.0,0.0,0.0,0.0,0.0,0.0,0.0,0.0,0.0,0.0,0.0,0.0,0.0,0.0,0.0,0.0,0.0,0.0,0.0,0.0,0.0,0.0,0.0,0.0,-6.6,-7.2886,0.0,0.0,0.0,0.0,-7.1632,-7.7343,-8.2443,-8.6613,-9.1602,-9.5664,-9.8618,-10.0772,-10.2395,-10.3389,-10.4084,-10.5277,-10.6801,-10.6105,-10.6503,-10.7894,-10.7894,-10.7894,-10.7927,-10.8623,-10.8126,-10.6403,-10.1799,-9.8318,-9.5475,-8.8522,-8.5008,-8.3457,-7.9664,-7.8132,-7.805,-7.9868,-7.942,-7.8403,-8.1633,-7.7722,-7.0969,-6.6186,-6.2206,0.0,0.0,-6.05,-6.2966,-6.6076,-6.8168,-6.9945,-7.1801,-7.1568,-7.0552,-6.9399,-6.667,-6.3525,0.0,-5.5626,-5.0885,-4.7237,0.0,-4.117,-4.053,-4.26,-4.4872,-4.6635,-4.9009,-5.041,-5.0365,-4.9902,-4.9648,-4.9629,-4.9199,-4.873,-4.8301,-4.7383,-4.666,-4.6191,-4.3613,-4.1172,-3.8984,-3.5156,0.0,0.0,0.0,0.0,0.0,0.0,0.0,0.0,0.0,0.0,0.0,0.0,0.0,0.0,0.0,0.0,0.0,0.0,0.0,0.0,0.0,0.0,0.0,0.0,0.0,0.0,0.0,0.0,-7.1176,-7.9396,0.0,-7.4354,-7.5873,-7.8436,-8.0668,-8.5715,-9.0383,-9.4208,-9.7459,-10.0345,-10.2693,-10.3985,-10.4979,-10.5708,-10.5509,-10.5906,-10.69,-10.6602,-10.6801,-10.7298,-10.7795,-10.7728,-10.7298,-10.7596,-10.7099,-10.6072,-10.4482,-10.0857,-9.5994,-9.2331,-8.8838,-8.5872,-8.4596,-8.4349,-8.454,-8.4992,-8.4391,-8.3107,-8.1012,-7.7413,-7.3001,-6.8476,-6.6126,-6.4829,-6.4095,-6.4926,-6.673,-6.9213,-7.0624,-7.1539,-7.179,-7.1391,-7.0654,-6.956,-6.7942,-6.6112,-6.4379,-6.0107,-5.5525,-5.1021,-4.9201,-4.7311,-4.3565,-4.5022,-4.6825,-4.7641,-4.9069,-4.9671,-4.9071,-4.9023,-4.8984,-4.8711,-4.8535,-4.8262,-4.7832,-4.6992,-4.6211,-4.5508,-4.3789,-4.209,-4.0508,-3.7461,-3.3603,0.0,0.0,0.0,0.0,0.0,0.0,0.0,0.0,0.0,0.0,0.0,0.0,0.0,0.0,0.0,0.0,0.0,0.0,0.0,0.0,0.0,0.0,0.0,0.0,0.0,0.0,-7.96,-7.734,-8.5259,-8.843,-8.2268,-8.4298,-8.6995,-8.922,-9.308,-9.6532,-9.948,-10.1699,-10.3422,-10.4681,-10.5409,-10.5906,-10.6171,-10.5674,-10.5807,-10.6503,-10.6503,-10.6701,-10.69,-10.7397,-10.7397,-10.69,-10.69,-10.6178,-10.4948,-10.4505,-10.0923,-9.5489,-9.4869,-9.2384,-8.9053,-8.8157,-8.8219,-8.8422,-8.7746,-8.6728,-8.5124,-8.1096,-7.8315,-7.5643,-7.1519,-7.0229,-6.975,-6.8504,-6.869,-6.9788,-7.1304,-7.201,-7.2297,-7.1946,-7.1417,-7.0654,-6.956,-6.8272,-6.7191,-6.6061,-6.2282,-5.8,-5.3971,-5.2331,-4.9964,-4.5586,-4.6658,-4.7852,-4.7581,-4.8586,-4.8932,-4.8169,-4.8125,-4.8027,-4.7598,-4.7305,-4.7012,-4.6738,-4.5625,-4.4805,-4.4394,-4.2851,-4.1543,-4.0527,-3.7261,-3.3482,-2.9203,0.0,0.0,0.0,0.0,0.0,0.0,0.0,0.0,0.0,0.0,0.0,0.0,0.0,0.0,0.0,0.0,0.0,0.0,0.0,0.0,0.0,0.0,0.0,-7.1345,-8.014,-8.5917,-8.4606,-9.0453,-9.3424,-9.0405,-9.1223,-9.3418,-9.6995,-9.9182,-10.1004,-10.2527,-10.4614,-10.5409,-10.4681,-10.5376,-10.5409,-10.4681,-10.4681,-10.5078,-10.5774,-10.5774,-10.6171,-10.6801,-10.6801,-10.6801,-10.6801,-10.6768,-10.5425,-10.3111,-10.1816,-9.8758,-9.4821,-9.6597,-9.5782,-9.3582,-9.0868,-8.9845,-8.9552,-8.8032,-8.6117,-8.3988,-8.2724,-8.0798,-7.8604,-7.5939,-7.4778,-7.41,-7.2095,-7.1853,-7.2297,-7.2297,-7.2297,-7.2297,-7.2297,-7.1568,-7.0552,-6.945,-6.8065,-6.6614,-6.5534,-6.185,-5.8379,-5.6544,-5.2752,-4.9188,-4.6782,-4.7568,0.0,-4.6454,-4.754,-4.8133,-4.764,-4.7129,-4.6699,-4.6269,-4.5449,-4.4961,-4.4941,-4.332,-4.2558,-4.2988,-4.0996,-3.9648,-3.918,-3.4583,-3.0933,-2.8313,0.0,0.0,0.0,0.0,0.0,0.0,0.0,0.0,0.0,0.0,0.0,0.0,0.0,0.0,0.0,0.0,0.0,0.0,0.0,0.0,0.0,-7.2225,-7.7536,-7.6318,-8.3881,-9.0269,-9.1901,-9.7207,-9.9919,-9.8053,-9.8321,-9.9149,-10.0142,-10.1302,-10.2527,-10.4018,-10.4681,-10.4879,-10.4681,-10.4879,-10.4879,-10.4681,-10.4681,-10.478,-10.4979,-10.5509,-10.531,-10.4482,-10.5078,-10.4714,-10.3545,-10.2475,-10.1905,-10.1472,-9.9151,-9.6799,-9.4654,-9.4821,-9.3232,-9.0927,-9.0574,-8.9689,-8.8664,-8.7319,-8.5762,-8.3988,-8.2724,-8.0798,-7.8742,-7.6948,-7.5423,-7.4179,-7.2594,-7.2167,-7.2297,-7.2297,-7.2297,-7.2122,-7.1417,-7.0729,-6.9966,-6.8979,-6.7492,-6.6262,-6.5936,-6.1778,-5.8172,-5.7251,-5.5507,-5.3086,-4.9446,-4.8852,-4.849,-4.7511,-4.7661,-4.7334,-4.5954,-4.5625,-4.5371,-4.4961,-4.4121,-4.3476,-4.3164,-4.1816,-4.1094,-4.1211,-4.0039,-3.8895,-3.7846,-3.4032,-3.1264,0.0,0.0,0.0,0.0,0.0,0.0,0.0,0.0,0.0,0.0,0.0,0.0,0.0,0.0,0.0,0.0,0.0,0.0,0.0,0.0,0.0,0.0,-8.031,-8.6163,-8.6738,-9.1227,-9.543,-9.7959,-10.1053,-10.2983,-10.2783,-10.1838,-10.1699,-10.2296,-10.2428,-10.3024,-10.4184,-10.4482,-10.4681,-10.4681,-10.4681,-10.4681,-10.4681,-10.4681,-10.4681,-10.4681,-10.4813,-10.4383,-10.3588,-10.372,-10.3322,-10.2354,-10.1439,-10.0409,-9.917,-9.718,-9.4746,0.0,0.0,0.0,0.0,0.0,-8.8876,-8.7505,-8.6373,-8.4962,-8.3651,-8.264,-8.0791,-7.8633,-7.7237,-7.5679,-7.4024,-7.2708,-7.2297,-7.2297,-7.2297,-7.2122,-7.1894,-7.1107,-7.0244,-6.9358,-6.8373,-6.6963,-6.571,-6.5459,-6.1983,0.0,-5.7144,-5.4996,-5.2581,-4.9359,-4.8997,-4.8592,-4.737,-4.748,-4.7155,-4.5625,-4.5566,-4.5391,-4.4961,-4.3789,0.0,0.0,0.0,-3.9245,-3.8379,-3.7856,0.0,0.0,0.0,0.0,0.0,0.0,0.0,0.0,-2.8865,-2.8572,0.0,0.0,0.0,0.0,0.0,0.0,0.0,0.0,0.0,0.0,0.0,0.0,0.0,0.0,0.0,0.0,-8.7651,-9.4451,-9.8724,-9.9821,-10.0842,-10.2358,-10.309,-10.3849,-10.5048,-10.2866,-10.2097,-10.3389,-10.2892,-10.2826,-10.3588,0.0,0.0,0.0,0.0,-10.4681,-10.4681,-10.4681,-10.4681,-10.4681,-10.3985,-10.3588,-10.3488,-10.2726,-10.2189,-10.1983,-10.1809,-9.9661,-9.6401,-9.5023,-9.2559,-8.9667,-9.1647,-9.1404,-8.9642,-8.8563,-8.743,-8.6244,-8.5266,0.0,0.0,-8.2269,-8.0433,-7.8366,-7.697,-7.5393,-7.3761,-7.2611,-7.2297,-7.2297,-7.2297,-7.1894,-7.1361,-7.0817,-6.9911,-6.8877,-6.7887,-6.6379,-6.5057,-6.4555,-6.2027,-5.8901,-5.6382,-5.2973,-4.9999,-4.8107,-4.8541,-4.8428,-4.6615,-4.7218,-4.7314,-4.6346,0.0,0.0,-4.5566,-4.3984,-4.2812,-4.2383,-4.0019,-3.7806,-3.5835,-3.5816,-3.504,-3.355,-3.3731,-3.3909,-3.3945,-3.4348,-3.4788,-3.5119,-3.0717,-3.0167,0.0,0.0,0.0,0.0,0.0,0.0,0.0,0.0,0.0,0.0,0.0,0.0,0.0,0.0,0.0,-8.3727,-9.1068,-9.7114,-10.051,-10.2321,-10.3329,-10.3362,-10.443,-10.496,-10.3961,-10.2859,-10.2428,-10.2726,-10.2627,-10.2826,-10.3588,-10.4283,-10.4681,-10.4681,-10.4681,-10.4681,-10.4681,-10.4681,-10.4681,-10.4681,0.0,0.0,-10.2726,-10.1931,-10.0539,-9.875,-9.741,-9.5737,-9.3839,-9.1435,-8.9585,-8.8276,-8.8708,-8.8915,-8.8857,-8.786,-8.7048,-8.6244,-8.4765,-8.3968,-8.2914,-8.1069,-7.9576,-7.8189,-7.6269,-7.4862,0.0,-7.2611,-7.2297,-7.2297,-7.2297,-7.1608,-7.0869,-7.0189,-6.8973,-6.7938,-6.719,-6.5906,-6.4605,-6.4479,-6.0966,-5.7468,-5.6675,-5.4394,-5.1724,-4.9297,-4.8592,-4.8311,-4.746,-4.7255,-4.6729,-4.5351,-4.5273,-4.5098,-4.4687,-4.3359,-4.2383,-4.1953,-4.0137,-3.8642,-3.7547,-3.7544,-3.7029,-3.6104,-3.5554,-3.5027,-3.4807,-3.5192,-3.576,-3.6457,-3.4844,-3.4257,0.0,0.0,0.0,0.0,0.0,0.0,0.0,0.0,0.0,0.0,0.0,-6.7762,-7.1672,0.0,-8.3874,-9.0335,-9.5093,-9.9028,-10.2049,-10.3429,-10.4035,-10.3858,-10.4192,-10.4287,-10.3869,-10.2435,-10.1732,-10.2428,-10.2527,-10.2826,-10.3588,-10.4283,-10.4681,-10.4681,-10.4681,-10.4681,-10.4681,-10.4681,-10.4681,-10.4681,-10.3588,-10.2892,-10.2527,-10.1401,-9.9742,-9.7897,-9.6993,-9.5203,-9.2388,-8.9694,-8.8274,-8.7929,-8.7929,-8.793,-8.8045,-8.7168,-8.6415,-8.5436,-8.4109,-8.3314,-8.2465,-8.0645,-7.929,-7.827,-7.6467,-7.4922,-7.3839,-7.2951,-7.2506,-7.2297,-7.1946,-7.1361,-7.0648,-6.9557,-6.8471,-6.759,-6.6664,-6.566,-6.4612,-6.3298,-6.0134,-5.7101,-5.5491,-5.3474,-5.1477,-4.9708,-4.886,-4.8199,-4.7701,-4.7354,-4.6655,-4.5703,-4.5664,-4.5586,-4.5371,-4.3945,-4.2793,-4.2148,-4.0898,-3.9697,-3.867,-3.869,-3.8235,-3.7422,-3.7067,-3.6824,-3.6842,-3.7026,-3.7448,-3.8016,-3.7613,-3.7209,0.0,0.0,0.0,0.0,0.0,0.0,0.0,0.0,-6.6566,-6.8314,-7.1641,-7.5942,-8.0986,-8.5066,-8.9669,-9.6094,-9.8476,-10.054,-10.3251,-10.3765,-10.4,-10.4082,-10.3616,-10.3516,-10.3942,-10.1871,-10.1004,-10.2229,-10.2329,-10.2527,-10.3091,-10.3985,-10.4482,-10.4482,-10.4581,-10.4681,-10.4681,-10.4681,-10.4581,-10.4482,-10.3124,-10.2428,-10.2229,-10.0904,-9.9241,-9.7431,-9.6518,-9.4337,-9.1118,-8.887,-8.7929,-8.7929,-8.7929,-8.7554,-8.7031,-8.6681,-8.5754,-8.4778,-8.3658,-8.2662,-8.1843,-8.0185,-7.9114,-7.7968,-7.6485,-7.5006,-7.3892,-7.3291,-7.2716,-7.2122,-7.177,-7.1137,-7.0298,-6.9053,-6.8146,-6.7392,-6.6488,-6.576,-6.4598,-6.2127,-5.9829,-5.7247,-5.4478,-5.2372,-5.0798,-4.9887,-4.8913,-4.8301,-4.7721,-4.7181,-4.6658,-4.6308,-4.6308,-4.6269,-4.6191,-4.4824,-4.3594,-4.2734,-4.1973,-4.1035,-3.9637,-3.9618,-3.9306,-3.8365,-3.8365,-3.853,-3.8878,-3.8878,-3.9043,-3.9355,-3.9355,-3.919,-6.0945,-5.8621,-6.0382,-6.2585,-6.483,-6.8444,0.0,0.0,-7.7243,-7.9993,-8.4046,-8.7294,-8.7922,-9.1724,-9.5382,-9.7529,-9.9694,-10.1669,-10.333,-10.353,-10.3658,-10.3662,-10.3942,-10.3942,-10.3728,-10.2196,-10.1335,-10.1534,-10.1534,-10.16,-10.1633,-10.2991,-10.3687,-10.3687,-10.4383,-10.4681,-10.4681,-10.4681,-10.4383,-10.3687,-10.2925,-10.2196,-10.1501,-10.0705,-9.8645,-9.5502,-9.1932,-9.0079,-8.9437,-8.8416,-8.7929,-8.7929,-8.7929,-8.7409,-8.6505,-8.6505,-8.5754,-8.4778,-8.3658,-8.2311,-8.0792,-7.9333,-7.8049,-7.7044,-7.5612,-7.4493,-7.3892,-7.3291,-7.2716,-7.2122,-7.177,-7.0828,-6.9889,-6.9434,-6.812,-6.7041,-6.6915,-6.6036,-6.4598,-6.2127,-5.9829,-5.7383,-5.4939,-5.2584,-5.0798,-4.9887,-4.9025,-4.8164,-4.7762,-4.7007,-4.6308,-4.6308,-4.6308,-4.6152,-4.5781,-4.5215,-4.4492,-4.3613,-4.3125,-4.2333,-4.0925,-4.0906,-4.0602,-3.963,-3.963,-3.9667,-3.9703,-3.9703,-3.974,-3.9777,-3.9777,-3.974,-6.7724,-6.6586,-6.8495,-7.2863,-7.5971,-7.9117,-8.3718,-8.4616,-8.4786,-8.6096,-8.8787,-9.1305,-9.2184,-9.4586,-9.7056,0.0,-9.9847,-10.0972,-10.2659,-10.2457,-10.202,-10.2047,-10.161,-10.1539,-10.2262,-10.1401,-10.0805,-10.0805,-10.1202,-10.1401,-10.1401,-10.2395,-10.319,-10.3588,-10.3886,-10.4283,-10.4681,-10.4283,-10.3886,-10.3588,-10.2428,-10.1732,-10.1368,-9.9742,-9.7139,-9.3996,-9.0714,-8.9297,-8.9297,-8.8274,-8.7929,-8.7929,-8.7554,-8.7031,-8.6505,-8.6505,-8.5379,-8.3975,-8.3546,-8.2088,-8.0147,-7.9046,-7.7655,-7.6439,-7.5326,-7.4493,-7.3892,-7.3291,-7.2951,-7.2513,-7.1495,-7.0857,-7.0247,-6.9232,-6.8197,-6.7367,-6.7041,-6.6338,-6.4629,-6.094,-5.9366,-5.7395,-5.3673,-5.1965,-5.0833,-4.9908,-4.9054,-4.8305,-4.7754,-4.6815,-4.6308,-4.6308,-4.6308,-4.623,-4.6055,-4.541,-4.4863,-4.4492,-4.3662,-4.2721,-4.1872,-4.1523,-4.1192,-4.0547,-4.0547,-4.0547,-4.0547,-4.0547,-4.0547,-4.0547,-4.0547,-4.0547,-7.1615,-7.3046,-7.6387,-8.1351,-8.5471,-8.8826,-9.0695,-9.1117,-9.1136,-9.1159,-9.228,-9.3639,-9.4552,-9.5953,-9.7552,-9.9121,-9.9632,-10.0409,-10.1855,-10.1152,-10.0418,-9.9918,-9.8952,-9.8784,-9.9811,-9.9977,-10.001,-10.001,-10.0705,-10.1103,-10.1103,-10.1832,-10.2527,-10.3289,-10.3488,-10.3886,-10.4383,-10.3886,-10.3389,-10.2991,-10.1898,-10.1025,-10.0309,-9.7834,-9.5167,-9.2765,-9.0383,-8.9297,-8.9098,-8.8274,-8.7929,-8.7929,-8.738,-8.6742,-8.6277,-8.6072,-8.4891,-8.3258,-8.3089,-8.1606,-7.9466,-7.8788,-7.7315,-7.5761,-7.5066,-7.4362,-7.3709,-7.3421,-7.3134,-7.2643,-7.1345,-7.0987,-7.0554,-6.8927,-6.8196,-6.7643,-6.7091,-6.6513,-6.4704,-5.9937,-5.9024,-5.7466,-5.2659,-5.1429,-5.0841,-4.9989,-4.9066,-4.8153,-4.7661,-4.7012,-4.6426,-4.6308,-4.6308,-4.6308,-4.6308,-4.5742,-4.5332,-4.5044,-4.3987,-4.3189,-4.2405,-4.1938,-4.1546,-4.106,-4.106,-4.106,-4.106,-4.106,-4.106,-4.106,-4.106,-4.106,-7.0146,-7.5909,-8.2634,-8.5764,-9.11,-9.6167,-9.8052,-9.7491,-9.645,-9.6208,-9.5853,-9.5499,-9.4823,-9.6236,-9.7707,-9.8515,-9.957,-10.0351,-10.0952,-10.0285,-9.9153,-9.736,-9.6565,-9.6134,-9.6167,-9.8088,-9.9314,-9.9314,-9.9944,-10.0308,-10.0308,-10.1037,-10.1799,-10.2527,-10.319,-10.3588,-10.3588,-10.3588,-10.2892,-10.1501,-10.1434,-10.0276,-9.793,-9.4739,-9.2894,-9.2254,-9.0216,-8.9128,-8.8616,-8.8101,-8.7929,-8.7929,-8.738,-8.6483,-8.562,-8.5067,-8.4319,-8.3202,-8.2555,-8.0692,-7.861,-7.861,-7.6957,-7.4911,-7.4911,-7.4075,-7.3264,-7.3813,-7.3186,-7.2278,-7.1731,-7.1269,-7.0554,-6.8927,-6.8196,-6.7643,-6.7091,-6.6513,-6.4704,-5.9937,-5.9024,-5.7466,-5.2659,-5.1429,-5.0864,-5.0297,-4.9192,-4.8117,-4.7701,-4.7091,-4.6758,-4.6348,-4.6308,-4.6308,-4.6308,-4.6289,-4.5919,-4.4991,-4.453,-4.3747,-4.2329,-4.1919,-4.1546,-4.106,-4.106,-4.106,-4.106,-4.106,-4.106,-4.106,-4.106,-4.106,-7.6974,-8.2847,-8.894,-9.3747,-9.7582,-10.0494,-10.1298,-10.0577,-9.9127,-9.6918,-9.4317,-9.2014,-9.0471,-9.104,-9.2069,-9.354,-9.6472,-9.8885,-9.9717,-9.9252,-9.7758,-9.5206,-9.5107,-9.4676,-9.3219,-9.5505,0.0,-9.9182,-9.948,-9.9811,-10.0308,-10.0507,-10.1004,-10.1732,-10.2031,-10.2395,-10.2892,-10.2395,-10.1898,-10.1434,-9.9831,-9.7511,-9.4739,-9.3527,-9.2285,-9.0714,-8.9774,-8.9098,-8.8616,-8.8101,-8.7756,-8.7351,-8.6397,-8.5762,-8.4953,-8.358,-8.2982,-8.2611,-8.2387,-8.0692,-7.861,-7.861,-7.669,-7.431,-7.431,-7.3735,-7.316,-7.3343,-7.3134,-7.2696,-7.1833,-7.1295,-7.0554,-6.8927,-6.8196,-6.7643,-6.7091,-6.6513,-6.4803,-6.0333,-5.9231,-5.7379,-5.2491,-5.1067,-5.0337,-4.942,-4.8724,-4.7915,-4.7189,-4.6933,-4.6875,-4.6738,-4.6465,-4.6308,-4.6308,-4.6055,-4.5647,-4.4991,-4.4205,-4.3557,-4.2739,-4.2007,-4.1634,-4.1482,-4.1207,-4.106,-4.106,-4.106,-4.106,-4.106,-4.106,-4.106,-8.4242,-9.0005,-9.5217,-9.9983,-10.2558,-10.381,-10.3207,-10.2007,-10.0012,-9.6745,-9.2493,-8.8799,-8.6711,-8.5363,-8.5806,-8.9751,-9.2671,-9.5522,-9.8322,-9.8122,-9.653,-9.3716,-9.3583,-9.3252,-9.2093,-9.3451,-9.5438,-9.7923,-9.8817,-9.948,-9.991,-10.0209,-10.0639,-10.1401,-10.1401,-10.1501,-10.1732,-10.1534,-10.0892,-9.9709,-9.7124,-9.4694,-9.2376,-9.1827,-9.0726,-8.9092,-8.859,-8.8084,-8.7603,-8.7432,-8.6889,-8.6486,-8.5565,-8.4758,-8.4098,-8.2785,-8.1989,-8.1445,-8.1445,-8.0147,-7.861,-7.8227,-7.6199,-7.3996,-7.3996,-7.3447,-7.2846,-7.3055,-7.28,-7.2519,-7.1833,-7.1116,-7.0375,-6.8927,-6.8196,-6.7643,-6.7091,-6.6513,-6.4852,-6.0543,-5.9484,-5.7626,-5.2536,-5.0802,-4.9728,-4.8836,-4.8379,-4.7949,-4.7246,-4.7031,-4.6875,-4.6719,-4.6465,-4.6308,-4.6308,-4.6055,-4.5725,-4.5028,-4.4261,-4.3496,-4.2994,-4.2278,-4.1904,-4.1904,-4.1629,-4.1427,-4.128,-4.128,-4.1207,-4.106,-4.1207,-4.1207,-9.151,-9.7052,-10.145,-10.4216,-10.597,-10.6507,-10.4168,-10.1984,-9.9463,-9.5908,-9.0509,-8.5763,-8.3389,-7.9768,-7.9559,-8.7027,-8.8714,-9.1092,-9.6788,-9.6988,-9.5594,-9.302,-9.2159,-9.1993,-9.2623,-9.2126,-9.2954,-9.5803,0.0,-9.9182,-9.9314,-9.991,-10.0606,-10.1335,-10.1302,-10.1004,-10.0308,-10.0766,-9.9643,-9.6621,-9.3521,-9.1698,-9.0927,-8.9588,-8.841,-8.7322,-8.6853,-8.635,-8.6042,-8.6042,-8.5674,-8.5134,-8.4734,-8.3848,-8.2849,-8.2447,-8.1362,-7.9991,-7.9991,-7.929,-7.8432,-7.7511,-7.5841,-7.3996,-7.3996,-7.3212,-7.2428,-7.2951,-7.2362,-7.1546,-7.1731,-7.0936,-7.0018,-6.8927,-6.8196,-6.7643,-6.6916,-6.634,-6.4679,-6.0365,-5.9311,-5.7536,-5.2536,-5.0415,-4.9262,-4.8301,-4.8203,-4.8027,-4.7637,-4.7207,-4.6777,-4.6367,-4.6308,-4.6308,-4.6308,-4.6308,-4.5958,-4.4902,-4.4504,-4.3946,-4.2894,-4.2509,-4.2307,-4.2307,-4.2289,-4.2087,-4.1721,-4.1721,-4.1519,-4.1134,-4.1537,-4.15,-9.6832,-10.2889,-10.7404,-10.6988,-10.8391,-10.8819,-10.5072,-10.2573,-9.9626,-9.4268,-8.6089,-7.9128,-7.6544,-7.5699,-7.711,-8.2402,-8.8495,-9.3644,-9.6796,-9.7061,-9.6132,-9.3782,-9.3848,-9.3683,-9.2788,-9.3517,-9.461,0.0,-9.6532,-9.779,-9.9944,-9.9712,-9.9877,-10.0606,-10.0109,-9.9745,-9.9546,-9.7954,-9.6233,-9.4259,-9.2346,-9.0642,-8.9279,-8.865,-8.7965,-8.7322,-8.6853,-8.635,-8.6042,-8.5674,-8.5134,-8.4734,-8.3762,-8.2962,-8.2419,-8.1797,-8.0999,-7.9817,-7.9114,-7.8405,-7.7511,-7.7331,-7.5841,-7.3996,-7.3996,-7.3212,-7.2428,-7.2951,-7.2362,-7.1546,-7.1731,-7.0936,-7.0018,-6.8927,-6.8196,-6.7266,-6.5257,-6.4318,-6.268,-5.8231,-5.5205,-5.2578,-5.0945,-4.9847,-4.9012,-4.8711,-4.8144,-4.7695,-4.7598,-4.7207,-4.6894,-4.6777,-4.6484,-4.6308,-4.6308,-4.5958,-4.5607,-4.4902,-4.4454,-4.4025,-4.3334,-4.2931,-4.2711,-4.2711,-4.2417,-4.2234,-4.2124,-4.2124,-4.2069,-4.1977,-4.2069,-4.2069,-10.3109,-10.7697,-11.0707,-10.9335,-10.8961,-10.7398,-10.0887,-9.7617,-9.3652,-8.5401,-7.7658,-7.1679,-6.9557,-6.9615,-7.2228,-7.902,-8.5845,-9.1878,-9.6694,-9.706,-9.6265,-9.4908,-9.4842,-9.4577,-9.3749,-9.4113,-9.5107,-9.683,-9.6962,-9.7658,-9.9281,-9.9314,-9.9314,-9.938,-9.9314,-9.8976,-9.8191,-9.4939,-9.2794,-9.1931,-9.0311,-8.8994,-8.7826,-8.7446,-8.7061,-8.6467,0.0,-8.5338,-8.5171,-8.4667,-8.416,-8.3763,-8.2909,-8.2253,-8.1853,-8.0999,-8.0166,-7.929,-7.8227,-7.7331,-7.6581,-7.6343,-7.527,-7.397,-7.3683,-7.3003,-7.2376,-7.2487,-7.1827,-7.1292,-7.109,-7.0399,-6.966,-6.8748,-6.8196,-6.7089,-6.4699,-6.3586,-6.1794,-5.7321,-5.357,-5.1162,-5.035,-4.9539,-4.8867,-4.8867,-4.8281,-4.7851,-4.7851,-4.7148,-4.666,-4.666,-4.6445,-4.6308,-4.6308,-4.5958,-4.5431,-4.4902,-4.437,-4.4015,-4.3499,-4.3261,-4.3151,-4.3151,-4.2931,-4.2729,-4.2527,-4.2527,-4.2454,-4.2289,-4.2454,-4.2436,-10.9202,-11.1515,-11.2416,-11.1247,-10.8911,-10.4472,-9.5187,-9.0587,-8.5216,-7.4172,-6.798,-6.4343,-6.3396,-6.3631,-6.7267,-7.7179,-8.2795,-8.8594,-9.6488,-9.6854,-9.6292,-9.6134,-9.5505,-9.5041,-9.5041,-9.4544,-9.5339,-9.7989,-9.8188,-9.8221,-9.832,-9.8751,-9.8751,-9.8188,-9.8649,-9.8198,-9.6841,-9.2294,-8.9975,-8.9882,-8.8292,-8.7257,-8.653,-8.6321,-8.5936,-8.5214,-8.4427,0.0,-8.3932,-8.3433,-8.3127,-8.2623,-8.2256,-8.1745,-8.1232,-8.034,-7.9466,-7.8432,-7.7511,-7.6608,-7.5617,-7.5094,-7.4493,-7.3892,-7.3291,-7.2742,-7.2122,-7.177,-7.124,-7.0681,-7.0324,-6.9736,-6.9225,-6.8748,-6.7968,-6.6636,-6.4318,-6.2802,-6.0604,-5.6382,-5.3364,-5.1276,-5.0504,-4.9511,-4.8867,-4.8867,-4.8476,-4.8203,-4.8203,-4.7129,-4.6387,-4.6387,-4.6328,-4.6308,-4.6133,-4.5783,-4.5255,-4.4902,-4.437,-4.3837,-4.3499,-4.3499,-4.3499,-4.3499,-4.3499,-4.3316,-4.2949,-4.2949,-4.2766,-4.2454,-4.2784,-4.2766,-11.1992,-11.3462,-11.3737,-11.2181,-10.9556,-10.484,-9.5485,-8.8593,-8.1262,-7.1226,-6.3863,-5.9742,-6.14,-6.3559,-6.8294,-7.8417,-8.4077,-8.9607,-9.6265,-9.6066,-9.5668,-9.6763,-9.6266,-9.5803,-9.5803,-9.6233,-9.6995,-9.8088,-9.8188,-9.8453,-9.9049,-9.8055,-9.7691,-9.8155,-9.6932,-9.6236,-9.5922,-9.2043,-8.9759,-8.9205,-8.7598,-8.6649,-8.624,-8.5847,-8.5361,-8.4947,-8.4262,0.0,-8.3433,-8.3127,-8.2623,-8.2086,-8.1745,-8.1403,-8.1232,-8.034,-7.9466,-7.8432,-7.7511,-7.6608,-7.5617,-7.5094,-7.4493,-7.3892,-7.3291,-7.2362,-7.177,-7.1594,-7.1037,-7.0324,-7.0145,-6.9458,-6.8748,-6.8648,-6.6552,-6.4139,-6.2216,-5.8167,-5.4611,-5.382,-5.1832,-5.0337,-5.0258,-4.9511,-4.8867,-4.8867,-4.8476,-4.8203,-4.8203,-4.7402,-4.6816,-4.6816,-4.6504,-4.6133,-4.5783,-4.5255,-4.4902,-4.437,-4.3837,-4.3499,-4.3499,-4.3499,-4.3499,-4.3499,-4.3499,-4.3463,-4.3389,-4.3389,-4.3353,-4.3279,-4.3353,-4.3156,-11.3279,-11.3729,-11.3176,-11.2482,-10.8025,-10.1006,-8.98,-8.2114,-7.3767,-6.1456,-5.5826,-5.3618,-5.5103,-5.8748,-6.3902,-7.0937,-7.6269,-8.2266,-9.0271,-9.0502,-9.1463,-9.6001,-9.6233,-9.6001,-9.6001,-9.6664,-9.7426,-9.8122,-9.8188,-9.832,-9.8685,-9.7327,-9.6565,-9.6381,-9.4787,-9.3577,-9.2847,-9.019,-8.8552,-8.7854,-8.6817,-8.624,-8.608,-8.5435,-8.4947,-8.4784,-8.4262,0.0,-8.3433,-8.296,-8.2454,-8.2086,-8.1575,-8.1403,-8.1232,-7.9817,-7.8965,-7.8432,-7.697,-7.6061,-7.5617,-7.5094,-7.4493,-7.3892,-7.3291,-7.2362,-7.1594,-7.1214,-7.0681,-7.0145,-6.9812,-6.9203,-6.8547,-6.8271,-6.5121,-6.1772,-6.0684,-5.666,-5.3162,-5.2559,-5.1589,-5.0774,-4.9964,-4.9522,-4.9121,-4.8887,-4.8672,-4.8535,-4.8535,-4.7988,-4.7519,-4.7285,-4.6875,-4.6445,-4.5915,-4.5369,-4.4725,-4.4193,-4.3856,-4.3499,-4.3499,-4.3499,-4.3499,-4.3499,-4.3499,-4.3499,-4.3499,-4.3499,-4.3499,-4.3499,-4.3499,-4.3303,-11.3608,-11.3416,-11.229,-11.2104,-10.5981,-9.6723,-8.4105,-7.5685,-6.6592,-5.27,-4.8894,-4.8433,-4.9614,-5.3636,-5.8452,-6.3781,-6.8294,-7.4637,-8.454,-8.56,-8.7985,-9.514,-9.6001,-9.6001,-9.6001,-9.6797,-9.7558,-9.8122,-9.8188,-9.8088,-9.7956,-9.6433,-9.5304,-9.4863,-9.281,-9.1188,-9.0159,-8.8571,-8.7347,-8.6689,-8.6211,-8.608,-8.592,-8.511,-8.4784,-8.462,-8.4097,-8.3766,0.0,-8.2791,-8.2454,-8.1916,-8.1575,-8.1232,-8.0859,-7.929,-7.8432,-7.8049,-7.6244,-7.5721,-7.5643,-7.5225,-7.4676,-7.4101,-7.3295,-7.2367,-7.1598,-7.1039,-7.0426,-6.9966,-6.9451,-6.8949,-6.8093,-6.6483,-6.3088,-5.9931,-5.8675,-5.5932,-5.3275,-5.1956,-5.1626,-5.1158,-4.9922,-4.9648,-4.9414,-4.9062,-4.8926,-4.8867,-4.8867,-4.8555,-4.8223,-4.7891,-4.7204,-4.6714,-4.6178,-4.5516,-4.4811,-4.4275,-4.3917,-4.3756,-4.3756,-4.3756,-4.3756,-4.3756,-4.3756,-4.3756,-4.3756,-4.3664,-4.3664,-4.3756,-4.3664,-4.3306,-11.291,-11.3072,-11.1612,-11.1014,-10.4364,-9.4799,-8.2685,-7.2863,-6.2933,-5.1358,-4.7188,-4.6522,-4.9248,-5.1229,-5.5108,-6.34,0.0,-7.2344,-8.3579,-8.5699,-8.8548,-9.5206,-9.6001,-9.6001,-9.6001,-9.726,-9.8088,-9.8155,-9.8188,-9.789,-9.7227,-9.5132,-9.4149,-9.4691,-9.1784,-9.0189,-9.0159,-8.8571,-8.7347,-8.6689,-8.6211,-8.589,-8.5376,-8.4947,-8.462,-8.4097,-8.36,-8.3266,0.0,-8.2454,-8.1916,-8.1403,-8.1403,-8.0859,-7.9991,-7.8965,-7.8049,-7.7151,-7.6088,-7.5721,-7.5695,-7.5669,-7.5277,-7.4702,-7.3561,-7.2631,-7.1628,-7.1087,-7.019,-6.9451,-6.9451,-6.8673,-6.6661,-6.2133,-6.0544,-5.9202,-5.522,-5.374,-5.2972,-5.2335,-5.144,-5.0781,-5.0703,-5.0039,-4.9512,-4.9473,-4.9121,-4.8867,-4.8867,-4.8828,-4.8789,-4.875,-4.7625,-4.66,-4.6238,-4.5675,-4.5111,-4.4746,-4.4563,-4.4563,-4.4563,-4.4563,-4.4563,-4.4563,-4.4563,-4.4563,-4.4563,-4.4196,-4.4215,-4.4563,-4.4196,-4.3669,-11.0829,-11.1509,-11.0042,-10.9488,-10.257,-9.2801,-8.1159,-7.1148,-6.1042,-4.9776,-4.5891,-4.5109,-4.7087,-4.7892,-5.0259,0.0,0.0,0.0,-7.3011,-7.5595,-7.9902,-8.9608,-9.1894,-9.3583,-9.5803,-9.6929,-9.789,-9.8784,-9.7508,-9.667,-9.6408,-9.4579,-9.3369,-9.2606,-9.0595,-8.8992,-8.8092,-8.7365,-8.6798,-8.637,-8.589,-8.5406,-8.5081,-8.4591,-8.4262,-8.4097,-8.36,-8.3127,0.0,-8.2256,-8.1745,-8.1403,-8.0686,-8.034,-7.9817,-7.8227,-7.7511,-7.697,-7.6061,-7.5721,-7.5721,-7.5721,-7.5381,-7.4754,-7.3975,-7.2785,-7.1525,-7.1164,-7.0241,-6.9451,-6.9451,-6.8622,-6.6763,-6.2909,-6.1195,-5.9385,-5.5744,-5.391,-5.28,-5.1814,-5.1483,-5.1094,-5.0859,-5.0527,-5.0215,-4.9961,-4.9551,-4.9258,-4.9258,-4.9023,-4.8867,-4.8497,-4.7771,-4.704,-4.6492,-4.5901,-4.5203,-4.4673,-4.4673,-4.4673,-4.4673,-4.4673,-4.4673,-4.4673,-4.4673,-4.4673,-4.4673,-4.4508,-4.4508,-4.4673,-4.4142,-4.3794,-10.7417,-10.9049,-10.7872,-10.7353,-9.9685,-8.9635,-7.9059,-6.8724,-5.8504,-4.8442,-4.5076,-4.4197,-4.5136,-4.5379,-4.6709,0.0,0.0,-5.562,-6.5293,-6.8672,-7.3674,-8.3361,-8.6778,-8.973,-9.3213,-9.5836,-9.7789,-9.8571,-9.6916,-9.5587,-9.5161,-9.3274,-9.1794,-9.0601,-8.9172,-8.7854,-8.6689,-8.6689,-8.653,-8.608,-8.5568,-8.5244,-8.4784,-8.4262,-8.4097,-8.3932,-8.3433,-8.2931,0.0,-8.2086,-8.1745,-8.1403,-8.034,-7.9817,-7.9466,-7.787,-7.697,-7.6608,-7.5905,-7.5721,-7.5721,-7.5721,-7.5354,-7.4907,-7.4128,-7.2887,-7.1599,-7.1236,-7.016,-6.9376,-6.9049,-6.8015,-6.6207,-6.3111,-6.0655,-5.8491,-5.5744,-5.389,-5.2394,-5.162,-5.1426,-5.1348,-5.1035,-5.0879,-5.0703,-5.041,-4.9883,-4.9531,-4.9531,-4.8955,-4.8497,-4.8127,-4.7673,-4.7113,-4.6743,-4.5926,-4.5391,-4.504,-4.5021,-4.5021,-4.5021,-4.5021,-4.5021,-4.5021,-4.5021,-4.5021,-4.5021,-4.4911,-4.4911,-4.5021,-4.4358,-4.3748,-10.2703,-10.5417,-10.5074,-10.4625,-9.564,-8.4843,-7.6328,-6.5177,-5.4623,-4.7588,-4.493,-4.3839,-4.3661,-4.4224,-4.5417,-4.7669,0.0,0.0,-6.3471,-6.8142,-7.2646,-7.7333,-8.1167,-8.4451,-8.7445,-9.4042,-9.7879,-9.6939,-9.6181,0.0,-9.3564,-9.0638,-8.902,-8.902,-8.7573,-8.6689,-8.6689,-8.6689,-8.653,-8.608,-8.5568,-8.5244,-8.4784,-8.4262,-8.3932,-8.3433,-8.296,-8.2623,0.0,-8.1575,-8.1403,-8.1403,-8.034,-7.9466,-7.8432,-7.7511,-7.6608,-7.5721,-7.5721,-7.5721,-7.5721,-7.5721,-7.5354,-7.4722,-7.376,-7.2619,-7.1636,-7.1268,-7.028,-6.92,-6.8095,-6.6324,-6.4163,-6.109,-5.8491,-5.612,-5.3548,-5.2587,-5.2008,-5.1426,-5.1426,-5.1426,-5.1426,-5.1074,-5.0801,-5.0801,-5.0078,-4.9531,-4.9531,-4.8769,-4.8146,-4.8127,-4.7196,-4.6616,-4.6616,-4.6259,-4.5883,-4.5883,-4.5883,-4.5883,-4.5883,-4.5883,-4.5883,-4.5883,-4.5883,-4.5883,-4.5883,-4.548,-4.5498,-4.5865,-4.4901,-4.3973,-8.8688,-9.1461,-9.15,-8.9764,-8.4547,-7.7846,-7.0063,-6.2051,-5.4272,-4.7491,-4.4837,-4.3853,-4.4257,-4.4125,-4.6146,-5.2837,-5.4692,0.0,-6.4167,-6.844,-7.215,-7.5665,-8.3693,-9.0095,0.0,0.0,-9.7019,-9.6052,-9.441,-9.3026,-9.1913,-8.9019,-8.7854,-8.902,-8.7573,-8.6689,-8.6689,-8.637,-8.605,-8.5568,-8.5244,-8.4755,-8.4262,-8.4097,-8.3766,-8.3433,-8.296,-8.2454,0.0,-8.1575,-8.1059,-8.034,-7.9466,-7.8405,-7.7511,-7.6608,-7.5878,-7.5721,-7.5721,-7.5721,-7.5721,-7.5354,-7.48,-7.4326,-7.3206,-7.2461,-7.1484,-7.0361,-6.9702,-6.8814,-6.6391,-6.5378,-6.3619,-5.8898,-5.7219,-5.5932,-5.3144,-5.2394,-5.2008,-5.1426,-5.1426,-5.1426,-5.1426,-5.1328,-5.123,-5.123,-5.0762,-5.0391,-5.0391,-4.9389,-4.8382,-4.8006,-4.7178,-4.6635,-4.6635,-4.6259,-4.5883,-4.5883,-4.5883,-4.5883,-4.5883,-4.5883,-4.5883,-4.5883,-4.5883,-4.5883,-4.5883,-4.5773,-4.5397,-4.4939,-4.4625,-4.3814,-7.8828,-8.2512,-8.3355,-8.1831,-7.734,-7.1816,-6.6152,-5.8997,-5.2094,-4.7032,-4.4716,-4.3761,-4.4191,-4.4158,-4.5914,-5.1645,-5.4063,-5.6746,-6.1119,-6.6055,-7.1057,-7.603,-8.3593,0.0,0.0,-9.6035,-9.6391,-9.46,-9.3178,-9.1674,-8.9935,-8.7863,-8.7012,-8.7798,-8.7139,-8.6689,-8.6689,-8.6211,-8.589,-8.5376,-8.4918,-8.462,-8.4097,-8.3932,-8.36,-8.3127,-8.2791,-8.2256,0.0,-8.0951,-8.0291,-7.9789,-7.8095,-7.7288,-7.7124,-7.5851,-7.5538,-7.5695,-7.5486,-7.5408,-7.5382,-7.4598,-7.3658,-7.2849,-7.1965,-7.1611,-7.0947,-6.9702,-6.8883,-6.7676,-6.5464,-6.3698,-6.158,-5.7623,-5.5932,-5.482,-5.2567,-5.2008,-5.1814,-5.1426,-5.1426,-5.1426,-5.1426,-5.1426,-5.1426,-5.1426,-5.1074,-5.0801,-5.0609,-4.9435,-4.8424,-4.8045,-4.7101,-4.6481,-4.6481,-4.6164,-4.5883,-4.5883,-4.5883,-4.5883,-4.5883,-4.5883,-4.5883,-4.5883,-4.5883,-4.5883,-4.5883,-4.5695,-4.5129,-4.4388,-4.4198,-4.3626,0.0,-7.6893,-7.8553,-7.8285,-7.2456,-6.6085,-6.3501,-5.5862,0.0,-4.6308,-4.4655,-4.3661,-4.3761,-4.4257,-4.5086,-4.6311,-5.1214,-5.5189,-5.5984,-6.2444,-7.0192,-7.8736,-8.2123,0.0,-9.1735,-9.5137,-9.5585,-9.2519,-9.2163,0.0,-8.7776,-8.6988,-8.6299,-8.5641,-8.621,-8.6539,-8.6539,-8.6121,-8.564,-8.5229,-8.4859,-8.4368,-8.401,-8.3542,-8.307,0.0,-8.2284,0.0,0.0,-7.9674,-7.9439,-7.9476,-7.6579,-7.6139,-7.6917,-7.5457,-7.5251,-7.5643,-7.5094,-7.4911,-7.4625,-7.3457,-7.2166,-7.0801,-7.0437,-7.0229,-7.0104,-6.9396,-6.7898,-6.6111,-6.4895,-6.1623,-5.8373,-5.6897,-5.4652,-5.28,-5.2201,-5.1814,-5.1426,-5.1426,-5.1426,-5.1426,-5.1426,-5.1426,-5.1426,-5.1426,-5.1094,-5.0647,-5.005,-4.9301,-4.8479,-4.7902,-4.7147,-4.6525,-4.6525,-4.614,-4.5883,-4.5883,-4.5883,-4.5883,-4.5883,-4.5883,-4.5883,-4.5883,-4.5883,-4.5883,-4.5883,-4.5318,-4.4939,-4.4388,-4.3817,-4.3244,-5.706,0.0,-6.3438,-6.1638,-5.952,-5.7315,0.0,-5.1256,-4.7867,-4.6146,-4.4655,-4.3959,-4.5086,-4.4953,-4.6576,-5.2373,-5.6349,-5.9164,-6.0456,-6.7413,-7.6063,-8.613,-8.8656,-9.1213,-9.5089,-9.4847,-9.3863,-9.2488,-9.072,-8.8961,-8.7057,-8.6299,-8.5611,-8.4953,-8.5103,-8.5006,-8.4693,-8.4723,-8.4403,-8.3423,-8.3494,-8.3564,-8.34,-8.2907,-8.2668,-8.2791,-8.2284,0.0,-8.0729,-7.9979,-7.9229,-7.8026,-7.6698,-7.6153,-7.6009,-7.5094,-7.5251,-7.5643,-7.5094,-7.4729,-7.4079,-7.2547,-7.1439,-7.0437,-7.0255,-6.9978,-6.9239,-6.758,-6.648,-6.5079,-6.1246,-5.9318,-5.7603,-5.4606,-5.3357,-5.28,-5.1814,-5.1426,-5.1426,-5.1426,-5.1426,-5.1426,-5.1426,-5.1426,-5.1426,-5.1426,-5.1348,-5.1095,-5.0512,-4.974,-4.8912,-4.8349,-4.7591,-4.6965,-4.6965,-4.6305,-4.5883,-4.5883,-4.5883,-4.5883,-4.5883,-4.5883,-4.5883,-4.5883,-4.5883,-4.5883,-4.5883,-4.5318,-4.4939,-4.4388,-4.3817,-4.3244,-5.0992,-5.4323,-5.7419,-5.599,-5.5202,-5.4322,-5.242,-4.9625,-4.7073,-4.5582,-4.439,-4.3959,-4.5086,-4.5516,-4.7106,-5.1446,-5.5421,-6.0158,-6.632,-7.228,-7.9528,-8.9021,-9.1147,-9.2722,0.0,-9.4078,-9.2467,0.0,0.0,-8.7371,-8.5918,-8.5432,-8.4953,-8.4295,-8.411,-8.3949,-8.409,-8.3973,-8.3655,-8.2824,-8.2721,-8.257,-8.2407,-8.1886,-8.1757,-8.1572,-8.1068,0.0,-7.9349,-7.8549,-7.7645,-7.6902,-7.5039,-7.4901,-7.5251,-7.4388,-7.4441,-7.4859,-7.4284,-7.3379,-7.2554,-7.1342,-7.0493,-6.9828,-6.9577,-6.8908,-6.7739,-6.6794,-6.5628,-6.3759,-6.0238,-5.8083,-5.6293,-5.3975,-5.294,-5.2414,-5.162,-5.1426,-5.1426,-5.1426,-5.1426,-5.1426,-5.1426,-5.1426,-5.1426,-5.1426,-5.1231,-5.0842,-5.047,-4.9674,-4.8937,-4.8564,-4.7802,-4.7369,-4.7369,-4.68,-4.636,-4.6177,-4.5993,-4.5883,-4.5883,-4.5883,-4.5883,-4.5883,-4.5883,-4.5695,-4.5506,-4.4939,-4.456,-4.4008,-4.3435,-4.3053,-4.999,-5.3174,-5.6197,-5.5162,-5.4689,-5.3984,-5.2146,-4.9226,-4.6543,-4.5284,-4.4456,-4.4291,-4.5351,-4.6643,-4.8067,-4.9591,-5.4328,-6.1815,-7.331,-7.7366,-8.209,-9.0294,-9.1977,0.0,-9.3573,0.0,0.0,0.0,0.0,-8.6092,-8.4564,-8.4564,-8.4265,-8.3606,-8.3116,-8.3229,-8.3637,-8.3441,-8.2967,-8.2372,-8.2168,-8.1742,-8.1417,-8.0898,-8.0462,-8.0188,0.0,0.0,-7.7975,-7.6539,-7.6054,-7.5872,-7.333,-7.3395,-7.465,-7.3526,-7.3474,-7.3918,-7.3139,-7.2034,-7.0681,-7.0044,-6.966,-6.9225,-6.8673,-6.7332,-6.6159,-6.5789,-6.425,-6.2031,-5.948,-5.6925,-5.4606,-5.3851,-5.2867,-5.2008,-5.1426,-5.1426,-5.1426,-5.1426,-5.1426,-5.1426,-5.1426,-5.1426,-5.1426,-5.1426,-5.1037,-5.047,-4.9882,-4.9489,-4.8879,-4.8286,-4.7992,-4.7791,-4.7791,-4.7424,-4.7039,-4.669,-4.6232,-4.5957,-4.5883,-4.5883,-4.5883,-4.5883,-4.5883,-4.5695,-4.5129,-4.456,-4.4198,-4.3626,-4.3053,-4.2861,-5.1527,-5.4061,-5.5095,-5.1292,-5.1622,-5.208,-4.9293,-4.7736,-4.6841,-4.6609,-4.598,-4.6245,-4.8895,-5.0055,-5.2274,-5.7342,-6.3471,-7.1289,0.0,0.0,-8.6612,-9.3764,0.0,-9.4122,0.0,0.0,0.0,0.0,0.0,-8.4753,-8.3906,-8.3876,-8.3576,-8.2948,-8.2431,-8.2184,-8.1964,-8.2056,-8.1583,-8.0743,-8.0788,-8.0887,-8.0726,-7.9943,-7.9734,-8.0188,0.0,-7.8737,-7.7422,-7.6811,-7.5947,-7.4578,-7.3435,-7.3447,-7.4049,-7.3369,-7.3474,-7.3739,-7.245,-7.1167,-7.0069,-6.9078,-6.8748,-6.8648,-6.8095,-6.6675,-6.4689,-6.299,-6.1126,-5.8955,-5.6441,-5.4849,-5.3944,-5.3306,-5.2647,-5.2008,-5.1426,-5.1426,-5.1426,-5.1426,-5.1426,-5.1426,-5.1426,-5.1426,-5.1426,-5.1426,-5.1037,-5.047,-4.9882,-4.9489,-4.8879,-4.8286,-4.8231,-4.8194,-4.8194,-4.7827,-4.7571,-4.7516,-4.68,-4.6232,-4.5902,-4.5883,-4.5883,-4.5883,-4.5883,-4.5695,-4.5129,-4.456,-4.4198,-4.3626,-4.3053,-4.2861,-4.9759,-5.2018,-5.3811,-5.2981,-5.4336,-5.5024,-5.1678,-5.0386,-4.9525,-4.8332,-4.7835,-4.8133,-4.9889,-5.3036,-5.7972,-6.5823,-7.0593,-7.6059,-8.401,-8.6247,-8.9121,0.0,0.0,0.0,0.0,0.0,0.0,0.0,0.0,0.0,-8.3247,-8.3217,-8.2915,-8.2465,-8.1976,-8.1514,-8.1204,-8.1058,-8.0743,-8.0294,-8.0108,-7.9903,-7.9743,-7.9153,-7.8806,-7.8867,0.0,-7.7538,-7.6114,-7.5878,-7.4981,-7.3611,-7.297,-7.3029,-7.3447,-7.2519,-7.2492,-7.2471,-7.1013,-7.0095,-6.9613,-6.8524,-6.817,-6.7893,-6.6232,-6.4596,-6.264,-6.0059,-5.9185,-5.8231,-5.5773,-5.4454,-5.3548,-5.3141,-5.2379,-5.162,-5.1426,-5.1426,-5.1426,-5.1426,-5.1426,-5.1426,-5.1426,-5.1426,-5.1426,-5.1426,-5.0646,-5.0274,-4.9882,-4.9095,-4.8484,-4.8286,-4.8286,-4.8286,-4.8286,-4.8121,-4.7736,-4.7075,-4.669,-4.6305,-4.5902,-4.5883,-4.5883,-4.5883,-4.5695,-4.5129,-4.475,-4.4198,-4.3626,-4.3244,-4.2861,-4.2861,-4.9293,-5.0916,-5.2937,-5.5289,-5.7011,-5.7806,-5.6514,-5.5156,-5.393,-5.3102,-5.2373,-5.2108,-5.2672,-5.7806,0.0,-7.2548,-7.6689,-8.0697,-8.5898,-8.8184,-9.0519,-9.4124,-9.3882,0.0,0.0,0.0,0.0,0.0,0.0,0.0,-8.2798,-8.2619,-8.2226,-8.1922,-8.1314,-8.0764,-8.0454,-8.0016,-8.0004,-8.0294,-7.9791,-7.9312,-7.902,-7.8536,-7.8049,-7.7694,-7.753,-7.6512,-7.5028,-7.4832,-7.3901,-7.2872,-7.2454,-7.2559,-7.2872,-7.19,-7.1594,-7.1137,-6.9866,-6.9156,-6.903,-6.7995,-6.7618,-6.7141,-6.4732,-6.2831,-6.0935,-5.8159,-5.7575,-5.7208,-5.5344,-5.4147,-5.3301,-5.2892,-5.205,-5.1426,-5.1426,-5.1426,-5.1426,-5.1426,-5.1426,-5.1426,-5.1426,-5.1426,-5.1426,-5.1231,-5.047,-4.9882,-4.9686,-4.8879,-4.8286,-4.8286,-4.8286,-4.8286,-4.8286,-4.8286,-4.7846,-4.6837,-4.658,-4.6342,-4.603,-4.5938,-4.5883,-4.5883,-4.5318,-4.4939,-4.4388,-4.3817,-4.3244,-4.2861,-4.2861,-4.2861,-5.3135,-5.3235,-5.3069,-5.5885,-5.6249,-5.7409,-6.3239,-6.1914,-6.0357,-6.357,-6.2113,-6.0258,-6.0324,-6.622,-7.215,-7.5529,-8.1923,-8.7587,-9.0668,0.0,-9.1166,-9.3501,-9.1898,0.0,0.0,0.0,0.0,0.0,0.0,0.0,-8.2798,-8.1868,-8.1238,-8.1238,-7.9918,-7.9138,-7.9138,-7.8678,-7.9133,-8.0294,-7.9501,-7.902,-7.902,-7.8184,-7.7694,-7.7694,-7.6871,-7.5871,-7.5001,-7.3978,-7.3169,-7.235,-7.2323,-7.2323,-7.235,-7.177,-7.1417,-7.0782,-6.9688,-6.8979,-6.8447,-6.7367,-6.7041,-6.6566,-6.3972,-6.2006,-6.0022,-5.796,-5.5807,-5.4033,-5.3842,-5.3458,-5.284,-5.2434,-5.1833,-5.1426,-5.1426,-5.1426,-5.1426,-5.1426,-5.1426,-5.1426,-5.1426,-5.1426,-5.1231,-5.0842,-5.0274,-4.9686,-4.9292,-4.8682,-4.8286,-4.8286,-4.8286,-4.8286,-4.8286,-4.8286,-4.8084,-4.7644,-4.6892,-4.647,-4.6434,-4.6085,-4.5883,-4.5883,-4.5318,-4.4939,-4.4388,-4.3817,-4.3244,-4.2861,-4.2861,-4.2861,-5.0916,-5.1744,-5.35,-5.827,-5.9926,-6.1384,-6.5227,-6.6452,-6.7446,-6.9732,-6.897,-6.7877,-6.7877,-7.0891,-7.49,-7.9637,-8.5037,-8.9475,-9.1927,-9.1632,-9.1583,0.0,0.0,0.0,0.0,0.0,0.0,0.0,0.0,0.0,-8.22,-8.163,-8.082,-8.0284,-7.9442,-7.8839,-7.8715,-7.8224,-7.833,-7.8793,-7.8538,-7.846,-7.8536,-7.8021,-7.7694,-7.7694,-7.6705,-7.5871,-7.4859,-7.3978,-7.3142,-7.2297,-7.2297,-7.2122,-7.177,-7.1391,-7.0654,-6.9739,-6.8651,-6.8071,-6.7467,-6.6689,-6.6438,-6.5844,-6.2363,-6.0836,-5.9567,-5.6516,-5.4693,-5.376,-5.3377,-5.2992,-5.2394,-5.1814,-5.162,-5.1426,-5.1426,-5.1426,-5.1426,-5.1426,-5.1426,-5.1426,-5.1426,-5.1426,-5.1231,-5.0842,-5.0274,-4.9686,-4.9095,-4.8682,-4.8286,-4.8286,-4.8286,-4.8286,-4.8286,-4.8286,-4.8212,-4.8066,-4.7534,-4.7002,-4.6507,-4.6324,-4.614,-4.5902,-4.5129,-4.4578,-4.4388,-4.3626,-4.3053,-4.2861,-4.2861,-4.2861,-4.979,-5.0551,-5.287,-5.7806,-6.1351,-6.4664,-6.8705,-7.1355,-7.3773,-7.6655,-7.5363,-7.3575,-7.3111,-7.4403,-7.7086,0.0,-8.6395,-9.0048,-9.169,0.0,0.0,0.0,0.0,0.0,0.0,0.0,0.0,0.0,0.0,0.0,0.0,-8.0824,-8.0047,-7.9303,-7.8645,-7.8103,-7.7798,-7.7309,-7.7241,-7.7316,-7.7249,-7.7588,-7.8091,-7.7576,-7.7362,-7.7201,-7.6373,-7.5367,-7.4491,-7.3634,-7.2795,-7.2297,-7.2297,-7.1946,-7.1594,-7.1037,-7.0146,-6.908,-6.8171,-6.7442,-6.689,-6.6312,-6.5742,-6.4653,-6.1219,-5.9931,-5.8675,-5.5241,-5.3951,-5.3377,-5.2992,-5.2394,-5.1988,-5.162,-5.1426,-5.1426,-5.1426,-5.1426,-5.1426,-5.1426,-5.1426,-5.1426,-5.1426,-5.1231,-5.1037,-5.0451,-5.0078,-4.9489,-4.8879,-4.8484,-4.8286,-4.8286,-4.8286,-4.8286,-4.8286,-4.8286,-4.8286,-4.8286,-4.8029,-4.7516,-4.6709,-4.6544,-4.6287,-4.5902,-4.4957,-4.4388,-4.4388,-4.3244,-4.2861,-4.2861,-4.2861,-4.2861,-5.0783,-5.022,-5.0949,-5.3864,-5.9595,-6.6585,-7.4568,-7.6954,-7.914,-8.5003,-8.1558,-7.7053,-7.5628,-7.7119,-7.9272,-8.1459,-8.6097,-8.9643,0.0,0.0,0.0,0.0,0.0,0.0,0.0,0.0,0.0,0.0,0.0,0.0,0.0,-7.9397,-7.8596,-7.8596,-7.7233,-7.6462,-7.6462,-7.5981,-7.5842,-7.6221,-7.5697,-7.6192,-7.7411,-7.6957,-7.6643,-7.6373,-7.5339,-7.4491,-7.3462,-7.2621,-7.2297,-7.2297,-7.2297,-7.1946,-7.1594,-7.1037,-7.0146,-6.9055,-6.8171,-6.7442,-6.6865,-6.6287,-6.4827,-6.2848,-6.0836,-5.8859,-5.6846,-5.4482,-5.3377,-5.28,-5.2394,-5.2201,-5.2008,-5.162,-5.1426,-5.1426,-5.1426,-5.1426,-5.1426,-5.1426,-5.1426,-5.1426,-5.1426,-5.1037,-5.0451,-4.9882,-4.9489,-4.8879,-4.8286,-4.8286,-4.8286,-4.8286,-4.8286,-4.8286,-4.8286,-4.8286,-4.8286,-4.8286,-4.8286,-4.7937,-4.7149,-4.6709,-4.6305,-4.5902,-4.4957,-4.4388,-4.4388,-4.3244,-4.2861,-4.2861,-4.2861,-4.2861,-4.9392,-5.128,-5.509,-5.9562,-6.6419,-7.4005,-8.1525,-8.3016,-8.4175,-8.8979,-8.5765,-8.1757,-8.0829,-8.1161,-8.1989,-8.3148,-8.6282,-8.883,0.0,0.0,0.0,0.0,0.0,0.0,0.0,0.0,0.0,0.0,0.0,0.0,0.0,-7.8982,-7.8241,-7.7531,-7.6879,-7.6312,-7.5981,-7.5526,-7.5335,-7.5044,-7.4578,-7.5098,-7.6309,-7.6177,-7.5777,-7.5102,-7.4086,-7.3252,-7.2436,-7.1833,-7.1905,-7.2297,-7.2297,-7.177,-7.1063,-7.0859,-6.9739,-6.8197,-6.7844,-6.7166,-6.6338,-6.6162,-6.4827,-6.2848,-6.0836,-5.8859,-5.6846,-5.4482,-5.3377,-5.28,-5.2394,-5.2008,-5.162,-5.1426,-5.1426,-5.1426,-5.1426,-5.1426,-5.1426,-5.1426,-5.1426,-5.1426,-5.1426,-5.1037,-5.0451,-4.9882,-4.9489,-4.8879,-4.8286,-4.8286,-4.8286,-4.8286,-4.8286,-4.8286,-4.8286,-4.8286,-4.8286,-4.8286,-4.8286,-4.8047,-4.7534,-4.713,-4.6535,-4.5734,-4.4893,-4.4198,-4.3817,-4.3053,-4.2861,-4.2861,-4.2861,-4.2861,-5.1843,-5.499,-5.9827,-6.4664,-7.1024,-7.8179,-8.6097,-8.7786,-8.8415,-9.1032,-8.8449,-8.5567,-8.5136,-8.4838,-8.4871,-8.56,-8.7216,-8.8212,-8.807,0.0,0.0,0.0,0.0,0.0,0.0,0.0,0.0,0.0,0.0,0.0,0.0,-7.8361,-7.7887,-7.7119,-7.6762,-7.6283,-7.583,-7.5374,-7.4914,-7.4606,-7.4169,-7.425,-7.4661,-7.4912,-7.4653,-7.4033,-7.2713,-7.1903,-7.1449,-7.111,-7.1304,-7.1618,-7.1444,-7.0921,-7.0193,-7.0017,-6.8928,-6.7467,-6.7467,-6.689,-6.594,-6.5199,-6.3578,-6.1756,-5.9749,-5.759,-5.5577,-5.3931,-5.3185,-5.2587,-5.2008,-5.162,-5.1426,-5.1426,-5.1426,-5.1426,-5.1426,-5.1426,-5.1426,-5.1426,-5.1426,-5.1426,-5.1231,-5.0646,-5.0274,-4.9686,-4.9095,-4.8682,-4.8286,-4.8286,-4.8286,-4.8286,-4.8286,-4.8286,-4.8286,-4.8286,-4.8286,-4.8286,-4.8286,-4.8176,-4.7937,-4.7211,-4.6525,-4.5706,-4.4565,-4.4008,-4.3626,-4.3053,-4.2861,-4.2861,-4.2861,-4.2861,-5.6316,-5.9993,-6.4763,-6.9334,-7.4668,-8.0896,-8.8912,-9.1264,-9.1761,-9.1695,-8.9972,-8.8515,-8.8515,-8.7985,-8.7786,-8.8262,-8.8206,-8.7721,-8.6147,0.0,0.0,0.0,0.0,0.0,0.0,0.0,0.0,0.0,0.0,0.0,0.0,-7.7711,-7.7269,-7.7002,-7.6467,-7.6109,-7.5657,-7.5202,-7.4772,-7.4436,-7.4,-7.3404,-7.2644,-7.3252,-7.3319,-7.2882,-7.1069,-7.0468,-7.052,-7.052,-7.0546,-7.0427,-7.0006,-6.9489,-6.902,-6.862,-6.7767,-6.6965,-6.6965,-6.6415,-6.557,-6.3754,-6.1756,-5.9772,-5.7938,-5.5765,-5.376,-5.2992,-5.2587,-5.2008,-5.162,-5.1426,-5.1426,-5.1426,-5.1426,-5.1426,-5.1426,-5.1426,-5.1426,-5.1426,-5.1426,-5.1231,-5.0842,-5.0274,-4.9686,-4.9095,-4.8682,-4.8286,-4.8286,-4.8286,-4.8286,-4.8286,-4.8286,-4.8286,-4.8286,-4.8286,-4.8286,-4.8286,-4.8286,-4.8286,-4.8286,-4.693,-4.6139,-4.576,-4.4392,-4.3626,-4.3626,-4.3053,-4.2861,-4.2861,-4.2861,-4.2861,-5.4957,-6.0721,0.0,-7.4237,-8.2651,-8.9906,-9.1794,-9.2788,-9.3153,-9.2556,-9.1165,-9.0039,-9.0039,-8.9939,-8.9471,-8.85,-8.7749,-8.6748,-8.4745,0.0,0.0,0.0,0.0,0.0,0.0,0.0,0.0,0.0,0.0,0.0,-7.777,-7.6858,-7.63,-7.5885,-7.5214,-7.4629,-7.3914,-7.3764,-7.3463,0.0,-7.258,-7.2343,-7.2009,-7.2616,-7.2148,-7.0656,-6.9715,-6.9474,-6.9893,-6.9893,-6.9984,-7.0032,-6.942,-6.8982,-6.862,-6.8014,-6.7414,-6.6965,-6.6965,-6.5669,-6.3754,-6.3378,-6.0836,-5.7938,-5.7033,-5.5409,-5.3569,-5.2587,-5.2201,-5.2008,-5.162,-5.1426,-5.1426,-5.1426,-5.1426,-5.1426,-5.1426,-5.1426,-5.1426,-5.1426,-5.1426,-5.1231,-5.0842,-5.0274,-4.9489,-4.8682,-4.8286,-4.8286,-4.8286,-4.8286,-4.8286,-4.8286,-4.8286,-4.8286,-4.8286,-4.8286,-4.8286,-4.8286,-4.8286,-4.8286,-4.8286,-4.693,-4.6089,-4.5593,-4.4342,-4.3435,-4.3053,-4.2861,-4.2861,-4.2861,-4.2861,-4.2861,-5.8204,-6.463,0.0,-8.1426,0.0,-9.3219,-9.3219,-9.3517,-9.3384,-9.196,-9.1331,-9.1032,-9.1032,-9.0767,-8.9973,-8.8603,-8.7413,-8.5786,0.0,0.0,0.0,0.0,0.0,0.0,0.0,0.0,0.0,0.0,0.0,-7.7144,-7.6709,-7.6094,-7.5451,-7.504,-7.4545,-7.3929,-7.3364,-7.3214,-7.2764,-7.2187,-7.2187,-7.1715,-7.0748,-7.1173,-7.0771,-6.9485,-6.9014,-6.9004,-6.9291,-6.9291,-6.9137,-6.9057,-6.8577,-6.7938,-6.7253,-6.6778,-6.6334,-6.6162,-6.6162,-6.4876,-6.3025,-6.2113,-5.9749,-5.7219,-5.5765,-5.4482,-5.3185,-5.2394,-5.2008,-5.1814,-5.1426,-5.1426,-5.1426,-5.1426,-5.1426,-5.1426,-5.1426,-5.1426,-5.1426,-5.1426,-5.1231,-5.0842,-5.047,-4.9686,-4.8879,-4.8286,-4.8286,-4.8286,-4.8286,-4.8286,-4.8286,-4.8286,-4.8286,-4.8286,-4.8286,-4.8286,-4.8286,-4.8286,-4.8286,-4.8088,-4.7907,-4.6734,-4.5912,-4.5523,-4.401,-4.3053,-4.2861,-4.2861,-4.2861,-4.2861,-4.2861,-4.2861,-6.092,-6.844,-7.6821,-8.7654,-9.1993,0.0,-9.3616,-9.3517,-9.2854,-9.0933,-9.0999,-9.1364,-9.1231,-9.0453,-8.9524,0.0,0.0,0.0,0.0,0.0,0.0,0.0,0.0,0.0,0.0,0.0,0.0,0.0,0.0,-7.6111,-7.5677,-7.5128,-7.4635,-7.4343,-7.3964,-7.3494,-7.3049,-7.2752,-7.2302,-7.185,-7.1658,-7.0738,-6.9178,-6.9481,-6.9221,-6.869,-6.8795,-6.8847,-6.8847,-6.8847,-6.8513,-6.8009,-6.7569,-6.6704,-6.5791,-6.5352,-6.5157,-6.5157,-6.5157,-6.4014,-6.2208,-6.0581,-5.8474,-5.6179,-5.4189,-5.3316,-5.28,-5.2201,-5.1814,-5.1426,-5.1426,-5.1426,-5.1426,-5.1426,-5.1426,-5.1426,-5.1426,-5.1426,-5.1426,-5.1231,-5.0842,-5.0255,-4.9882,-4.8898,-4.8286,-4.8286,-4.8286,-4.8286,-4.8286,-4.8286,-4.8286,-4.8286,-4.8286,-4.8286,-4.8286,-4.8286,-4.8286,-4.8286,-4.8286,-4.8088,-4.7528,-4.6342,-4.5523,-4.5523,-4.3624,-4.2861,-4.2861,-4.2861,-4.2861,-4.2861,-4.2861,-4.2861,-5.5819,0.0,-8.0498,0.0,-9.1198,-9.2821,0.0,-9.2324,-9.1629,0.0,-9.0602,-9.0469,-8.984,-8.8677,-8.7276,0.0,0.0,0.0,0.0,0.0,0.0,0.0,0.0,0.0,0.0,0.0,0.0,0.0,-7.6881,-7.6267,-7.5245,-7.4314,-7.3734,-7.3734,-7.2894,-7.2172,-7.1764,-7.1296,-7.1001,-7.0557,-6.9549,-6.8713,-6.7798,-6.7664,-6.7756,-6.8141,-6.8638,-6.8847,-6.8847,-6.8847,-6.8345,-6.7594,-6.6964,-6.6229,-6.5402,-6.4756,-6.458,-6.458,-6.458,-6.2323,-5.9385,-5.9031,-5.6626,-5.3526,-5.2789,-5.2479,-5.2201,-5.162,-5.1426,-5.1426,-5.1426,-5.1426,-5.1426,-5.1426,-5.1426,-5.1426,-5.1426,-5.1426,-5.1231,-5.0842,-5.0059,-4.9273,-4.9292,-4.8682,-4.8286,-4.8286,-4.8286,-4.8286,-4.8286,-4.8286,-4.8286,-4.8286,-4.8286,-4.8286,-4.8286,-4.8286,-4.8286,-4.8286,-4.8286,-4.8088,-4.7528,-4.6342,-4.5346,-4.4972,-4.3431,-4.2861,-4.2861,-4.2861,-4.2861,-4.2861,-4.2861,-4.2861,-5.9661,-7.0792,-8.1293,0.0,-9.0436,-9.1066,-9.1894,-9.1496,-9.0668,-8.9509,-8.9277,-8.9032,-8.8322,0.0,0.0,0.0,0.0,0.0,0.0,0.0,0.0,0.0,0.0,0.0,0.0,0.0,0.0,0.0,-7.5549,-7.4768,-7.4047,-7.3355,-7.2922,-7.2778,-7.2085,-7.1507,-7.1215,-7.0747,-7.0304,-6.9559,-6.8749,-6.7808,-6.7028,-6.6685,-6.6939,-6.7514,-6.7749,-6.7854,-6.7854,-6.755,-6.722,-6.6554,-6.6296,-6.5604,-6.4404,-6.4454,-6.4279,-6.3861,-6.2806,-6.0882,-5.8648,-5.7604,-5.5248,-5.2699,-5.2155,-5.1888,-5.1844,-5.1267,-5.125,-5.1426,-5.1426,-5.1426,-5.1426,-5.1426,-5.1426,-5.1426,-5.1426,-5.1426,-5.1231,-5.047,-4.9686,-4.9076,-4.8682,-4.8484,-4.8286,-4.8286,-4.8286,-4.8286,-4.8286,-4.8286,-4.8286,-4.8286,-4.8286,-4.8286,-4.8286,-4.8286,-4.8286,-4.8286,-4.8286,-4.7889,-4.7111,-4.6145,-4.515,-4.4384,-4.3255,-4.2861,-4.2861,-4.2861,-4.2861,-4.2861,-4.2861,-4.2861,0.0,0.0,-7.6689,-8.3976,-8.666,-8.7852,0.0,0.0,-8.9442,0.0,-8.7909,-8.7266,0.0,0.0,0.0,0.0,0.0,0.0,0.0,0.0,0.0,0.0,0.0,0.0,0.0,0.0,0.0,0.0,-7.393,-7.3187,-7.259,-7.2279,-7.1995,-7.1596,-7.1165,-7.0876,-7.044,-6.9995,-6.9309,-6.8559,-6.781,-6.7121,-6.6342,-6.616,-6.6286,-6.6678,-6.6965,-6.7096,-6.7096,-6.6633,-6.6305,-6.5836,-6.5772,-6.5006,-6.3726,-6.4128,-6.3594,-6.2597,-6.1207,-5.9374,-5.7576,-5.5995,-5.3928,-5.1857,-5.1504,-5.132,-5.1375,-5.0993,-5.1113,-5.1426,-5.1426,-5.1426,-5.1426,-5.1426,-5.1426,-5.1426,-5.1426,-5.1231,-5.0861,-5.0078,-4.9292,-4.8682,-4.8286,-4.8286,-4.8286,-4.8286,-4.8286,-4.8286,-4.8286,-4.8286,-4.8286,-4.8286,-4.8286,-4.8286,-4.8286,-4.8286,-4.8286,-4.8286,-4.8088,-4.7708,-4.6711,-4.5949,-4.4955,-4.3991,-4.3255,-4.2861,-4.2861,-4.2861,-4.2861,-4.2861,-4.2861,-4.2861,-5.3102,-5.8568,0.0,-7.1156,-7.7616,-8.2585,0.0,0.0,-8.762,-8.8184,-8.6684,0.0,0.0,0.0,0.0,0.0,0.0,0.0,0.0,0.0,0.0,0.0,0.0,0.0,0.0,0.0,0.0,0.0,-7.2599,-7.1918,-7.086,-7.0831,-7.0692,-7.03,-6.9849,-6.9565,-6.9109,-6.8539,-6.7926,-6.7024,-6.6826,-6.6159,-6.5397,-6.5423,-6.5449,-6.5528,-6.6625,-6.7096,-6.7096,-6.6633,-6.6305,-6.5811,-6.5365,-6.4537,-6.3701,-6.3726,-6.2331,-6.0291,-6.0123,-5.7745,-5.4652,-5.4078,-5.2625,-5.1041,-5.0464,-5.0495,-5.0801,-5.0801,-5.1113,-5.1426,-5.1426,-5.1426,-5.1426,-5.1426,-5.1426,-5.1426,-5.1426,-5.0666,-4.9882,-4.9882,-4.9095,-4.8286,-4.8286,-4.8286,-4.8286,-4.8286,-4.8286,-4.8286,-4.8286,-4.8286,-4.8286,-4.8286,-4.8286,-4.8286,-4.8286,-4.8286,-4.8286,-4.8286,-4.7907,-4.731,-4.6711,-4.5572,-4.4581,-4.3991,-4.3255,-4.2861,-4.2861,-4.2861,-4.2861,-4.2861,-4.2861,-4.2861,-5.1214,0.0,0.0,-6.8274,-7.2713,-7.639,-7.9736,-8.2188,-8.3978,-8.4729,0.0,0.0,0.0,0.0,0.0,0.0,0.0,0.0,0.0,0.0,0.0,0.0,0.0,0.0,0.0,0.0,0.0,0.0,0.0,-7.1393,-7.0744,-7.0465,-7.0185,-6.9904,-6.9451,-6.9024,-6.8737,-6.7919,-6.7145,-6.6399,-6.6262,-6.5603,-6.4848,-6.5214,-6.5371,-6.5397,-6.5815,-6.5629,-6.4946,-6.4652,-6.4171,-6.3712,-6.3603,-6.3464,-6.3174,-6.355,-6.2115,-5.9907,-5.87,-5.6445,-5.3835,-5.245,-5.1148,-5.0026,-4.9822,-5.0082,-5.0391,-5.0391,-5.0898,-5.1426,-5.1426,-5.1426,-5.1426,-5.1426,-5.1426,-5.1231,-5.1037,-5.047,-4.9882,-4.9882,-4.9076,-4.8286,-4.8286,-4.8286,-4.8102,-4.7607,-4.7956,-4.8102,-4.7589,-4.7974,-4.8286,-4.8286,-4.8286,-4.8286,-4.8286,-4.8286,-4.8286,-4.8286,-4.7708,-4.7328,-4.6711,-4.5603,-4.4823,-4.3991,-4.3477,-4.3101,-4.2861,-4.2861,-4.2861,-4.2861,-4.2861,-4.2724,-4.7438,-5.1711,-5.7011,0.0,-6.579,-6.9069,-7.6159,0.0,-8.041,-8.3073,0.0,0.0,0.0,0.0,0.0,0.0,0.0,0.0,0.0,0.0,0.0,0.0,0.0,0.0,0.0,0.0,0.0,0.0,0.0,0.0,-7.0076,-6.969,-6.9273,-6.8824,-6.84,-6.7946,-6.7545,-6.6844,-6.6192,-6.5328,-6.5189,-6.4867,-6.4273,-6.4639,-6.4926,-6.5083,-6.4951,-6.4663,-6.4191,-6.3715,-6.3236,-6.294,-6.2834,-6.2822,-6.2873,-6.3249,-6.161,-5.904,-5.7653,-5.54,-5.2608,-5.1227,-5.0337,-4.9604,-4.942,-4.9659,-5.0176,-5.0176,-5.0781,-5.1426,-5.1426,-5.1426,-5.1426,-5.1426,-5.1231,-5.1037,-5.0842,-5.0274,-4.9882,-4.9686,-4.8879,-4.8286,-4.8286,-4.8286,-4.8102,-4.7589,-4.7956,-4.8102,-4.7571,-4.7956,-4.8286,-4.8286,-4.8286,-4.8286,-4.8286,-4.8286,-4.8286,-4.8286,-4.7708,-4.7111,-4.6711,-4.5725,-4.4747,-4.4008,-4.3614,-4.3221,-4.2861,-4.2861,-4.2861,-4.2861,-4.2724,-4.1672,0.0,0.0,0.0,-5.3864,0.0,0.0,-7.2912,0.0,-7.6722,-8.338,0.0,0.0,0.0,0.0,0.0,0.0,0.0,0.0,0.0,0.0,0.0,0.0,0.0,0.0,0.0,0.0,0.0,0.0,-6.8963,-6.8828,-6.8828,-6.845,-6.7873,-6.7154,-6.6735,-6.6145,-6.5407,-6.5118,-6.4681,-6.3964,-6.3817,-6.3646,-6.3646,-6.3672,-6.3985,-6.4534,-6.4038,-6.4217,-6.4761,-6.428,-6.3771,-6.3423,-6.296,-6.2797,-6.2797,-6.2822,-6.041,-5.7309,-5.7309,-5.4543,-5.1066,-5.0519,-4.9971,-4.942,-4.9052,-4.9473,-5.0176,-5.0176,-5.0781,-5.1426,-5.1426,-5.1426,-5.1426,-5.1426,-5.1037,-5.0646,-5.0646,-5.0274,-4.9686,-4.9292,-4.8682,-4.8286,-4.8286,-4.8286,-4.8286,-4.8249,-4.8249,-4.8249,-4.8249,-4.8249,-4.8249,-4.8286,-4.8286,-4.8286,-4.8286,-4.8286,-4.8286,-4.8286,-4.731,-4.6711,-4.6711,-4.5344,-4.4368,-4.4008,-4.3614,-4.3238,-4.2861,-4.2861,-4.2844,-4.2827,-4.2433,-3.972,-4.0945,0.0,0.0,0.0,0.0,0.0,0.0,0.0,0.0,0.0,0.0,0.0,0.0,0.0,0.0,0.0,0.0,0.0,0.0,0.0,0.0,0.0,0.0,0.0,0.0,0.0,0.0,0.0,-6.8963,-6.8692,-6.845,-6.7873,-6.7293,-6.6735,-6.6595,-6.6145,-6.5407,-6.4881,-6.4088,-6.3378,-6.3087,-6.3071,-6.3071,-6.3489,-6.383,-6.4038,-6.3881,-6.39,-6.3771,-6.3177,-6.2611,-6.1827,-6.2069,-6.2245,-6.2295,-6.2672,-6.041,-5.7309,-5.7309,-5.4345,-5.0519,-5.0337,-4.9787,-4.9032,-4.8867,-4.9473,-5.0176,-5.0176,-5.0781,-5.1426,-5.1426,-5.1426,-5.1426,-5.1426,-5.1037,-5.0646,-5.0274,-4.9686,-4.9292,-4.9095,-4.8682,-4.8286,-4.8286,-4.8286,-4.8084,-4.7516,-4.7424,-4.7424,-4.7424,-4.7424,-4.7644,-4.8231,-4.8286,-4.8286,-4.8286,-4.8286,-4.8088,-4.7708,-4.7111,-4.6511,-4.611,-4.5404,-4.4642,-4.4008,-4.3888,-4.3512,-4.2861,-4.2861,-4.2724,-4.2433,-4.0231,-3.7978,-4.2303,-4.3628,-4.5914,-4.7139,0.0,0.0,-5.7133,-5.9325,0.0,0.0,0.0,0.0,0.0,0.0,0.0,0.0,0.0,0.0,0.0,0.0,0.0,0.0,0.0,0.0,0.0,-7.025,-6.9495,-6.9098,-6.8828,-6.8421,-6.7873,-6.746,-6.7014,-6.6595,-6.6286,-6.572,-6.5005,-6.4138,-6.3433,-6.2693,-6.2437,-6.2469,-6.2469,-6.2809,-6.3126,-6.3182,-6.3026,-6.3017,-6.3067,-6.2349,-6.1752,-6.1567,-6.1893,-6.1994,-6.1908,-6.1779,-5.9907,-5.7137,-5.6272,-5.348,-5.0337,-5.0154,-4.9604,-4.8867,-4.8867,-4.9473,-5.0176,-5.0176,-5.0781,-5.1426,-5.1426,-5.1426,-5.1426,-5.1231,-5.0646,-5.0274,-4.9686,-4.9095,-4.8682,-4.8682,-4.8484,-4.8286,-4.8286,-4.8286,-4.8121,-4.7662,-4.7607,-4.7607,-4.7607,-4.7607,-4.7772,-4.8231,-4.8286,-4.8286,-4.8286,-4.8088,-4.7907,-4.7528,-4.6729,-4.6311,-4.5909,-4.5306,-4.4762,-4.4008,-4.3837,-4.3289,-4.2381,-4.2536,-4.1951,-4.0452,-3.8885,-3.6539,-4.4854,-4.5582,-4.7703,-5.0088,-4.7404,0.0,-5.8482,-5.9411,-6.0208,0.0,0.0,0.0,0.0,0.0,0.0,0.0,0.0,0.0,0.0,0.0,0.0,0.0,0.0,0.0,-7.0724,-7.0174,-6.9612,-6.8654,-6.8219,-6.7702,-6.704,-6.7069,-6.6819,-6.6455,-6.5692,-6.4978,-6.4165,-6.3406,-6.2693,-6.1973,-6.1973,-6.1973,-6.1973,-6.1973,-6.1984,-6.2045,-6.1762,-6.1885,-6.2299,-6.1475,-6.1416,-6.1918,-6.1918,-6.1732,-6.1459,-6.0476,-5.8653,-5.6618,-5.4499,-5.2249,-5.0154,-4.9787,-4.9236,-4.8867,-4.8867,-4.9433,-5.0117,-5.0215,-5.082,-5.1426,-5.1426,-5.1426,-5.1231,-5.0842,-5.0274,-4.9686,-4.9292,-4.8682,-4.8286,-4.8286,-4.8286,-4.8286,-4.8286,-4.8286,-4.8286,-4.8286,-4.8212,-4.8176,-4.8267,-4.8212,-4.8194,-4.8267,-4.8286,-4.8286,-4.8286,-4.7871,-4.7473,-4.7328,-4.6476,-4.5875,-4.5708,-4.5271,-4.4693,-4.394,-4.346,-4.2707,-4.1697,-4.2022,-4.0845,-3.8131,-3.7897,-3.5637,-4.7471,-4.7901,-4.8398,-4.7173,-4.7438,0.0,-4.7124,-4.9258,-5.2491,0.0,0.0,0.0,0.0,0.0,0.0,0.0,0.0,0.0,0.0,0.0,0.0,0.0,0.0,0.0,-6.8972,-6.8019,-6.7509,-6.726,-6.6596,-6.6286,-6.636,-6.6113,-6.5922,-6.5692,-6.555,-6.469,-6.3406,-6.3111,-6.2693,-6.1973,-6.1973,-6.1973,-6.1973,-6.1646,-6.1528,-6.1762,-6.1298,-6.1211,-6.145,-6.0713,-6.0814,-6.1341,-6.1341,-6.049,-5.9195,-5.9233,-5.7647,-5.4917,-5.4168,-5.2249,-5.0154,-4.9787,-4.9236,-4.8867,-4.8867,-4.9238,-4.9805,-5.0488,-5.1035,-5.1426,-5.1426,-5.1426,-5.1231,-5.0842,-5.0274,-4.9686,-4.9292,-4.8682,-4.8286,-4.8286,-4.8286,-4.8286,-4.8286,-4.8286,-4.8286,-4.8286,-4.7736,-4.7571,-4.8212,-4.7736,-4.7571,-4.8212,-4.8286,-4.8286,-4.8286,-4.7598,-4.6969,-4.6893,-4.6012,-4.5379,-4.5306,-4.4813,-4.4282,-4.3529,-4.2536,-4.1919,-4.1697,-4.1491,-4.036,-3.8116,-3.6124,-3.3916,-5.0121,-4.9922,-5.0088,-4.969,-4.8498,0.0,0.0,-4.8122,-4.9791,-5.2974,-5.3214,0.0,0.0,0.0,0.0,0.0,0.0,0.0,0.0,0.0,0.0,0.0,0.0,0.0,-6.7932,-6.732,-6.6751,-6.6355,-6.5822,-6.5561,-6.5464,-6.5355,-6.5222,-6.4965,-6.4539,-6.3984,-6.3111,-6.2693,-6.2396,-6.1973,-6.1973,-6.1823,-6.1672,-6.1495,-6.1195,-6.0865,-6.071,-6.0549,-6.0713,-6.0136,-6.0236,-6.0738,-6.0738,-5.9749,-5.8372,-5.8047,-5.6359,-5.4013,-5.2608,-5.1207,-4.9787,-4.942,-4.9052,-4.8867,-4.8867,-4.918,-4.9668,-5.0312,-5.0801,-5.1113,-5.1113,-5.1076,-5.0842,-5.047,-4.9882,-4.9292,-4.8879,-4.8484,-4.8286,-4.8286,-4.8286,-4.8286,-4.8286,-4.8286,-4.8286,-4.8286,-4.7956,-4.7827,-4.8231,-4.7937,-4.7772,-4.7974,-4.7992,-4.7901,-4.7717,-4.6734,-4.6199,-4.6392,-4.5421,-4.4893,-4.5087,-4.4727,-4.3991,-4.2878,-4.1919,-4.1337,-4.1149,-4.0008,-3.8417,-3.6341,-3.4118,-3.1989,-5.3268,-5.2909,-5.3208,-5.3108,-5.0587,-4.8562,0.0,0.0,0.0,0.0,0.0,0.0,0.0,0.0,0.0,0.0,0.0,0.0,0.0,0.0,0.0,0.0,0.0,0.0,0.0,-6.6067,-6.5521,-6.525,-6.4557,-6.4159,-6.4375,-6.438,-6.4304,-6.4076,-6.3394,-6.2947,-6.2656,-6.2089,-6.1868,-6.1973,-6.1973,-6.1672,-6.1344,-6.1089,-6.0634,-6.0099,-5.987,-5.9968,-6.0136,-5.9684,-5.9604,-5.9665,-5.9665,-5.89,-5.7691,-5.6253,-5.4716,-5.2945,-5.0843,-4.9971,-4.9604,-4.9032,-4.8867,-4.8867,-4.8867,-4.918,-4.959,-4.9961,-5.0351,-5.0703,-5.0781,-5.0668,-5.0355,-5.0059,-4.9489,-4.8879,-4.8484,-4.8286,-4.8286,-4.8286,-4.8286,-4.8286,-4.8286,-4.8286,-4.8286,-4.8286,-4.8286,-4.8286,-4.8286,-4.8212,-4.8047,-4.7736,-4.7626,-4.7461,-4.713,-4.6053,-4.5594,-4.5984,-4.5014,-4.4573,-4.4882,-4.4385,-4.3529,-4.2313,-4.1474,-4.0777,-4.0241,-3.8023,-3.6267,-3.4592,-3.2556,-3.0496,-5.7674,-5.8628,-5.8885,-5.3119,-5.4328,-5.4745,-4.6092,0.0,-4.8492,-4.4529,0.0,0.0,0.0,0.0,0.0,0.0,0.0,0.0,0.0,0.0,0.0,0.0,0.0,0.0,0.0,-6.2069,-6.1646,-6.3265,-6.1251,-6.0847,-6.2998,-6.2943,-6.2811,-6.2715,-6.2032,-6.149,-6.1363,-6.1215,-6.1476,-6.1973,-6.1646,-6.1495,-6.1344,-6.0073,-5.9795,-6.0099,-5.9159,-5.9106,-5.9583,-5.9533,-5.855,-5.7314,-5.7314,-5.6767,-5.5817,-5.351,-5.2224,-5.1227,-5.0134,-4.9604,-4.9604,-4.9032,-4.8867,-4.8867,-4.8867,-4.918,-4.9531,-4.959,-4.9922,-5.0332,-5.0703,-5.0436,-4.9991,-4.9983,-4.9489,-4.8879,-4.8484,-4.8286,-4.8286,-4.8286,-4.8286,-4.8286,-4.8286,-4.8286,-4.8286,-4.8286,-4.8286,-4.8286,-4.8286,-4.7974,-4.7736,-4.7699,-4.7387,-4.7149,-4.7112,-4.5802,-4.5186,-4.5576,-4.4633,-4.4077,-4.4128,-4.3101,-4.2467,-4.2296,-4.1217,-4.0025,-3.8922,-3.62,-3.4779,-3.4592,-3.2556,-3.0496,-5.8664,-5.9577,-5.9923,-5.5335,-5.5041,-5.4246,-4.7866,-4.6213,-4.5586,-4.3977,0.0,0.0,0.0,0.0,0.0,0.0,-4.5079,0.0,0.0,0.0,0.0,0.0,0.0,0.0,0.0,0.0,0.0,0.0,-5.9144,-5.92,-6.1706,-6.1747,-6.1685,-6.1949,-6.1299,-6.0736,-6.0588,-6.0588,-6.0901,-6.1476,-6.1028,-6.0702,-6.0551,-6.0023,-5.9566,-5.9209,-5.9131,-5.9307,-5.9483,-5.8344,-5.7534,-5.6717,-5.4604,-5.3724,-5.3218,-5.2498,-5.1308,-4.9813,-4.9688,-4.942,-4.9236,-4.9032,-4.8867,-4.8867,-4.8867,-4.8984,-4.9141,-4.9141,-4.9453,-4.9844,-4.9641,-4.9665,-4.9489,-4.9095,-4.8927,-4.8484,-4.8286,-4.8286,-4.8286,-4.8286,-4.8286,-4.8286,-4.8286,-4.8286,-4.8286,-4.8286,-4.8286,-4.8212,-4.7974,-4.7791,-4.7516,-4.7039,-4.6837,-4.6562,-4.6103,-4.5155,-4.4601,-4.453,-4.3782,-4.3238,-4.3015,-4.233,-4.1851,-4.1645,-3.9807,-3.8673,-3.8036,-3.4551,-3.2919,-3.273,-3.0877,-2.9375,-6.1508,-6.1991,-6.2038,-5.7197,-5.5113,-5.3001,-4.8349,-4.5847,-4.4527,-4.4586,-4.3559,0.0,0.0,0.0,-3.9836,-4.0516,0.0,-4.4197,0.0,-4.5921,0.0,0.0,0.0,0.0,0.0,0.0,0.0,0.0,0.0,-5.6873,-6.013,-6.0373,-6.0456,-6.0831,-6.0322,-5.9985,-5.9986,-5.9986,-6.0274,-6.0875,-6.0438,-6.0114,-5.9686,-5.9643,-5.9388,-5.873,-5.9106,-5.9048,-5.8681,-5.7376,-5.6399,-5.5251,-5.2492,-5.1227,-5.0761,-5.1181,-5.0319,-4.9029,-4.9262,-4.9236,-4.8867,-4.8867,-4.8867,-4.8867,-4.8867,-4.8867,-4.8867,-4.8867,-4.9101,-4.9188,-4.893,-4.8843,-4.878,-4.8637,-4.8312,-4.8157,-4.8267,-4.8286,-4.8286,-4.8286,-4.8286,-4.8286,-4.8286,-4.8286,-4.8286,-4.8286,-4.8286,-4.8139,-4.7736,-4.7497,-4.7094,-4.6397,-4.6122,-4.5755,-4.5001,-4.4472,-4.3792,-4.341,-4.2829,-4.2416,-4.2142,-4.1765,-4.144,-4.1183,-3.8889,-3.7486,-3.7118,-3.338,-3.1297,-3.0803,-2.9221,-2.862,-6.8339,-6.8215,-6.7247,-5.7823,-5.508,-5.272,-4.5346,-4.5669,-4.6924,-4.4978,-4.6975,-4.8382,-4.6184,-4.5072,-4.3747,-4.173,-4.1983,0.0,0.0,0.0,0.0,0.0,0.0,0.0,0.0,0.0,0.0,0.0,0.0,0.0,-5.8048,-5.8734,-5.8995,-5.8933,-5.8684,-5.881,-5.9385,-5.9385,-5.9673,-6.0248,-6.0082,-5.9609,-5.9096,-5.8782,-5.873,-5.873,-5.873,-5.8056,-5.7035,-5.6876,-5.4928,-5.1827,-5.1325,-4.9679,-4.7996,-4.8864,-4.9112,-4.9029,-4.8895,-4.8848,-4.8867,-4.8867,-4.8867,-4.8867,-4.8867,-4.8867,-4.8867,-4.8867,-4.8867,-4.8984,-4.8853,-4.8404,-4.8064,-4.8488,-4.8108,-4.7827,-4.8212,-4.8286,-4.8286,-4.8286,-4.8286,-4.8286,-4.8286,-4.8286,-4.8286,-4.8286,-4.8286,-4.8139,-4.7736,-4.7002,-4.636,-4.5957,-4.5205,-4.4544,-4.4158,-4.3605,-4.3023,-4.2451,-4.1936,-4.1731,-4.1714,-4.1371,-4.1183,-4.1166,-3.8889,-3.6978,-3.5721,-3.2844,-3.0638,-2.8994,-2.8741,-2.862,0.0,0.0,-7.0453,-6.1437,0.0,-5.4587,-4.7196,-4.6603,-4.7299,-4.6161,-4.7588,-4.8753,-4.7532,-4.5695,-4.4038,-4.2851,-4.2132,-4.0935,0.0,0.0,0.0,0.0,0.0,0.0,0.0,0.0,0.0,0.0,-5.0304,0.0,0.0,-5.6773,-5.7437,-5.813,-5.842,-5.8601,-5.881,-5.881,-5.8928,-5.9212,-5.9367,-5.8897,-5.8238,-5.8605,-5.8529,-5.8202,-5.8554,-5.8056,-5.6876,-5.5597,-5.3788,-5.1514,-4.9849,-4.8695,-4.7782,-4.8014,-4.8137,-4.8071,-4.8797,-4.8867,-4.8867,-4.8867,-4.8867,-4.8867,-4.8867,-4.8867,-4.8867,-4.8867,-4.8867,-4.8702,-4.8133,-4.7987,-4.7875,-4.7394,-4.7305,-4.7351,-4.7479,-4.7497,-4.7497,-4.7497,-4.7497,-4.7497,-4.7497,-4.7497,-4.7681,-4.8212,-4.8066,-4.7754,-4.7351,-4.6599,-4.5938,-4.5535,-4.5003,-4.438,-4.3595,-4.2597,-4.1883,-4.1525,-4.1183,-4.096,-4.096,-4.084,-4.0789,-4.0789,-3.7454,-3.5443,-3.4914,-3.1521,-2.9405,-2.8765,-2.9019,-2.8958,-7.5731,-7.5389,0.0,-6.6127,-6.2299,0.0,-5.2093,-5.16,-5.2254,-5.0736,-5.1195,-5.182,-5.1758,-4.8802,-4.6052,-4.4945,-4.2981,-4.0248,0.0,-3.4957,0.0,0.0,0.0,0.0,0.0,-4.3255,-4.5032,-4.8517,-4.7318,-4.8428,0.0,0.0,-5.5601,-5.6477,-5.7676,-5.8314,-5.8523,-5.8381,-5.8395,-5.8471,-5.8481,-5.8162,-5.7385,-5.8278,-5.8428,-5.7951,-5.8679,-5.7892,-5.5919,-5.4766,-5.2801,-5.0358,-4.8695,-4.7854,-4.7414,-4.7482,-4.7662,-4.791,-4.8613,-4.8867,-4.8867,-4.8867,-4.8867,-4.8867,-4.8867,-4.8867,-4.8867,-4.8867,-4.8682,-4.8497,-4.7569,-4.7403,-4.7252,-4.6624,-4.669,-4.6929,-4.7075,-4.7112,-4.7112,-4.7112,-4.7112,-4.7112,-4.7112,-4.6984,-4.7057,-4.7571,-4.7424,-4.7075,-4.6525,-4.5865,-4.5297,-4.4911,-4.4618,-4.4179,-4.3197,-4.2038,-4.1205,-4.096,-4.072,-4.0583,-4.0583,-4.0583,-4.0583,-4.0583,-3.6637,-3.4695,-3.4929,-3.0767,-2.8886,-2.8898,-2.9055,-2.8994]}]]